<?xml version="1.0" encoding="UTF-8" standalone="no" ?>
<gpx xmlns="http://www.topografix.com/GPX/1/1" xmlns:xsi="http://www.w3.org/2001/XMLSchema-instance" xsi:schemaLocation="http://www.topografix.com/GPX/1/1 http://www.topografix.com/GPX/1/1/gpx.xsd" version="1.1" creator="VisuGPX - https://www.visugpx.com">
  <metadata>
    <name>Nez de Boeuf 33 km 2024</name>
  </metadata>
  <trk>
    <name><![CDATA[Club Reco avec groupe rando 35km NDB]]></name>
    <trkseg>
      <trkpt lat="48.38222" lon="2.37843">
        <ele>67.2</ele>
        <time>2024-04-21T07:05:24Z</time>
      </trkpt>
      <trkpt lat="48.38195" lon="2.37836">
        <ele>67.6</ele>
        <time>2024-04-21T07:05:32Z</time>
      </trkpt>
      <trkpt lat="48.38167" lon="2.37821">
        <ele>67.8</ele>
        <time>2024-04-21T07:05:39Z</time>
      </trkpt>
      <trkpt lat="48.38139" lon="2.37801">
        <ele>67.8</ele>
        <time>2024-04-21T07:05:46Z</time>
      </trkpt>
      <trkpt lat="48.38115" lon="2.37785">
        <ele>68.4</ele>
        <time>2024-04-21T07:05:53Z</time>
      </trkpt>
      <trkpt lat="48.38112" lon="2.37783">
        <ele>68.4</ele>
        <time>2024-04-21T07:05:54Z</time>
      </trkpt>
      <trkpt lat="48.38096" lon="2.37776">
        <ele>69.6</ele>
        <time>2024-04-21T07:05:59Z</time>
      </trkpt>
      <trkpt lat="48.38086" lon="2.37774">
        <ele>70.6</ele>
        <time>2024-04-21T07:06:02Z</time>
      </trkpt>
      <trkpt lat="48.38083" lon="2.37773">
        <ele>70.8</ele>
        <time>2024-04-21T07:06:03Z</time>
      </trkpt>
      <trkpt lat="48.38072" lon="2.3777">
        <ele>71.8</ele>
        <time>2024-04-21T07:06:06Z</time>
      </trkpt>
      <trkpt lat="48.38063" lon="2.37768">
        <ele>72.2</ele>
        <time>2024-04-21T07:06:08Z</time>
      </trkpt>
      <trkpt lat="48.38029" lon="2.37758">
        <ele>72.8</ele>
        <time>2024-04-21T07:06:16Z</time>
      </trkpt>
      <trkpt lat="48.38005" lon="2.37753">
        <ele>72.8</ele>
        <time>2024-04-21T07:06:22Z</time>
      </trkpt>
      <trkpt lat="48.37987" lon="2.37754">
        <ele>72.8</ele>
        <time>2024-04-21T07:06:27Z</time>
      </trkpt>
      <trkpt lat="48.37984" lon="2.37755">
        <ele>73</ele>
        <time>2024-04-21T07:06:28Z</time>
      </trkpt>
      <trkpt lat="48.37971" lon="2.3776">
        <ele>73.6</ele>
        <time>2024-04-21T07:06:33Z</time>
      </trkpt>
      <trkpt lat="48.37962" lon="2.37763">
        <ele>74</ele>
        <time>2024-04-21T07:06:36Z</time>
      </trkpt>
      <trkpt lat="48.37953" lon="2.37767">
        <ele>74</ele>
        <time>2024-04-21T07:06:39Z</time>
      </trkpt>
      <trkpt lat="48.37921" lon="2.37777">
        <ele>73.2</ele>
        <time>2024-04-21T07:06:46Z</time>
      </trkpt>
      <trkpt lat="48.37909" lon="2.37779">
        <ele>73</ele>
        <time>2024-04-21T07:06:48Z</time>
      </trkpt>
      <trkpt lat="48.37891" lon="2.37781">
        <ele>72.4</ele>
        <time>2024-04-21T07:06:51Z</time>
      </trkpt>
      <trkpt lat="48.37886" lon="2.37783">
        <ele>72.2</ele>
        <time>2024-04-21T07:06:52Z</time>
      </trkpt>
      <trkpt lat="48.37881" lon="2.37785">
        <ele>71.6</ele>
        <time>2024-04-21T07:06:53Z</time>
      </trkpt>
      <trkpt lat="48.37854" lon="2.37789">
        <ele>71.2</ele>
        <time>2024-04-21T07:06:58Z</time>
      </trkpt>
      <trkpt lat="48.3782" lon="2.37792">
        <ele>70.8</ele>
        <time>2024-04-21T07:07:04Z</time>
      </trkpt>
      <trkpt lat="48.37782" lon="2.37794">
        <ele>71</ele>
        <time>2024-04-21T07:07:12Z</time>
      </trkpt>
      <trkpt lat="48.37743" lon="2.37798">
        <ele>72</ele>
        <time>2024-04-21T07:07:20Z</time>
      </trkpt>
      <trkpt lat="48.37699" lon="2.37803">
        <ele>72.4</ele>
        <time>2024-04-21T07:07:29Z</time>
      </trkpt>
      <trkpt lat="48.37675" lon="2.37806">
        <ele>72.4</ele>
        <time>2024-04-21T07:07:34Z</time>
      </trkpt>
      <trkpt lat="48.37672" lon="2.37806">
        <ele>72.4</ele>
        <time>2024-04-21T07:07:35Z</time>
      </trkpt>
      <trkpt lat="48.37667" lon="2.37807">
        <ele>72.4</ele>
        <time>2024-04-21T07:07:38Z</time>
      </trkpt>
      <trkpt lat="48.37668" lon="2.37807">
        <ele>72.8</ele>
        <time>2024-04-21T07:07:47Z</time>
      </trkpt>
      <trkpt lat="48.37667" lon="2.37807">
        <ele>72.8</ele>
        <time>2024-04-21T07:07:51Z</time>
      </trkpt>
      <trkpt lat="48.37658" lon="2.37807">
        <ele>72.8</ele>
        <time>2024-04-21T07:07:56Z</time>
      </trkpt>
      <trkpt lat="48.3764" lon="2.3781">
        <ele>72.6</ele>
        <time>2024-04-21T07:08:01Z</time>
      </trkpt>
      <trkpt lat="48.37618" lon="2.37812">
        <ele>72.4</ele>
        <time>2024-04-21T07:08:07Z</time>
      </trkpt>
      <trkpt lat="48.37581" lon="2.37832">
        <ele>72.8</ele>
        <time>2024-04-21T07:08:18Z</time>
      </trkpt>
      <trkpt lat="48.37554" lon="2.37835">
        <ele>72.6</ele>
        <time>2024-04-21T07:08:25Z</time>
      </trkpt>
      <trkpt lat="48.37544" lon="2.37831">
        <ele>72.6</ele>
        <time>2024-04-21T07:08:28Z</time>
      </trkpt>
      <trkpt lat="48.37543" lon="2.37827">
        <ele>72.6</ele>
        <time>2024-04-21T07:08:29Z</time>
      </trkpt>
      <trkpt lat="48.37547" lon="2.3782">
        <ele>72.6</ele>
        <time>2024-04-21T07:08:32Z</time>
      </trkpt>
      <trkpt lat="48.37547" lon="2.3781">
        <ele>73</ele>
        <time>2024-04-21T07:08:36Z</time>
      </trkpt>
      <trkpt lat="48.3754" lon="2.37808">
        <ele>74</ele>
        <time>2024-04-21T07:08:39Z</time>
      </trkpt>
      <trkpt lat="48.37537" lon="2.37808">
        <ele>74.4</ele>
        <time>2024-04-21T07:08:40Z</time>
      </trkpt>
      <trkpt lat="48.37535" lon="2.37808">
        <ele>74.8</ele>
        <time>2024-04-21T07:08:41Z</time>
      </trkpt>
      <trkpt lat="48.37532" lon="2.37808">
        <ele>75</ele>
        <time>2024-04-21T07:08:42Z</time>
      </trkpt>
      <trkpt lat="48.37513" lon="2.37811">
        <ele>75.4</ele>
        <time>2024-04-21T07:08:48Z</time>
      </trkpt>
      <trkpt lat="48.3748" lon="2.3782">
        <ele>75.2</ele>
        <time>2024-04-21T07:08:56Z</time>
      </trkpt>
      <trkpt lat="48.37443" lon="2.3783">
        <ele>75</ele>
        <time>2024-04-21T07:09:04Z</time>
      </trkpt>
      <trkpt lat="48.37402" lon="2.3784">
        <ele>74.8</ele>
        <time>2024-04-21T07:09:13Z</time>
      </trkpt>
      <trkpt lat="48.37378" lon="2.37841">
        <ele>75</ele>
        <time>2024-04-21T07:09:19Z</time>
      </trkpt>
      <trkpt lat="48.37372" lon="2.37828">
        <ele>75.2</ele>
        <time>2024-04-21T07:09:22Z</time>
      </trkpt>
      <trkpt lat="48.37371" lon="2.37824">
        <ele>75.4</ele>
        <time>2024-04-21T07:09:23Z</time>
      </trkpt>
      <trkpt lat="48.37362" lon="2.37793">
        <ele>76</ele>
        <time>2024-04-21T07:09:30Z</time>
      </trkpt>
      <trkpt lat="48.37361" lon="2.37788">
        <ele>76</ele>
        <time>2024-04-21T07:09:31Z</time>
      </trkpt>
      <trkpt lat="48.37359" lon="2.37771">
        <ele>77.6</ele>
        <time>2024-04-21T07:09:35Z</time>
      </trkpt>
      <trkpt lat="48.37359" lon="2.37767">
        <ele>78</ele>
        <time>2024-04-21T07:09:36Z</time>
      </trkpt>
      <trkpt lat="48.37359" lon="2.37763">
        <ele>78.8</ele>
        <time>2024-04-21T07:09:37Z</time>
      </trkpt>
      <trkpt lat="48.37358" lon="2.37747">
        <ele>80</ele>
        <time>2024-04-21T07:09:41Z</time>
      </trkpt>
      <trkpt lat="48.37357" lon="2.37738">
        <ele>80.6</ele>
        <time>2024-04-21T07:09:43Z</time>
      </trkpt>
      <trkpt lat="48.37356" lon="2.37726">
        <ele>81.2</ele>
        <time>2024-04-21T07:09:46Z</time>
      </trkpt>
      <trkpt lat="48.37353" lon="2.37708">
        <ele>82.4</ele>
        <time>2024-04-21T07:09:51Z</time>
      </trkpt>
      <trkpt lat="48.37352" lon="2.37694">
        <ele>83.6</ele>
        <time>2024-04-21T07:09:55Z</time>
      </trkpt>
      <trkpt lat="48.37352" lon="2.37681">
        <ele>84.8</ele>
        <time>2024-04-21T07:09:59Z</time>
      </trkpt>
      <trkpt lat="48.37353" lon="2.37672">
        <ele>86</ele>
        <time>2024-04-21T07:10:02Z</time>
      </trkpt>
      <trkpt lat="48.37354" lon="2.37663">
        <ele>87.2</ele>
        <time>2024-04-21T07:10:05Z</time>
      </trkpt>
      <trkpt lat="48.37355" lon="2.37657">
        <ele>88.2</ele>
        <time>2024-04-21T07:10:07Z</time>
      </trkpt>
      <trkpt lat="48.37354" lon="2.37647">
        <ele>89.2</ele>
        <time>2024-04-21T07:10:10Z</time>
      </trkpt>
      <trkpt lat="48.37354" lon="2.37644">
        <ele>89.4</ele>
        <time>2024-04-21T07:10:11Z</time>
      </trkpt>
      <trkpt lat="48.37355" lon="2.37628">
        <ele>90.6</ele>
        <time>2024-04-21T07:10:16Z</time>
      </trkpt>
      <trkpt lat="48.37355" lon="2.37625">
        <ele>91</ele>
        <time>2024-04-21T07:10:17Z</time>
      </trkpt>
      <trkpt lat="48.37355" lon="2.37617">
        <ele>92</ele>
        <time>2024-04-21T07:10:20Z</time>
      </trkpt>
      <trkpt lat="48.37356" lon="2.37614">
        <ele>92.4</ele>
        <time>2024-04-21T07:10:21Z</time>
      </trkpt>
      <trkpt lat="48.37358" lon="2.37605">
        <ele>93</ele>
        <time>2024-04-21T07:10:24Z</time>
      </trkpt>
      <trkpt lat="48.37358" lon="2.37602">
        <ele>93.2</ele>
        <time>2024-04-21T07:10:25Z</time>
      </trkpt>
      <trkpt lat="48.37363" lon="2.37589">
        <ele>94.2</ele>
        <time>2024-04-21T07:10:30Z</time>
      </trkpt>
      <trkpt lat="48.37364" lon="2.37588">
        <ele>94.4</ele>
        <time>2024-04-21T07:10:31Z</time>
      </trkpt>
      <trkpt lat="48.37368" lon="2.37583">
        <ele>95.2</ele>
        <time>2024-04-21T07:10:34Z</time>
      </trkpt>
      <trkpt lat="48.37368" lon="2.37581">
        <ele>95.6</ele>
        <time>2024-04-21T07:10:35Z</time>
      </trkpt>
      <trkpt lat="48.37365" lon="2.37582">
        <ele>96</ele>
        <time>2024-04-21T07:10:37Z</time>
      </trkpt>
      <trkpt lat="48.37357" lon="2.37584">
        <ele>96.6</ele>
        <time>2024-04-21T07:10:42Z</time>
      </trkpt>
      <trkpt lat="48.37356" lon="2.37581">
        <ele>96.8</ele>
        <time>2024-04-21T07:10:44Z</time>
      </trkpt>
      <trkpt lat="48.37351" lon="2.37573">
        <ele>96.8</ele>
        <time>2024-04-21T07:10:49Z</time>
      </trkpt>
      <trkpt lat="48.37347" lon="2.37567">
        <ele>97.6</ele>
        <time>2024-04-21T07:10:53Z</time>
      </trkpt>
      <trkpt lat="48.37342" lon="2.37563">
        <ele>98.8</ele>
        <time>2024-04-21T07:10:57Z</time>
      </trkpt>
      <trkpt lat="48.37339" lon="2.3756">
        <ele>99.8</ele>
        <time>2024-04-21T07:11:00Z</time>
      </trkpt>
      <trkpt lat="48.37335" lon="2.37556">
        <ele>101.2</ele>
        <time>2024-04-21T07:11:04Z</time>
      </trkpt>
      <trkpt lat="48.37332" lon="2.37552">
        <ele>102.6</ele>
        <time>2024-04-21T07:11:07Z</time>
      </trkpt>
      <trkpt lat="48.37329" lon="2.37547">
        <ele>103.4</ele>
        <time>2024-04-21T07:11:10Z</time>
      </trkpt>
      <trkpt lat="48.37328" lon="2.37546">
        <ele>103.6</ele>
        <time>2024-04-21T07:11:11Z</time>
      </trkpt>
      <trkpt lat="48.37323" lon="2.37539">
        <ele>104.6</ele>
        <time>2024-04-21T07:11:15Z</time>
      </trkpt>
      <trkpt lat="48.3732" lon="2.37535">
        <ele>105.4</ele>
        <time>2024-04-21T07:11:18Z</time>
      </trkpt>
      <trkpt lat="48.37319" lon="2.37533">
        <ele>105.8</ele>
        <time>2024-04-21T07:11:19Z</time>
      </trkpt>
      <trkpt lat="48.37316" lon="2.37528">
        <ele>106.8</ele>
        <time>2024-04-21T07:11:22Z</time>
      </trkpt>
      <trkpt lat="48.37314" lon="2.37523">
        <ele>107.8</ele>
        <time>2024-04-21T07:11:25Z</time>
      </trkpt>
      <trkpt lat="48.37313" lon="2.37522">
        <ele>108.2</ele>
        <time>2024-04-21T07:11:26Z</time>
      </trkpt>
      <trkpt lat="48.37314" lon="2.37512">
        <ele>109.2</ele>
        <time>2024-04-21T07:11:30Z</time>
      </trkpt>
      <trkpt lat="48.37314" lon="2.3751">
        <ele>109.4</ele>
        <time>2024-04-21T07:11:31Z</time>
      </trkpt>
      <trkpt lat="48.37314" lon="2.37508">
        <ele>109.4</ele>
        <time>2024-04-21T07:11:32Z</time>
      </trkpt>
      <trkpt lat="48.37314" lon="2.375">
        <ele>110.4</ele>
        <time>2024-04-21T07:11:35Z</time>
      </trkpt>
      <trkpt lat="48.37314" lon="2.37493">
        <ele>111</ele>
        <time>2024-04-21T07:11:38Z</time>
      </trkpt>
      <trkpt lat="48.37315" lon="2.37489">
        <ele>111.4</ele>
        <time>2024-04-21T07:11:40Z</time>
      </trkpt>
      <trkpt lat="48.37316" lon="2.37477">
        <ele>112.4</ele>
        <time>2024-04-21T07:11:45Z</time>
      </trkpt>
      <trkpt lat="48.37316" lon="2.37474">
        <ele>112.8</ele>
        <time>2024-04-21T07:11:46Z</time>
      </trkpt>
      <trkpt lat="48.37316" lon="2.37459">
        <ele>113.6</ele>
        <time>2024-04-21T07:11:52Z</time>
      </trkpt>
      <trkpt lat="48.37316" lon="2.37457">
        <ele>113.8</ele>
        <time>2024-04-21T07:11:53Z</time>
      </trkpt>
      <trkpt lat="48.37316" lon="2.37453">
        <ele>114.6</ele>
        <time>2024-04-21T07:11:58Z</time>
      </trkpt>
      <trkpt lat="48.37316" lon="2.37452">
        <ele>114.8</ele>
        <time>2024-04-21T07:11:59Z</time>
      </trkpt>
      <trkpt lat="48.37316" lon="2.37453">
        <ele>115.6</ele>
        <time>2024-04-21T07:12:11Z</time>
      </trkpt>
      <trkpt lat="48.37318" lon="2.37438">
        <ele>115.8</ele>
        <time>2024-04-21T07:12:18Z</time>
      </trkpt>
      <trkpt lat="48.37318" lon="2.37429">
        <ele>115.8</ele>
        <time>2024-04-21T07:12:21Z</time>
      </trkpt>
      <trkpt lat="48.37319" lon="2.37413">
        <ele>116</ele>
        <time>2024-04-21T07:12:26Z</time>
      </trkpt>
      <trkpt lat="48.37321" lon="2.37395">
        <ele>117</ele>
        <time>2024-04-21T07:12:32Z</time>
      </trkpt>
      <trkpt lat="48.37323" lon="2.37387">
        <ele>118</ele>
        <time>2024-04-21T07:12:35Z</time>
      </trkpt>
      <trkpt lat="48.37325" lon="2.37381">
        <ele>118.8</ele>
        <time>2024-04-21T07:12:38Z</time>
      </trkpt>
      <trkpt lat="48.37327" lon="2.37375">
        <ele>119.2</ele>
        <time>2024-04-21T07:12:41Z</time>
      </trkpt>
      <trkpt lat="48.37332" lon="2.37365">
        <ele>119.6</ele>
        <time>2024-04-21T07:12:45Z</time>
      </trkpt>
      <trkpt lat="48.37335" lon="2.37359">
        <ele>120.4</ele>
        <time>2024-04-21T07:12:48Z</time>
      </trkpt>
      <trkpt lat="48.37336" lon="2.37357">
        <ele>120.6</ele>
        <time>2024-04-21T07:12:50Z</time>
      </trkpt>
      <trkpt lat="48.37336" lon="2.37357">
        <ele>121.6</ele>
        <time>2024-04-21T07:12:56Z</time>
      </trkpt>
      <trkpt lat="48.37337" lon="2.37357">
        <ele>122</ele>
        <time>2024-04-21T07:13:01Z</time>
      </trkpt>
      <trkpt lat="48.37344" lon="2.37347">
        <ele>122.2</ele>
        <time>2024-04-21T07:13:07Z</time>
      </trkpt>
      <trkpt lat="48.37355" lon="2.37332">
        <ele>122</ele>
        <time>2024-04-21T07:13:14Z</time>
      </trkpt>
      <trkpt lat="48.37365" lon="2.37316">
        <ele>122.2</ele>
        <time>2024-04-21T07:13:21Z</time>
      </trkpt>
      <trkpt lat="48.37367" lon="2.37308">
        <ele>122.8</ele>
        <time>2024-04-21T07:13:24Z</time>
      </trkpt>
      <trkpt lat="48.37367" lon="2.37294">
        <ele>123.8</ele>
        <time>2024-04-21T07:13:29Z</time>
      </trkpt>
      <trkpt lat="48.37367" lon="2.37291">
        <ele>124.2</ele>
        <time>2024-04-21T07:13:30Z</time>
      </trkpt>
      <trkpt lat="48.37368" lon="2.37273">
        <ele>125.2</ele>
        <time>2024-04-21T07:13:36Z</time>
      </trkpt>
      <trkpt lat="48.37368" lon="2.37271">
        <ele>125.4</ele>
        <time>2024-04-21T07:13:37Z</time>
      </trkpt>
      <trkpt lat="48.37371" lon="2.37251">
        <ele>126</ele>
        <time>2024-04-21T07:13:44Z</time>
      </trkpt>
      <trkpt lat="48.37371" lon="2.37249">
        <ele>126.4</ele>
        <time>2024-04-21T07:13:45Z</time>
      </trkpt>
      <trkpt lat="48.37374" lon="2.37229">
        <ele>127.4</ele>
        <time>2024-04-21T07:13:52Z</time>
      </trkpt>
      <trkpt lat="48.37375" lon="2.37218">
        <ele>127.6</ele>
        <time>2024-04-21T07:13:56Z</time>
      </trkpt>
      <trkpt lat="48.37377" lon="2.37198">
        <ele>128.2</ele>
        <time>2024-04-21T07:14:03Z</time>
      </trkpt>
      <trkpt lat="48.3738" lon="2.37172">
        <ele>128.6</ele>
        <time>2024-04-21T07:14:11Z</time>
      </trkpt>
      <trkpt lat="48.37381" lon="2.37154">
        <ele>128.6</ele>
        <time>2024-04-21T07:14:17Z</time>
      </trkpt>
      <trkpt lat="48.3738" lon="2.3715">
        <ele>128.8</ele>
        <time>2024-04-21T07:14:19Z</time>
      </trkpt>
      <trkpt lat="48.37382" lon="2.37133">
        <ele>128.8</ele>
        <time>2024-04-21T07:14:25Z</time>
      </trkpt>
      <trkpt lat="48.37385" lon="2.37098">
        <ele>129.2</ele>
        <time>2024-04-21T07:14:34Z</time>
      </trkpt>
      <trkpt lat="48.37387" lon="2.37053">
        <ele>129.6</ele>
        <time>2024-04-21T07:14:44Z</time>
      </trkpt>
      <trkpt lat="48.37388" lon="2.37015">
        <ele>129.8</ele>
        <time>2024-04-21T07:14:52Z</time>
      </trkpt>
      <trkpt lat="48.37389" lon="2.3701">
        <ele>130</ele>
        <time>2024-04-21T07:14:53Z</time>
      </trkpt>
      <trkpt lat="48.3739" lon="2.36969">
        <ele>130.2</ele>
        <time>2024-04-21T07:15:02Z</time>
      </trkpt>
      <trkpt lat="48.37391" lon="2.36928">
        <ele>130</ele>
        <time>2024-04-21T07:15:10Z</time>
      </trkpt>
      <trkpt lat="48.37392" lon="2.3687">
        <ele>129.8</ele>
        <time>2024-04-21T07:15:21Z</time>
      </trkpt>
      <trkpt lat="48.37393" lon="2.36815">
        <ele>129.4</ele>
        <time>2024-04-21T07:15:31Z</time>
      </trkpt>
      <trkpt lat="48.37394" lon="2.36792">
        <ele>129.2</ele>
        <time>2024-04-21T07:15:35Z</time>
      </trkpt>
      <trkpt lat="48.37394" lon="2.36786">
        <ele>129</ele>
        <time>2024-04-21T07:15:36Z</time>
      </trkpt>
      <trkpt lat="48.37394" lon="2.36758">
        <ele>128.8</ele>
        <time>2024-04-21T07:15:41Z</time>
      </trkpt>
      <trkpt lat="48.37395" lon="2.36701">
        <ele>128.6</ele>
        <time>2024-04-21T07:15:51Z</time>
      </trkpt>
      <trkpt lat="48.37397" lon="2.36632">
        <ele>128.6</ele>
        <time>2024-04-21T07:16:03Z</time>
      </trkpt>
      <trkpt lat="48.37399" lon="2.36566">
        <ele>128.4</ele>
        <time>2024-04-21T07:16:15Z</time>
      </trkpt>
      <trkpt lat="48.37399" lon="2.36555">
        <ele>128.2</ele>
        <time>2024-04-21T07:16:17Z</time>
      </trkpt>
      <trkpt lat="48.374" lon="2.36511">
        <ele>128.2</ele>
        <time>2024-04-21T07:16:25Z</time>
      </trkpt>
      <trkpt lat="48.37401" lon="2.36472">
        <ele>128.2</ele>
        <time>2024-04-21T07:16:33Z</time>
      </trkpt>
      <trkpt lat="48.37402" lon="2.36436">
        <ele>128.2</ele>
        <time>2024-04-21T07:16:40Z</time>
      </trkpt>
      <trkpt lat="48.37404" lon="2.3638">
        <ele>128.4</ele>
        <time>2024-04-21T07:16:51Z</time>
      </trkpt>
      <trkpt lat="48.37406" lon="2.36322">
        <ele>128.6</ele>
        <time>2024-04-21T07:17:02Z</time>
      </trkpt>
      <trkpt lat="48.37407" lon="2.36288">
        <ele>128.4</ele>
        <time>2024-04-21T07:17:09Z</time>
      </trkpt>
      <trkpt lat="48.37409" lon="2.36243">
        <ele>128.2</ele>
        <time>2024-04-21T07:17:18Z</time>
      </trkpt>
      <trkpt lat="48.3741" lon="2.36192">
        <ele>128.8</ele>
        <time>2024-04-21T07:17:28Z</time>
      </trkpt>
      <trkpt lat="48.37412" lon="2.3615">
        <ele>128.8</ele>
        <time>2024-04-21T07:17:36Z</time>
      </trkpt>
      <trkpt lat="48.37414" lon="2.36107">
        <ele>128.6</ele>
        <time>2024-04-21T07:17:44Z</time>
      </trkpt>
      <trkpt lat="48.37415" lon="2.36053">
        <ele>128.2</ele>
        <time>2024-04-21T07:17:54Z</time>
      </trkpt>
      <trkpt lat="48.37415" lon="2.36026">
        <ele>128</ele>
        <time>2024-04-21T07:17:59Z</time>
      </trkpt>
      <trkpt lat="48.37416" lon="2.35995">
        <ele>128</ele>
        <time>2024-04-21T07:18:05Z</time>
      </trkpt>
      <trkpt lat="48.37418" lon="2.35992">
        <ele>128</ele>
        <time>2024-04-21T07:18:06Z</time>
      </trkpt>
      <trkpt lat="48.37426" lon="2.35994">
        <ele>128</ele>
        <time>2024-04-21T07:18:09Z</time>
      </trkpt>
      <trkpt lat="48.37429" lon="2.35996">
        <ele>128</ele>
        <time>2024-04-21T07:18:10Z</time>
      </trkpt>
      <trkpt lat="48.37444" lon="2.36009">
        <ele>127.4</ele>
        <time>2024-04-21T07:18:16Z</time>
      </trkpt>
      <trkpt lat="48.37446" lon="2.3601">
        <ele>127.2</ele>
        <time>2024-04-21T07:18:17Z</time>
      </trkpt>
      <trkpt lat="48.37459" lon="2.3602">
        <ele>126.8</ele>
        <time>2024-04-21T07:18:23Z</time>
      </trkpt>
      <trkpt lat="48.3748" lon="2.36033">
        <ele>126.4</ele>
        <time>2024-04-21T07:18:29Z</time>
      </trkpt>
      <trkpt lat="48.37497" lon="2.36045">
        <ele>126.4</ele>
        <time>2024-04-21T07:18:34Z</time>
      </trkpt>
      <trkpt lat="48.375" lon="2.36048">
        <ele>126.4</ele>
        <time>2024-04-21T07:18:35Z</time>
      </trkpt>
      <trkpt lat="48.37523" lon="2.36064">
        <ele>125.2</ele>
        <time>2024-04-21T07:18:42Z</time>
      </trkpt>
      <trkpt lat="48.37543" lon="2.36077">
        <ele>125</ele>
        <time>2024-04-21T07:18:49Z</time>
      </trkpt>
      <trkpt lat="48.37572" lon="2.36096">
        <ele>124.6</ele>
        <time>2024-04-21T07:18:57Z</time>
      </trkpt>
      <trkpt lat="48.37591" lon="2.36107">
        <ele>124.2</ele>
        <time>2024-04-21T07:19:02Z</time>
      </trkpt>
      <trkpt lat="48.376" lon="2.36112">
        <ele>124</ele>
        <time>2024-04-21T07:19:04Z</time>
      </trkpt>
      <trkpt lat="48.37625" lon="2.36128">
        <ele>123.2</ele>
        <time>2024-04-21T07:19:11Z</time>
      </trkpt>
      <trkpt lat="48.37651" lon="2.36145">
        <ele>123</ele>
        <time>2024-04-21T07:19:19Z</time>
      </trkpt>
      <trkpt lat="48.37677" lon="2.36158">
        <ele>122.2</ele>
        <time>2024-04-21T07:19:26Z</time>
      </trkpt>
      <trkpt lat="48.37687" lon="2.36165">
        <ele>120.4</ele>
        <time>2024-04-21T07:19:29Z</time>
      </trkpt>
      <trkpt lat="48.37696" lon="2.36174">
        <ele>119.6</ele>
        <time>2024-04-21T07:19:32Z</time>
      </trkpt>
      <trkpt lat="48.37704" lon="2.36181">
        <ele>119.4</ele>
        <time>2024-04-21T07:19:35Z</time>
      </trkpt>
      <trkpt lat="48.3771" lon="2.36189">
        <ele>119.4</ele>
        <time>2024-04-21T07:19:38Z</time>
      </trkpt>
      <trkpt lat="48.37711" lon="2.36193">
        <ele>119.4</ele>
        <time>2024-04-21T07:19:39Z</time>
      </trkpt>
      <trkpt lat="48.37711" lon="2.36205">
        <ele>119.4</ele>
        <time>2024-04-21T07:19:42Z</time>
      </trkpt>
      <trkpt lat="48.37715" lon="2.36217">
        <ele>119.4</ele>
        <time>2024-04-21T07:19:46Z</time>
      </trkpt>
      <trkpt lat="48.37727" lon="2.36233">
        <ele>119</ele>
        <time>2024-04-21T07:19:52Z</time>
      </trkpt>
      <trkpt lat="48.37742" lon="2.36258">
        <ele>118.6</ele>
        <time>2024-04-21T07:19:56Z</time>
      </trkpt>
      <trkpt lat="48.37752" lon="2.36276">
        <ele>118.4</ele>
        <time>2024-04-21T07:19:58Z</time>
      </trkpt>
      <trkpt lat="48.37763" lon="2.36298">
        <ele>117.6</ele>
        <time>2024-04-21T07:20:00Z</time>
      </trkpt>
      <trkpt lat="48.37768" lon="2.36308">
        <ele>116.8</ele>
        <time>2024-04-21T07:20:01Z</time>
      </trkpt>
      <trkpt lat="48.37773" lon="2.36319">
        <ele>116</ele>
        <time>2024-04-21T07:20:02Z</time>
      </trkpt>
      <trkpt lat="48.37776" lon="2.36329">
        <ele>115.2</ele>
        <time>2024-04-21T07:20:03Z</time>
      </trkpt>
      <trkpt lat="48.37778" lon="2.3634">
        <ele>113.8</ele>
        <time>2024-04-21T07:20:04Z</time>
      </trkpt>
      <trkpt lat="48.3778" lon="2.36351">
        <ele>112.6</ele>
        <time>2024-04-21T07:20:05Z</time>
      </trkpt>
      <trkpt lat="48.37782" lon="2.36361">
        <ele>111.4</ele>
        <time>2024-04-21T07:20:06Z</time>
      </trkpt>
      <trkpt lat="48.37783" lon="2.36371">
        <ele>110</ele>
        <time>2024-04-21T07:20:07Z</time>
      </trkpt>
      <trkpt lat="48.37786" lon="2.36381">
        <ele>108.8</ele>
        <time>2024-04-21T07:20:08Z</time>
      </trkpt>
      <trkpt lat="48.37789" lon="2.36389">
        <ele>107.4</ele>
        <time>2024-04-21T07:20:09Z</time>
      </trkpt>
      <trkpt lat="48.37794" lon="2.36403">
        <ele>105.6</ele>
        <time>2024-04-21T07:20:11Z</time>
      </trkpt>
      <trkpt lat="48.37796" lon="2.36411">
        <ele>104.6</ele>
        <time>2024-04-21T07:20:12Z</time>
      </trkpt>
      <trkpt lat="48.37798" lon="2.36418">
        <ele>104</ele>
        <time>2024-04-21T07:20:13Z</time>
      </trkpt>
      <trkpt lat="48.37798" lon="2.36424">
        <ele>103.4</ele>
        <time>2024-04-21T07:20:14Z</time>
      </trkpt>
      <trkpt lat="48.37799" lon="2.3643">
        <ele>102.6</ele>
        <time>2024-04-21T07:20:15Z</time>
      </trkpt>
      <trkpt lat="48.378" lon="2.36437">
        <ele>101.8</ele>
        <time>2024-04-21T07:20:18Z</time>
      </trkpt>
      <trkpt lat="48.37799" lon="2.36438">
        <ele>101.6</ele>
        <time>2024-04-21T07:20:20Z</time>
      </trkpt>
      <trkpt lat="48.37801" lon="2.36449">
        <ele>101.4</ele>
        <time>2024-04-21T07:20:25Z</time>
      </trkpt>
      <trkpt lat="48.37805" lon="2.36471">
        <ele>101.4</ele>
        <time>2024-04-21T07:20:29Z</time>
      </trkpt>
      <trkpt lat="48.37819" lon="2.36503">
        <ele>101</ele>
        <time>2024-04-21T07:20:34Z</time>
      </trkpt>
      <trkpt lat="48.37826" lon="2.36517">
        <ele>100.2</ele>
        <time>2024-04-21T07:20:36Z</time>
      </trkpt>
      <trkpt lat="48.37836" lon="2.36538">
        <ele>98.8</ele>
        <time>2024-04-21T07:20:39Z</time>
      </trkpt>
      <trkpt lat="48.37844" lon="2.36553">
        <ele>97.8</ele>
        <time>2024-04-21T07:20:41Z</time>
      </trkpt>
      <trkpt lat="48.37853" lon="2.36568">
        <ele>96.4</ele>
        <time>2024-04-21T07:20:43Z</time>
      </trkpt>
      <trkpt lat="48.37863" lon="2.36582">
        <ele>95</ele>
        <time>2024-04-21T07:20:45Z</time>
      </trkpt>
      <trkpt lat="48.37878" lon="2.36606">
        <ele>93.6</ele>
        <time>2024-04-21T07:20:48Z</time>
      </trkpt>
      <trkpt lat="48.3789" lon="2.36631">
        <ele>92.8</ele>
        <time>2024-04-21T07:20:51Z</time>
      </trkpt>
      <trkpt lat="48.37895" lon="2.36649">
        <ele>92.2</ele>
        <time>2024-04-21T07:20:53Z</time>
      </trkpt>
      <trkpt lat="48.37904" lon="2.36678">
        <ele>91.2</ele>
        <time>2024-04-21T07:20:56Z</time>
      </trkpt>
      <trkpt lat="48.37912" lon="2.36696">
        <ele>90</ele>
        <time>2024-04-21T07:20:58Z</time>
      </trkpt>
      <trkpt lat="48.37924" lon="2.36736">
        <ele>88.6</ele>
        <time>2024-04-21T07:21:02Z</time>
      </trkpt>
      <trkpt lat="48.37929" lon="2.36756">
        <ele>87.4</ele>
        <time>2024-04-21T07:21:04Z</time>
      </trkpt>
      <trkpt lat="48.3793" lon="2.36766">
        <ele>87</ele>
        <time>2024-04-21T07:21:05Z</time>
      </trkpt>
      <trkpt lat="48.37932" lon="2.36787">
        <ele>86.6</ele>
        <time>2024-04-21T07:21:07Z</time>
      </trkpt>
      <trkpt lat="48.37934" lon="2.36807">
        <ele>86.4</ele>
        <time>2024-04-21T07:21:09Z</time>
      </trkpt>
      <trkpt lat="48.3794" lon="2.36835">
        <ele>85.6</ele>
        <time>2024-04-21T07:21:12Z</time>
      </trkpt>
      <trkpt lat="48.37943" lon="2.36843">
        <ele>85.2</ele>
        <time>2024-04-21T07:21:13Z</time>
      </trkpt>
      <trkpt lat="48.37946" lon="2.36852">
        <ele>85</ele>
        <time>2024-04-21T07:21:14Z</time>
      </trkpt>
      <trkpt lat="48.37949" lon="2.3686">
        <ele>84.8</ele>
        <time>2024-04-21T07:21:15Z</time>
      </trkpt>
      <trkpt lat="48.3796" lon="2.36883">
        <ele>84.6</ele>
        <time>2024-04-21T07:21:18Z</time>
      </trkpt>
      <trkpt lat="48.37988" lon="2.3692">
        <ele>84.2</ele>
        <time>2024-04-21T07:21:24Z</time>
      </trkpt>
      <trkpt lat="48.38009" lon="2.3694">
        <ele>84</ele>
        <time>2024-04-21T07:21:28Z</time>
      </trkpt>
      <trkpt lat="48.38019" lon="2.36951">
        <ele>84</ele>
        <time>2024-04-21T07:21:30Z</time>
      </trkpt>
      <trkpt lat="48.38045" lon="2.36978">
        <ele>82.8</ele>
        <time>2024-04-21T07:21:35Z</time>
      </trkpt>
      <trkpt lat="48.3806" lon="2.36995">
        <ele>82.6</ele>
        <time>2024-04-21T07:21:38Z</time>
      </trkpt>
      <trkpt lat="48.38066" lon="2.36999">
        <ele>82.4</ele>
        <time>2024-04-21T07:21:39Z</time>
      </trkpt>
      <trkpt lat="48.38085" lon="2.3701">
        <ele>82</ele>
        <time>2024-04-21T07:21:42Z</time>
      </trkpt>
      <trkpt lat="48.3809" lon="2.37014">
        <ele>81.8</ele>
        <time>2024-04-21T07:21:43Z</time>
      </trkpt>
      <trkpt lat="48.38094" lon="2.37019">
        <ele>81.6</ele>
        <time>2024-04-21T07:21:44Z</time>
      </trkpt>
      <trkpt lat="48.38105" lon="2.37029">
        <ele>80.4</ele>
        <time>2024-04-21T07:21:46Z</time>
      </trkpt>
      <trkpt lat="48.3811" lon="2.37034">
        <ele>79.8</ele>
        <time>2024-04-21T07:21:47Z</time>
      </trkpt>
      <trkpt lat="48.38121" lon="2.37045">
        <ele>79.2</ele>
        <time>2024-04-21T07:21:49Z</time>
      </trkpt>
      <trkpt lat="48.38145" lon="2.37074">
        <ele>78</ele>
        <time>2024-04-21T07:21:54Z</time>
      </trkpt>
      <trkpt lat="48.38153" lon="2.37086">
        <ele>77.4</ele>
        <time>2024-04-21T07:21:56Z</time>
      </trkpt>
      <trkpt lat="48.38169" lon="2.37119">
        <ele>77</ele>
        <time>2024-04-21T07:22:01Z</time>
      </trkpt>
      <trkpt lat="48.38172" lon="2.37125">
        <ele>77</ele>
        <time>2024-04-21T07:22:02Z</time>
      </trkpt>
      <trkpt lat="48.38185" lon="2.3713">
        <ele>77</ele>
        <time>2024-04-21T07:22:05Z</time>
      </trkpt>
      <trkpt lat="48.38201" lon="2.37133">
        <ele>77</ele>
        <time>2024-04-21T07:22:10Z</time>
      </trkpt>
      <trkpt lat="48.38211" lon="2.37135">
        <ele>78</ele>
        <time>2024-04-21T07:22:15Z</time>
      </trkpt>
      <trkpt lat="48.38214" lon="2.37137">
        <ele>78.4</ele>
        <time>2024-04-21T07:22:16Z</time>
      </trkpt>
      <trkpt lat="48.3822" lon="2.3714">
        <ele>79.6</ele>
        <time>2024-04-21T07:22:19Z</time>
      </trkpt>
      <trkpt lat="48.38223" lon="2.37139">
        <ele>80.8</ele>
        <time>2024-04-21T07:22:21Z</time>
      </trkpt>
      <trkpt lat="48.38225" lon="2.3714">
        <ele>81.4</ele>
        <time>2024-04-21T07:22:22Z</time>
      </trkpt>
      <trkpt lat="48.38226" lon="2.3714">
        <ele>82</ele>
        <time>2024-04-21T07:22:23Z</time>
      </trkpt>
      <trkpt lat="48.3823" lon="2.37142">
        <ele>83.2</ele>
        <time>2024-04-21T07:22:26Z</time>
      </trkpt>
      <trkpt lat="48.38231" lon="2.37144">
        <ele>83.8</ele>
        <time>2024-04-21T07:22:27Z</time>
      </trkpt>
      <trkpt lat="48.38233" lon="2.37145">
        <ele>84.2</ele>
        <time>2024-04-21T07:22:28Z</time>
      </trkpt>
      <trkpt lat="48.38236" lon="2.37145">
        <ele>85.6</ele>
        <time>2024-04-21T07:22:30Z</time>
      </trkpt>
      <trkpt lat="48.38239" lon="2.37142">
        <ele>87.4</ele>
        <time>2024-04-21T07:22:32Z</time>
      </trkpt>
      <trkpt lat="48.38243" lon="2.3714">
        <ele>88.6</ele>
        <time>2024-04-21T07:22:34Z</time>
      </trkpt>
      <trkpt lat="48.38248" lon="2.37141">
        <ele>89.8</ele>
        <time>2024-04-21T07:22:37Z</time>
      </trkpt>
      <trkpt lat="48.38249" lon="2.37141">
        <ele>90.2</ele>
        <time>2024-04-21T07:22:38Z</time>
      </trkpt>
      <trkpt lat="48.38253" lon="2.3714">
        <ele>91</ele>
        <time>2024-04-21T07:22:40Z</time>
      </trkpt>
      <trkpt lat="48.38254" lon="2.37141">
        <ele>91.2</ele>
        <time>2024-04-21T07:22:41Z</time>
      </trkpt>
      <trkpt lat="48.3826" lon="2.37143">
        <ele>91.8</ele>
        <time>2024-04-21T07:22:45Z</time>
      </trkpt>
      <trkpt lat="48.38265" lon="2.37146">
        <ele>92</ele>
        <time>2024-04-21T07:22:48Z</time>
      </trkpt>
      <trkpt lat="48.38273" lon="2.3715">
        <ele>92.2</ele>
        <time>2024-04-21T07:22:53Z</time>
      </trkpt>
      <trkpt lat="48.38287" lon="2.37158">
        <ele>92</ele>
        <time>2024-04-21T07:23:01Z</time>
      </trkpt>
      <trkpt lat="48.38293" lon="2.37162">
        <ele>91.6</ele>
        <time>2024-04-21T07:23:08Z</time>
      </trkpt>
      <trkpt lat="48.38295" lon="2.37162">
        <ele>91.8</ele>
        <time>2024-04-21T07:23:26Z</time>
      </trkpt>
      <trkpt lat="48.383" lon="2.37163">
        <ele>91.8</ele>
        <time>2024-04-21T07:23:36Z</time>
      </trkpt>
      <trkpt lat="48.3831" lon="2.37172">
        <ele>91.8</ele>
        <time>2024-04-21T07:23:42Z</time>
      </trkpt>
      <trkpt lat="48.38326" lon="2.37191">
        <ele>91.6</ele>
        <time>2024-04-21T07:23:50Z</time>
      </trkpt>
      <trkpt lat="48.38335" lon="2.37204">
        <ele>91.8</ele>
        <time>2024-04-21T07:23:55Z</time>
      </trkpt>
      <trkpt lat="48.38339" lon="2.37208">
        <ele>92.2</ele>
        <time>2024-04-21T07:23:57Z</time>
      </trkpt>
      <trkpt lat="48.38345" lon="2.3721">
        <ele>93</ele>
        <time>2024-04-21T07:24:00Z</time>
      </trkpt>
      <trkpt lat="48.38349" lon="2.37213">
        <ele>94.2</ele>
        <time>2024-04-21T07:24:03Z</time>
      </trkpt>
      <trkpt lat="48.38351" lon="2.37213">
        <ele>94.6</ele>
        <time>2024-04-21T07:24:04Z</time>
      </trkpt>
      <trkpt lat="48.38353" lon="2.37215">
        <ele>95</ele>
        <time>2024-04-21T07:24:05Z</time>
      </trkpt>
      <trkpt lat="48.38356" lon="2.37216">
        <ele>95.2</ele>
        <time>2024-04-21T07:24:06Z</time>
      </trkpt>
      <trkpt lat="48.38363" lon="2.37216">
        <ele>96.4</ele>
        <time>2024-04-21T07:24:09Z</time>
      </trkpt>
      <trkpt lat="48.38369" lon="2.37216">
        <ele>96.8</ele>
        <time>2024-04-21T07:24:11Z</time>
      </trkpt>
      <trkpt lat="48.38372" lon="2.37215">
        <ele>97.2</ele>
        <time>2024-04-21T07:24:12Z</time>
      </trkpt>
      <trkpt lat="48.38377" lon="2.37214">
        <ele>97.4</ele>
        <time>2024-04-21T07:24:14Z</time>
      </trkpt>
      <trkpt lat="48.38383" lon="2.37216">
        <ele>97.6</ele>
        <time>2024-04-21T07:24:16Z</time>
      </trkpt>
      <trkpt lat="48.38384" lon="2.37218">
        <ele>97.6</ele>
        <time>2024-04-21T07:24:17Z</time>
      </trkpt>
      <trkpt lat="48.38396" lon="2.37233">
        <ele>97.8</ele>
        <time>2024-04-21T07:24:22Z</time>
      </trkpt>
      <trkpt lat="48.38411" lon="2.37243">
        <ele>98.2</ele>
        <time>2024-04-21T07:24:27Z</time>
      </trkpt>
      <trkpt lat="48.38424" lon="2.37262">
        <ele>98.6</ele>
        <time>2024-04-21T07:24:33Z</time>
      </trkpt>
      <trkpt lat="48.38436" lon="2.37275">
        <ele>99.2</ele>
        <time>2024-04-21T07:24:38Z</time>
      </trkpt>
      <trkpt lat="48.38447" lon="2.37286">
        <ele>99.2</ele>
        <time>2024-04-21T07:24:42Z</time>
      </trkpt>
      <trkpt lat="48.3846" lon="2.37302">
        <ele>99.6</ele>
        <time>2024-04-21T07:24:48Z</time>
      </trkpt>
      <trkpt lat="48.38473" lon="2.37316">
        <ele>100</ele>
        <time>2024-04-21T07:24:53Z</time>
      </trkpt>
      <trkpt lat="48.38486" lon="2.37328">
        <ele>100.2</ele>
        <time>2024-04-21T07:24:58Z</time>
      </trkpt>
      <trkpt lat="48.38502" lon="2.37344">
        <ele>100.2</ele>
        <time>2024-04-21T07:25:05Z</time>
      </trkpt>
      <trkpt lat="48.38517" lon="2.37362">
        <ele>99.8</ele>
        <time>2024-04-21T07:25:10Z</time>
      </trkpt>
      <trkpt lat="48.38531" lon="2.37368">
        <ele>99.4</ele>
        <time>2024-04-21T07:25:14Z</time>
      </trkpt>
      <trkpt lat="48.3854" lon="2.37369">
        <ele>98.2</ele>
        <time>2024-04-21T07:25:17Z</time>
      </trkpt>
      <trkpt lat="48.38548" lon="2.37374">
        <ele>97.6</ele>
        <time>2024-04-21T07:25:20Z</time>
      </trkpt>
      <trkpt lat="48.38563" lon="2.37384">
        <ele>97.4</ele>
        <time>2024-04-21T07:25:26Z</time>
      </trkpt>
      <trkpt lat="48.38575" lon="2.37398">
        <ele>97.4</ele>
        <time>2024-04-21T07:25:32Z</time>
      </trkpt>
      <trkpt lat="48.38588" lon="2.37411">
        <ele>97.2</ele>
        <time>2024-04-21T07:25:38Z</time>
      </trkpt>
      <trkpt lat="48.386" lon="2.37419">
        <ele>97.2</ele>
        <time>2024-04-21T07:25:43Z</time>
      </trkpt>
      <trkpt lat="48.38602" lon="2.37418">
        <ele>97.2</ele>
        <time>2024-04-21T07:25:44Z</time>
      </trkpt>
      <trkpt lat="48.38602" lon="2.37417">
        <ele>97.4</ele>
        <time>2024-04-21T07:25:45Z</time>
      </trkpt>
      <trkpt lat="48.38602" lon="2.37412">
        <ele>97.2</ele>
        <time>2024-04-21T07:25:48Z</time>
      </trkpt>
      <trkpt lat="48.38602" lon="2.37411">
        <ele>97.2</ele>
        <time>2024-04-21T07:25:49Z</time>
      </trkpt>
      <trkpt lat="48.38603" lon="2.37397">
        <ele>98.6</ele>
        <time>2024-04-21T07:25:56Z</time>
      </trkpt>
      <trkpt lat="48.38604" lon="2.37391">
        <ele>99.4</ele>
        <time>2024-04-21T07:25:59Z</time>
      </trkpt>
      <trkpt lat="48.38602" lon="2.37385">
        <ele>100.4</ele>
        <time>2024-04-21T07:26:02Z</time>
      </trkpt>
      <trkpt lat="48.38602" lon="2.37384">
        <ele>100.6</ele>
        <time>2024-04-21T07:26:03Z</time>
      </trkpt>
      <trkpt lat="48.38602" lon="2.37382">
        <ele>101</ele>
        <time>2024-04-21T07:26:04Z</time>
      </trkpt>
      <trkpt lat="48.38598" lon="2.3738">
        <ele>101.6</ele>
        <time>2024-04-21T07:26:07Z</time>
      </trkpt>
      <trkpt lat="48.38597" lon="2.37379">
        <ele>101.8</ele>
        <time>2024-04-21T07:26:08Z</time>
      </trkpt>
      <trkpt lat="48.38596" lon="2.37373">
        <ele>102.8</ele>
        <time>2024-04-21T07:26:11Z</time>
      </trkpt>
      <trkpt lat="48.38596" lon="2.37369">
        <ele>104</ele>
        <time>2024-04-21T07:26:13Z</time>
      </trkpt>
      <trkpt lat="48.38596" lon="2.37362">
        <ele>105.2</ele>
        <time>2024-04-21T07:26:16Z</time>
      </trkpt>
      <trkpt lat="48.38596" lon="2.37358">
        <ele>106.2</ele>
        <time>2024-04-21T07:26:18Z</time>
      </trkpt>
      <trkpt lat="48.38596" lon="2.37357">
        <ele>106.6</ele>
        <time>2024-04-21T07:26:19Z</time>
      </trkpt>
      <trkpt lat="48.38596" lon="2.37352">
        <ele>107.6</ele>
        <time>2024-04-21T07:26:21Z</time>
      </trkpt>
      <trkpt lat="48.38595" lon="2.37345">
        <ele>109</ele>
        <time>2024-04-21T07:26:24Z</time>
      </trkpt>
      <trkpt lat="48.38595" lon="2.37343">
        <ele>110.4</ele>
        <time>2024-04-21T07:26:25Z</time>
      </trkpt>
      <trkpt lat="48.38594" lon="2.37338">
        <ele>111.8</ele>
        <time>2024-04-21T07:26:28Z</time>
      </trkpt>
      <trkpt lat="48.38594" lon="2.37336">
        <ele>112.6</ele>
        <time>2024-04-21T07:26:30Z</time>
      </trkpt>
      <trkpt lat="48.38594" lon="2.37336">
        <ele>113.2</ele>
        <time>2024-04-21T07:26:31Z</time>
      </trkpt>
      <trkpt lat="48.38594" lon="2.37335">
        <ele>114.4</ele>
        <time>2024-04-21T07:26:34Z</time>
      </trkpt>
      <trkpt lat="48.38593" lon="2.37333">
        <ele>115.4</ele>
        <time>2024-04-21T07:26:45Z</time>
      </trkpt>
      <trkpt lat="48.38593" lon="2.37332">
        <ele>115.4</ele>
        <time>2024-04-21T07:26:54Z</time>
      </trkpt>
      <trkpt lat="48.38592" lon="2.3733">
        <ele>115</ele>
        <time>2024-04-21T07:27:11Z</time>
      </trkpt>
      <trkpt lat="48.38592" lon="2.37329">
        <ele>115</ele>
        <time>2024-04-21T07:27:32Z</time>
      </trkpt>
      <trkpt lat="48.38592" lon="2.37328">
        <ele>114.8</ele>
        <time>2024-04-21T07:27:53Z</time>
      </trkpt>
      <trkpt lat="48.38592" lon="2.37328">
        <ele>115.2</ele>
        <time>2024-04-21T07:28:15Z</time>
      </trkpt>
      <trkpt lat="48.38592" lon="2.37329">
        <ele>114.8</ele>
        <time>2024-04-21T07:28:32Z</time>
      </trkpt>
      <trkpt lat="48.38592" lon="2.3733">
        <ele>115</ele>
        <time>2024-04-21T07:28:49Z</time>
      </trkpt>
      <trkpt lat="48.38591" lon="2.3733">
        <ele>115</ele>
        <time>2024-04-21T07:29:05Z</time>
      </trkpt>
      <trkpt lat="48.38591" lon="2.37329">
        <ele>115</ele>
        <time>2024-04-21T07:29:23Z</time>
      </trkpt>
      <trkpt lat="48.38592" lon="2.37326">
        <ele>114.8</ele>
        <time>2024-04-21T07:29:41Z</time>
      </trkpt>
      <trkpt lat="48.38594" lon="2.3732">
        <ele>114.8</ele>
        <time>2024-04-21T07:29:58Z</time>
      </trkpt>
      <trkpt lat="48.38595" lon="2.37319">
        <ele>114.8</ele>
        <time>2024-04-21T07:30:11Z</time>
      </trkpt>
      <trkpt lat="48.38594" lon="2.37317">
        <ele>115</ele>
        <time>2024-04-21T07:30:25Z</time>
      </trkpt>
      <trkpt lat="48.38593" lon="2.373">
        <ele>115.6</ele>
        <time>2024-04-21T07:30:35Z</time>
      </trkpt>
      <trkpt lat="48.38593" lon="2.37292">
        <ele>116.6</ele>
        <time>2024-04-21T07:30:38Z</time>
      </trkpt>
      <trkpt lat="48.38593" lon="2.37283">
        <ele>117.8</ele>
        <time>2024-04-21T07:30:41Z</time>
      </trkpt>
      <trkpt lat="48.38594" lon="2.3728">
        <ele>118</ele>
        <time>2024-04-21T07:30:42Z</time>
      </trkpt>
      <trkpt lat="48.38595" lon="2.37263">
        <ele>118.6</ele>
        <time>2024-04-21T07:30:47Z</time>
      </trkpt>
      <trkpt lat="48.38596" lon="2.37259">
        <ele>118.8</ele>
        <time>2024-04-21T07:30:48Z</time>
      </trkpt>
      <trkpt lat="48.38596" lon="2.37242">
        <ele>120</ele>
        <time>2024-04-21T07:30:53Z</time>
      </trkpt>
      <trkpt lat="48.38596" lon="2.37234">
        <ele>120.6</ele>
        <time>2024-04-21T07:30:56Z</time>
      </trkpt>
      <trkpt lat="48.38596" lon="2.37226">
        <ele>121</ele>
        <time>2024-04-21T07:30:59Z</time>
      </trkpt>
      <trkpt lat="48.38596" lon="2.37216">
        <ele>122</ele>
        <time>2024-04-21T07:31:04Z</time>
      </trkpt>
      <trkpt lat="48.38596" lon="2.37214">
        <ele>122.4</ele>
        <time>2024-04-21T07:31:05Z</time>
      </trkpt>
      <trkpt lat="48.38597" lon="2.3721">
        <ele>123.2</ele>
        <time>2024-04-21T07:31:07Z</time>
      </trkpt>
      <trkpt lat="48.38598" lon="2.37204">
        <ele>124.2</ele>
        <time>2024-04-21T07:31:10Z</time>
      </trkpt>
      <trkpt lat="48.386" lon="2.372">
        <ele>124.6</ele>
        <time>2024-04-21T07:31:12Z</time>
      </trkpt>
      <trkpt lat="48.38604" lon="2.37193">
        <ele>125.4</ele>
        <time>2024-04-21T07:31:17Z</time>
      </trkpt>
      <trkpt lat="48.38607" lon="2.3719">
        <ele>125.6</ele>
        <time>2024-04-21T07:31:19Z</time>
      </trkpt>
      <trkpt lat="48.38608" lon="2.37189">
        <ele>125.6</ele>
        <time>2024-04-21T07:31:20Z</time>
      </trkpt>
      <trkpt lat="48.3861" lon="2.37185">
        <ele>126.2</ele>
        <time>2024-04-21T07:31:27Z</time>
      </trkpt>
      <trkpt lat="48.3861" lon="2.37184">
        <ele>126.4</ele>
        <time>2024-04-21T07:31:29Z</time>
      </trkpt>
      <trkpt lat="48.38611" lon="2.37185">
        <ele>126.8</ele>
        <time>2024-04-21T07:31:46Z</time>
      </trkpt>
      <trkpt lat="48.38617" lon="2.37186">
        <ele>126.6</ele>
        <time>2024-04-21T07:32:01Z</time>
      </trkpt>
      <trkpt lat="48.38616" lon="2.37185">
        <ele>126.6</ele>
        <time>2024-04-21T07:32:16Z</time>
      </trkpt>
      <trkpt lat="48.38616" lon="2.37185">
        <ele>126.4</ele>
        <time>2024-04-21T07:32:35Z</time>
      </trkpt>
      <trkpt lat="48.38616" lon="2.37184">
        <ele>126.6</ele>
        <time>2024-04-21T07:32:51Z</time>
      </trkpt>
      <trkpt lat="48.38619" lon="2.37178">
        <ele>126.6</ele>
        <time>2024-04-21T07:33:02Z</time>
      </trkpt>
      <trkpt lat="48.3862" lon="2.37177">
        <ele>126.8</ele>
        <time>2024-04-21T07:33:03Z</time>
      </trkpt>
      <trkpt lat="48.3863" lon="2.37165">
        <ele>127</ele>
        <time>2024-04-21T07:33:11Z</time>
      </trkpt>
      <trkpt lat="48.3864" lon="2.37149">
        <ele>127</ele>
        <time>2024-04-21T07:33:17Z</time>
      </trkpt>
      <trkpt lat="48.38639" lon="2.37131">
        <ele>127</ele>
        <time>2024-04-21T07:33:22Z</time>
      </trkpt>
      <trkpt lat="48.3864" lon="2.37127">
        <ele>127</ele>
        <time>2024-04-21T07:33:23Z</time>
      </trkpt>
      <trkpt lat="48.38641" lon="2.37113">
        <ele>127.2</ele>
        <time>2024-04-21T07:33:28Z</time>
      </trkpt>
      <trkpt lat="48.38638" lon="2.37094">
        <ele>127.4</ele>
        <time>2024-04-21T07:33:33Z</time>
      </trkpt>
      <trkpt lat="48.38641" lon="2.37067">
        <ele>127.4</ele>
        <time>2024-04-21T07:33:38Z</time>
      </trkpt>
      <trkpt lat="48.38642" lon="2.37029">
        <ele>127.2</ele>
        <time>2024-04-21T07:33:45Z</time>
      </trkpt>
      <trkpt lat="48.38637" lon="2.36998">
        <ele>126.4</ele>
        <time>2024-04-21T07:33:51Z</time>
      </trkpt>
      <trkpt lat="48.38635" lon="2.36972">
        <ele>126.2</ele>
        <time>2024-04-21T07:33:56Z</time>
      </trkpt>
      <trkpt lat="48.38633" lon="2.36951">
        <ele>125.6</ele>
        <time>2024-04-21T07:34:00Z</time>
      </trkpt>
      <trkpt lat="48.3863" lon="2.36941">
        <ele>125.4</ele>
        <time>2024-04-21T07:34:02Z</time>
      </trkpt>
      <trkpt lat="48.38631" lon="2.36931">
        <ele>125.2</ele>
        <time>2024-04-21T07:34:04Z</time>
      </trkpt>
      <trkpt lat="48.38632" lon="2.36925">
        <ele>125.2</ele>
        <time>2024-04-21T07:34:05Z</time>
      </trkpt>
      <trkpt lat="48.38635" lon="2.36905">
        <ele>125</ele>
        <time>2024-04-21T07:34:08Z</time>
      </trkpt>
      <trkpt lat="48.38635" lon="2.36898">
        <ele>125</ele>
        <time>2024-04-21T07:34:09Z</time>
      </trkpt>
      <trkpt lat="48.38637" lon="2.3688">
        <ele>124.8</ele>
        <time>2024-04-21T07:34:12Z</time>
      </trkpt>
      <trkpt lat="48.38639" lon="2.36878">
        <ele>124.4</ele>
        <time>2024-04-21T07:34:13Z</time>
      </trkpt>
      <trkpt lat="48.38646" lon="2.36884">
        <ele>123.6</ele>
        <time>2024-04-21T07:34:16Z</time>
      </trkpt>
      <trkpt lat="48.38648" lon="2.36889">
        <ele>123.2</ele>
        <time>2024-04-21T07:34:17Z</time>
      </trkpt>
      <trkpt lat="48.38654" lon="2.36896">
        <ele>122.2</ele>
        <time>2024-04-21T07:34:19Z</time>
      </trkpt>
      <trkpt lat="48.3866" lon="2.36904">
        <ele>121.8</ele>
        <time>2024-04-21T07:34:21Z</time>
      </trkpt>
      <trkpt lat="48.38669" lon="2.36917">
        <ele>121.2</ele>
        <time>2024-04-21T07:34:24Z</time>
      </trkpt>
      <trkpt lat="48.38672" lon="2.36922">
        <ele>120.8</ele>
        <time>2024-04-21T07:34:25Z</time>
      </trkpt>
      <trkpt lat="48.38679" lon="2.36932">
        <ele>120</ele>
        <time>2024-04-21T07:34:27Z</time>
      </trkpt>
      <trkpt lat="48.38687" lon="2.36948">
        <ele>118.8</ele>
        <time>2024-04-21T07:34:30Z</time>
      </trkpt>
      <trkpt lat="48.38695" lon="2.36964">
        <ele>117.8</ele>
        <time>2024-04-21T07:34:33Z</time>
      </trkpt>
      <trkpt lat="48.38698" lon="2.36968">
        <ele>117.6</ele>
        <time>2024-04-21T07:34:34Z</time>
      </trkpt>
      <trkpt lat="48.38703" lon="2.36982">
        <ele>116.4</ele>
        <time>2024-04-21T07:34:37Z</time>
      </trkpt>
      <trkpt lat="48.38705" lon="2.36989">
        <ele>116</ele>
        <time>2024-04-21T07:34:39Z</time>
      </trkpt>
      <trkpt lat="48.3871" lon="2.37004">
        <ele>115.8</ele>
        <time>2024-04-21T07:34:43Z</time>
      </trkpt>
      <trkpt lat="48.38712" lon="2.37007">
        <ele>115.8</ele>
        <time>2024-04-21T07:34:44Z</time>
      </trkpt>
      <trkpt lat="48.38715" lon="2.37024">
        <ele>116</ele>
        <time>2024-04-21T07:34:48Z</time>
      </trkpt>
      <trkpt lat="48.38722" lon="2.37046">
        <ele>117.2</ele>
        <time>2024-04-21T07:34:53Z</time>
      </trkpt>
      <trkpt lat="48.38726" lon="2.37066">
        <ele>117.4</ele>
        <time>2024-04-21T07:34:58Z</time>
      </trkpt>
      <trkpt lat="48.38735" lon="2.37083">
        <ele>117.6</ele>
        <time>2024-04-21T07:35:02Z</time>
      </trkpt>
      <trkpt lat="48.38737" lon="2.37087">
        <ele>117.6</ele>
        <time>2024-04-21T07:35:03Z</time>
      </trkpt>
      <trkpt lat="48.38748" lon="2.371">
        <ele>118.6</ele>
        <time>2024-04-21T07:35:07Z</time>
      </trkpt>
      <trkpt lat="48.38758" lon="2.3711">
        <ele>119.2</ele>
        <time>2024-04-21T07:35:10Z</time>
      </trkpt>
      <trkpt lat="48.38775" lon="2.37128">
        <ele>119.6</ele>
        <time>2024-04-21T07:35:16Z</time>
      </trkpt>
      <trkpt lat="48.38781" lon="2.37138">
        <ele>119.4</ele>
        <time>2024-04-21T07:35:21Z</time>
      </trkpt>
      <trkpt lat="48.3879" lon="2.37143">
        <ele>119.2</ele>
        <time>2024-04-21T07:35:26Z</time>
      </trkpt>
      <trkpt lat="48.38802" lon="2.37158">
        <ele>118.4</ele>
        <time>2024-04-21T07:35:31Z</time>
      </trkpt>
      <trkpt lat="48.38803" lon="2.37166">
        <ele>117.2</ele>
        <time>2024-04-21T07:35:33Z</time>
      </trkpt>
      <trkpt lat="48.38805" lon="2.37173">
        <ele>116</ele>
        <time>2024-04-21T07:35:35Z</time>
      </trkpt>
      <trkpt lat="48.38807" lon="2.37179">
        <ele>114.8</ele>
        <time>2024-04-21T07:35:37Z</time>
      </trkpt>
      <trkpt lat="48.38809" lon="2.37186">
        <ele>113.2</ele>
        <time>2024-04-21T07:35:39Z</time>
      </trkpt>
      <trkpt lat="48.38809" lon="2.3719">
        <ele>112.4</ele>
        <time>2024-04-21T07:35:40Z</time>
      </trkpt>
      <trkpt lat="48.3881" lon="2.37195">
        <ele>111.8</ele>
        <time>2024-04-21T07:35:41Z</time>
      </trkpt>
      <trkpt lat="48.38812" lon="2.37203">
        <ele>110.8</ele>
        <time>2024-04-21T07:35:43Z</time>
      </trkpt>
      <trkpt lat="48.38814" lon="2.37207">
        <ele>110.4</ele>
        <time>2024-04-21T07:35:44Z</time>
      </trkpt>
      <trkpt lat="48.38815" lon="2.37214">
        <ele>109.6</ele>
        <time>2024-04-21T07:35:46Z</time>
      </trkpt>
      <trkpt lat="48.38816" lon="2.37217">
        <ele>109.2</ele>
        <time>2024-04-21T07:35:47Z</time>
      </trkpt>
      <trkpt lat="48.38818" lon="2.37224">
        <ele>107.8</ele>
        <time>2024-04-21T07:35:49Z</time>
      </trkpt>
      <trkpt lat="48.38821" lon="2.3723">
        <ele>107.4</ele>
        <time>2024-04-21T07:35:52Z</time>
      </trkpt>
      <trkpt lat="48.38829" lon="2.37231">
        <ele>107</ele>
        <time>2024-04-21T07:36:01Z</time>
      </trkpt>
      <trkpt lat="48.38841" lon="2.37224">
        <ele>107</ele>
        <time>2024-04-21T07:36:05Z</time>
      </trkpt>
      <trkpt lat="48.38852" lon="2.37217">
        <ele>106.2</ele>
        <time>2024-04-21T07:36:09Z</time>
      </trkpt>
      <trkpt lat="48.38854" lon="2.37213">
        <ele>104.2</ele>
        <time>2024-04-21T07:36:11Z</time>
      </trkpt>
      <trkpt lat="48.38854" lon="2.37212">
        <ele>102.8</ele>
        <time>2024-04-21T07:36:12Z</time>
      </trkpt>
      <trkpt lat="48.38853" lon="2.3721">
        <ele>101.2</ele>
        <time>2024-04-21T07:36:13Z</time>
      </trkpt>
      <trkpt lat="48.38852" lon="2.37209">
        <ele>99.8</ele>
        <time>2024-04-21T07:36:14Z</time>
      </trkpt>
      <trkpt lat="48.38851" lon="2.37207">
        <ele>98.4</ele>
        <time>2024-04-21T07:36:15Z</time>
      </trkpt>
      <trkpt lat="48.38851" lon="2.37206">
        <ele>97.2</ele>
        <time>2024-04-21T07:36:16Z</time>
      </trkpt>
      <trkpt lat="48.38852" lon="2.37206">
        <ele>96</ele>
        <time>2024-04-21T07:36:17Z</time>
      </trkpt>
      <trkpt lat="48.38852" lon="2.37205">
        <ele>94.8</ele>
        <time>2024-04-21T07:36:19Z</time>
      </trkpt>
      <trkpt lat="48.38856" lon="2.372">
        <ele>94.4</ele>
        <time>2024-04-21T07:36:22Z</time>
      </trkpt>
      <trkpt lat="48.38865" lon="2.37188">
        <ele>94</ele>
        <time>2024-04-21T07:36:25Z</time>
      </trkpt>
      <trkpt lat="48.38866" lon="2.37185">
        <ele>93.8</ele>
        <time>2024-04-21T07:36:26Z</time>
      </trkpt>
      <trkpt lat="48.38865" lon="2.37181">
        <ele>93.4</ele>
        <time>2024-04-21T07:36:28Z</time>
      </trkpt>
      <trkpt lat="48.38862" lon="2.37177">
        <ele>92.6</ele>
        <time>2024-04-21T07:36:31Z</time>
      </trkpt>
      <trkpt lat="48.38858" lon="2.37173">
        <ele>91.8</ele>
        <time>2024-04-21T07:36:35Z</time>
      </trkpt>
      <trkpt lat="48.38856" lon="2.37169">
        <ele>91.8</ele>
        <time>2024-04-21T07:36:38Z</time>
      </trkpt>
      <trkpt lat="48.38854" lon="2.37164">
        <ele>91.8</ele>
        <time>2024-04-21T07:36:41Z</time>
      </trkpt>
      <trkpt lat="48.38846" lon="2.37154">
        <ele>92.6</ele>
        <time>2024-04-21T07:36:48Z</time>
      </trkpt>
      <trkpt lat="48.38845" lon="2.37153">
        <ele>93</ele>
        <time>2024-04-21T07:36:53Z</time>
      </trkpt>
      <trkpt lat="48.38846" lon="2.37155">
        <ele>93.2</ele>
        <time>2024-04-21T07:36:55Z</time>
      </trkpt>
      <trkpt lat="48.38847" lon="2.37156">
        <ele>93.4</ele>
        <time>2024-04-21T07:36:56Z</time>
      </trkpt>
      <trkpt lat="48.3885" lon="2.37158">
        <ele>93.6</ele>
        <time>2024-04-21T07:37:01Z</time>
      </trkpt>
      <trkpt lat="48.38851" lon="2.3716">
        <ele>93.4</ele>
        <time>2024-04-21T07:37:16Z</time>
      </trkpt>
      <trkpt lat="48.38852" lon="2.37162">
        <ele>93</ele>
        <time>2024-04-21T07:37:30Z</time>
      </trkpt>
      <trkpt lat="48.38849" lon="2.37159">
        <ele>93</ele>
        <time>2024-04-21T07:37:34Z</time>
      </trkpt>
      <trkpt lat="48.38848" lon="2.37159">
        <ele>93</ele>
        <time>2024-04-21T07:37:35Z</time>
      </trkpt>
      <trkpt lat="48.38838" lon="2.37142">
        <ele>93.2</ele>
        <time>2024-04-21T07:37:44Z</time>
      </trkpt>
      <trkpt lat="48.3883" lon="2.37131">
        <ele>94.2</ele>
        <time>2024-04-21T07:37:50Z</time>
      </trkpt>
      <trkpt lat="48.38827" lon="2.37127">
        <ele>94.6</ele>
        <time>2024-04-21T07:37:52Z</time>
      </trkpt>
      <trkpt lat="48.38819" lon="2.37118">
        <ele>95.2</ele>
        <time>2024-04-21T07:37:56Z</time>
      </trkpt>
      <trkpt lat="48.38811" lon="2.37109">
        <ele>95.8</ele>
        <time>2024-04-21T07:38:00Z</time>
      </trkpt>
      <trkpt lat="48.38805" lon="2.37103">
        <ele>96.4</ele>
        <time>2024-04-21T07:38:03Z</time>
      </trkpt>
      <trkpt lat="48.38793" lon="2.37095">
        <ele>97.2</ele>
        <time>2024-04-21T07:38:08Z</time>
      </trkpt>
      <trkpt lat="48.38788" lon="2.3709">
        <ele>97.6</ele>
        <time>2024-04-21T07:38:10Z</time>
      </trkpt>
      <trkpt lat="48.38775" lon="2.37079">
        <ele>98.2</ele>
        <time>2024-04-21T07:38:16Z</time>
      </trkpt>
      <trkpt lat="48.38773" lon="2.37076">
        <ele>98.6</ele>
        <time>2024-04-21T07:38:17Z</time>
      </trkpt>
      <trkpt lat="48.38763" lon="2.37064">
        <ele>99.6</ele>
        <time>2024-04-21T07:38:23Z</time>
      </trkpt>
      <trkpt lat="48.38762" lon="2.37061">
        <ele>99.8</ele>
        <time>2024-04-21T07:38:24Z</time>
      </trkpt>
      <trkpt lat="48.38762" lon="2.37055">
        <ele>100.2</ele>
        <time>2024-04-21T07:38:26Z</time>
      </trkpt>
      <trkpt lat="48.38764" lon="2.37051">
        <ele>100.6</ele>
        <time>2024-04-21T07:38:28Z</time>
      </trkpt>
      <trkpt lat="48.38765" lon="2.37049">
        <ele>100.8</ele>
        <time>2024-04-21T07:38:29Z</time>
      </trkpt>
      <trkpt lat="48.38773" lon="2.37043">
        <ele>101.6</ele>
        <time>2024-04-21T07:38:33Z</time>
      </trkpt>
      <trkpt lat="48.38774" lon="2.37042">
        <ele>101.8</ele>
        <time>2024-04-21T07:38:34Z</time>
      </trkpt>
      <trkpt lat="48.38776" lon="2.37041">
        <ele>101.8</ele>
        <time>2024-04-21T07:38:35Z</time>
      </trkpt>
      <trkpt lat="48.38786" lon="2.37034">
        <ele>102</ele>
        <time>2024-04-21T07:38:40Z</time>
      </trkpt>
      <trkpt lat="48.38798" lon="2.37027">
        <ele>102</ele>
        <time>2024-04-21T07:38:44Z</time>
      </trkpt>
      <trkpt lat="48.38803" lon="2.37022">
        <ele>100</ele>
        <time>2024-04-21T07:38:47Z</time>
      </trkpt>
      <trkpt lat="48.38805" lon="2.37019">
        <ele>98.6</ele>
        <time>2024-04-21T07:38:48Z</time>
      </trkpt>
      <trkpt lat="48.38808" lon="2.37018">
        <ele>96.8</ele>
        <time>2024-04-21T07:38:49Z</time>
      </trkpt>
      <trkpt lat="48.3881" lon="2.37017">
        <ele>95.2</ele>
        <time>2024-04-21T07:38:50Z</time>
      </trkpt>
      <trkpt lat="48.38811" lon="2.37017">
        <ele>94</ele>
        <time>2024-04-21T07:38:51Z</time>
      </trkpt>
      <trkpt lat="48.38811" lon="2.37015">
        <ele>92.6</ele>
        <time>2024-04-21T07:38:53Z</time>
      </trkpt>
      <trkpt lat="48.38811" lon="2.37015">
        <ele>92</ele>
        <time>2024-04-21T07:38:54Z</time>
      </trkpt>
      <trkpt lat="48.38811" lon="2.37015">
        <ele>91.2</ele>
        <time>2024-04-21T07:38:56Z</time>
      </trkpt>
      <trkpt lat="48.38812" lon="2.37014">
        <ele>90.4</ele>
        <time>2024-04-21T07:39:07Z</time>
      </trkpt>
      <trkpt lat="48.38815" lon="2.37011">
        <ele>90</ele>
        <time>2024-04-21T07:39:13Z</time>
      </trkpt>
      <trkpt lat="48.38815" lon="2.3701">
        <ele>90.2</ele>
        <time>2024-04-21T07:39:15Z</time>
      </trkpt>
      <trkpt lat="48.38815" lon="2.37009">
        <ele>89.4</ele>
        <time>2024-04-21T07:39:29Z</time>
      </trkpt>
      <trkpt lat="48.38816" lon="2.37009">
        <ele>89.4</ele>
        <time>2024-04-21T07:39:46Z</time>
      </trkpt>
      <trkpt lat="48.38815" lon="2.3701">
        <ele>89.4</ele>
        <time>2024-04-21T07:40:02Z</time>
      </trkpt>
      <trkpt lat="48.38815" lon="2.37012">
        <ele>89.2</ele>
        <time>2024-04-21T07:40:17Z</time>
      </trkpt>
      <trkpt lat="48.38818" lon="2.37011">
        <ele>89.2</ele>
        <time>2024-04-21T07:40:30Z</time>
      </trkpt>
      <trkpt lat="48.38819" lon="2.37009">
        <ele>89.2</ele>
        <time>2024-04-21T07:40:31Z</time>
      </trkpt>
      <trkpt lat="48.38823" lon="2.37">
        <ele>89.2</ele>
        <time>2024-04-21T07:40:34Z</time>
      </trkpt>
      <trkpt lat="48.38827" lon="2.36988">
        <ele>89</ele>
        <time>2024-04-21T07:40:37Z</time>
      </trkpt>
      <trkpt lat="48.38828" lon="2.36984">
        <ele>88.8</ele>
        <time>2024-04-21T07:40:38Z</time>
      </trkpt>
      <trkpt lat="48.38834" lon="2.36971">
        <ele>88</ele>
        <time>2024-04-21T07:40:41Z</time>
      </trkpt>
      <trkpt lat="48.38835" lon="2.36965">
        <ele>87.4</ele>
        <time>2024-04-21T07:40:42Z</time>
      </trkpt>
      <trkpt lat="48.38836" lon="2.36959">
        <ele>86.8</ele>
        <time>2024-04-21T07:40:43Z</time>
      </trkpt>
      <trkpt lat="48.38835" lon="2.36949">
        <ele>85.6</ele>
        <time>2024-04-21T07:40:45Z</time>
      </trkpt>
      <trkpt lat="48.38834" lon="2.36945">
        <ele>85</ele>
        <time>2024-04-21T07:40:46Z</time>
      </trkpt>
      <trkpt lat="48.38833" lon="2.36938">
        <ele>84.2</ele>
        <time>2024-04-21T07:40:48Z</time>
      </trkpt>
      <trkpt lat="48.38829" lon="2.36928">
        <ele>83.8</ele>
        <time>2024-04-21T07:40:52Z</time>
      </trkpt>
      <trkpt lat="48.38818" lon="2.36913">
        <ele>83.8</ele>
        <time>2024-04-21T07:40:59Z</time>
      </trkpt>
      <trkpt lat="48.38811" lon="2.36892">
        <ele>84.4</ele>
        <time>2024-04-21T07:41:06Z</time>
      </trkpt>
      <trkpt lat="48.38816" lon="2.36876">
        <ele>84.6</ele>
        <time>2024-04-21T07:41:11Z</time>
      </trkpt>
      <trkpt lat="48.38822" lon="2.36866">
        <ele>85.2</ele>
        <time>2024-04-21T07:41:16Z</time>
      </trkpt>
      <trkpt lat="48.38826" lon="2.36863">
        <ele>85.6</ele>
        <time>2024-04-21T07:41:19Z</time>
      </trkpt>
      <trkpt lat="48.38829" lon="2.36862">
        <ele>86.2</ele>
        <time>2024-04-21T07:41:21Z</time>
      </trkpt>
      <trkpt lat="48.38837" lon="2.3686">
        <ele>87.6</ele>
        <time>2024-04-21T07:41:25Z</time>
      </trkpt>
      <trkpt lat="48.38839" lon="2.3686">
        <ele>87.8</ele>
        <time>2024-04-21T07:41:26Z</time>
      </trkpt>
      <trkpt lat="48.38858" lon="2.36859">
        <ele>88.2</ele>
        <time>2024-04-21T07:41:33Z</time>
      </trkpt>
      <trkpt lat="48.38882" lon="2.36862">
        <ele>87.4</ele>
        <time>2024-04-21T07:41:39Z</time>
      </trkpt>
      <trkpt lat="48.38898" lon="2.36877">
        <ele>86.4</ele>
        <time>2024-04-21T07:41:43Z</time>
      </trkpt>
      <trkpt lat="48.38905" lon="2.36887">
        <ele>85.6</ele>
        <time>2024-04-21T07:41:45Z</time>
      </trkpt>
      <trkpt lat="48.38908" lon="2.36893">
        <ele>85.4</ele>
        <time>2024-04-21T07:41:46Z</time>
      </trkpt>
      <trkpt lat="48.38914" lon="2.36905">
        <ele>84.8</ele>
        <time>2024-04-21T07:41:48Z</time>
      </trkpt>
      <trkpt lat="48.38916" lon="2.36911">
        <ele>84.2</ele>
        <time>2024-04-21T07:41:49Z</time>
      </trkpt>
      <trkpt lat="48.38926" lon="2.3693">
        <ele>83.2</ele>
        <time>2024-04-21T07:41:53Z</time>
      </trkpt>
      <trkpt lat="48.38934" lon="2.3695">
        <ele>82.2</ele>
        <time>2024-04-21T07:41:58Z</time>
      </trkpt>
      <trkpt lat="48.38937" lon="2.36959">
        <ele>82</ele>
        <time>2024-04-21T07:42:00Z</time>
      </trkpt>
      <trkpt lat="48.38952" lon="2.36988">
        <ele>81</ele>
        <time>2024-04-21T07:42:08Z</time>
      </trkpt>
      <trkpt lat="48.38952" lon="2.36989">
        <ele>80.6</ele>
        <time>2024-04-21T07:42:14Z</time>
      </trkpt>
      <trkpt lat="48.38952" lon="2.36992">
        <ele>80.4</ele>
        <time>2024-04-21T07:42:21Z</time>
      </trkpt>
      <trkpt lat="48.38954" lon="2.36997">
        <ele>80.4</ele>
        <time>2024-04-21T07:42:23Z</time>
      </trkpt>
      <trkpt lat="48.38962" lon="2.3702">
        <ele>80.4</ele>
        <time>2024-04-21T07:42:29Z</time>
      </trkpt>
      <trkpt lat="48.38973" lon="2.37045">
        <ele>80</ele>
        <time>2024-04-21T07:42:34Z</time>
      </trkpt>
      <trkpt lat="48.38976" lon="2.37051">
        <ele>79.8</ele>
        <time>2024-04-21T07:42:35Z</time>
      </trkpt>
      <trkpt lat="48.38987" lon="2.37075">
        <ele>79</ele>
        <time>2024-04-21T07:42:39Z</time>
      </trkpt>
      <trkpt lat="48.38991" lon="2.37088">
        <ele>78.4</ele>
        <time>2024-04-21T07:42:41Z</time>
      </trkpt>
      <trkpt lat="48.38996" lon="2.371">
        <ele>77.8</ele>
        <time>2024-04-21T07:42:43Z</time>
      </trkpt>
      <trkpt lat="48.39011" lon="2.37139">
        <ele>76.6</ele>
        <time>2024-04-21T07:42:49Z</time>
      </trkpt>
      <trkpt lat="48.39026" lon="2.3717">
        <ele>75.6</ele>
        <time>2024-04-21T07:42:54Z</time>
      </trkpt>
      <trkpt lat="48.39032" lon="2.37184">
        <ele>75.2</ele>
        <time>2024-04-21T07:42:56Z</time>
      </trkpt>
      <trkpt lat="48.39051" lon="2.37231">
        <ele>74.6</ele>
        <time>2024-04-21T07:43:03Z</time>
      </trkpt>
      <trkpt lat="48.39059" lon="2.37249">
        <ele>74.4</ele>
        <time>2024-04-21T07:43:06Z</time>
      </trkpt>
      <trkpt lat="48.39071" lon="2.37282">
        <ele>73.6</ele>
        <time>2024-04-21T07:43:11Z</time>
      </trkpt>
      <trkpt lat="48.39074" lon="2.37288">
        <ele>73.2</ele>
        <time>2024-04-21T07:43:12Z</time>
      </trkpt>
      <trkpt lat="48.39095" lon="2.37325">
        <ele>72.8</ele>
        <time>2024-04-21T07:43:18Z</time>
      </trkpt>
      <trkpt lat="48.3912" lon="2.37372">
        <ele>73</ele>
        <time>2024-04-21T07:43:26Z</time>
      </trkpt>
      <trkpt lat="48.39128" lon="2.37382">
        <ele>73</ele>
        <time>2024-04-21T07:43:29Z</time>
      </trkpt>
      <trkpt lat="48.39132" lon="2.37382">
        <ele>73</ele>
        <time>2024-04-21T07:43:30Z</time>
      </trkpt>
      <trkpt lat="48.39143" lon="2.37372">
        <ele>73.4</ele>
        <time>2024-04-21T07:43:33Z</time>
      </trkpt>
      <trkpt lat="48.39146" lon="2.37369">
        <ele>73.6</ele>
        <time>2024-04-21T07:43:34Z</time>
      </trkpt>
      <trkpt lat="48.39158" lon="2.37358">
        <ele>74</ele>
        <time>2024-04-21T07:43:39Z</time>
      </trkpt>
      <trkpt lat="48.39161" lon="2.37346">
        <ele>74.6</ele>
        <time>2024-04-21T07:43:42Z</time>
      </trkpt>
      <trkpt lat="48.39162" lon="2.37335">
        <ele>75.2</ele>
        <time>2024-04-21T07:43:44Z</time>
      </trkpt>
      <trkpt lat="48.39163" lon="2.3733">
        <ele>75.6</ele>
        <time>2024-04-21T07:43:45Z</time>
      </trkpt>
      <trkpt lat="48.39168" lon="2.37304">
        <ele>76.2</ele>
        <time>2024-04-21T07:43:50Z</time>
      </trkpt>
      <trkpt lat="48.39183" lon="2.37266">
        <ele>76.4</ele>
        <time>2024-04-21T07:43:58Z</time>
      </trkpt>
      <trkpt lat="48.39204" lon="2.37222">
        <ele>76.6</ele>
        <time>2024-04-21T07:44:08Z</time>
      </trkpt>
      <trkpt lat="48.39216" lon="2.37215">
        <ele>77.2</ele>
        <time>2024-04-21T07:44:12Z</time>
      </trkpt>
      <trkpt lat="48.39235" lon="2.37224">
        <ele>77.6</ele>
        <time>2024-04-21T07:44:18Z</time>
      </trkpt>
      <trkpt lat="48.39251" lon="2.37233">
        <ele>78.8</ele>
        <time>2024-04-21T07:44:23Z</time>
      </trkpt>
      <trkpt lat="48.39263" lon="2.37238">
        <ele>79.4</ele>
        <time>2024-04-21T07:44:27Z</time>
      </trkpt>
      <trkpt lat="48.39273" lon="2.37243">
        <ele>79.8</ele>
        <time>2024-04-21T07:44:30Z</time>
      </trkpt>
      <trkpt lat="48.39292" lon="2.37253">
        <ele>80.4</ele>
        <time>2024-04-21T07:44:36Z</time>
      </trkpt>
      <trkpt lat="48.39298" lon="2.37254">
        <ele>81</ele>
        <time>2024-04-21T07:44:38Z</time>
      </trkpt>
      <trkpt lat="48.39314" lon="2.37261">
        <ele>82</ele>
        <time>2024-04-21T07:44:43Z</time>
      </trkpt>
      <trkpt lat="48.39318" lon="2.37262">
        <ele>82.2</ele>
        <time>2024-04-21T07:44:44Z</time>
      </trkpt>
      <trkpt lat="48.39339" lon="2.37268">
        <ele>82.8</ele>
        <time>2024-04-21T07:44:50Z</time>
      </trkpt>
      <trkpt lat="48.3935" lon="2.37283">
        <ele>83.2</ele>
        <time>2024-04-21T07:44:55Z</time>
      </trkpt>
      <trkpt lat="48.39359" lon="2.37316">
        <ele>84.4</ele>
        <time>2024-04-21T07:45:03Z</time>
      </trkpt>
      <trkpt lat="48.39365" lon="2.3734">
        <ele>85</ele>
        <time>2024-04-21T07:45:09Z</time>
      </trkpt>
      <trkpt lat="48.39365" lon="2.37344">
        <ele>85.4</ele>
        <time>2024-04-21T07:45:10Z</time>
      </trkpt>
      <trkpt lat="48.39371" lon="2.37359">
        <ele>86.4</ele>
        <time>2024-04-21T07:45:14Z</time>
      </trkpt>
      <trkpt lat="48.39374" lon="2.37362">
        <ele>86.6</ele>
        <time>2024-04-21T07:45:15Z</time>
      </trkpt>
      <trkpt lat="48.39377" lon="2.37365">
        <ele>86.6</ele>
        <time>2024-04-21T07:45:16Z</time>
      </trkpt>
      <trkpt lat="48.39384" lon="2.37365">
        <ele>87.4</ele>
        <time>2024-04-21T07:45:18Z</time>
      </trkpt>
      <trkpt lat="48.39388" lon="2.37364">
        <ele>87.6</ele>
        <time>2024-04-21T07:45:19Z</time>
      </trkpt>
      <trkpt lat="48.394" lon="2.37355">
        <ele>88.4</ele>
        <time>2024-04-21T07:45:23Z</time>
      </trkpt>
      <trkpt lat="48.39409" lon="2.37341">
        <ele>88.8</ele>
        <time>2024-04-21T07:45:28Z</time>
      </trkpt>
      <trkpt lat="48.39414" lon="2.37333">
        <ele>89.4</ele>
        <time>2024-04-21T07:45:31Z</time>
      </trkpt>
      <trkpt lat="48.39416" lon="2.37331">
        <ele>89.8</ele>
        <time>2024-04-21T07:45:32Z</time>
      </trkpt>
      <trkpt lat="48.39423" lon="2.3732">
        <ele>91</ele>
        <time>2024-04-21T07:45:36Z</time>
      </trkpt>
      <trkpt lat="48.39428" lon="2.37313">
        <ele>92.2</ele>
        <time>2024-04-21T07:45:39Z</time>
      </trkpt>
      <trkpt lat="48.39434" lon="2.37303">
        <ele>93.2</ele>
        <time>2024-04-21T07:45:43Z</time>
      </trkpt>
      <trkpt lat="48.39438" lon="2.37296">
        <ele>94.6</ele>
        <time>2024-04-21T07:45:46Z</time>
      </trkpt>
      <trkpt lat="48.39439" lon="2.37293">
        <ele>95</ele>
        <time>2024-04-21T07:45:47Z</time>
      </trkpt>
      <trkpt lat="48.39445" lon="2.37283">
        <ele>95.8</ele>
        <time>2024-04-21T07:45:51Z</time>
      </trkpt>
      <trkpt lat="48.39451" lon="2.37273">
        <ele>96.8</ele>
        <time>2024-04-21T07:45:55Z</time>
      </trkpt>
      <trkpt lat="48.39454" lon="2.37268">
        <ele>97.4</ele>
        <time>2024-04-21T07:45:57Z</time>
      </trkpt>
      <trkpt lat="48.39455" lon="2.37263">
        <ele>98.2</ele>
        <time>2024-04-21T07:45:59Z</time>
      </trkpt>
      <trkpt lat="48.39456" lon="2.3726">
        <ele>98.6</ele>
        <time>2024-04-21T07:46:00Z</time>
      </trkpt>
      <trkpt lat="48.39458" lon="2.37254">
        <ele>99.2</ele>
        <time>2024-04-21T07:46:02Z</time>
      </trkpt>
      <trkpt lat="48.39462" lon="2.37243">
        <ele>100.4</ele>
        <time>2024-04-21T07:46:06Z</time>
      </trkpt>
      <trkpt lat="48.39462" lon="2.3724">
        <ele>100.6</ele>
        <time>2024-04-21T07:46:07Z</time>
      </trkpt>
      <trkpt lat="48.3947" lon="2.37218">
        <ele>101.6</ele>
        <time>2024-04-21T07:46:15Z</time>
      </trkpt>
      <trkpt lat="48.39471" lon="2.37215">
        <ele>101.8</ele>
        <time>2024-04-21T07:46:16Z</time>
      </trkpt>
      <trkpt lat="48.39474" lon="2.37202">
        <ele>102.6</ele>
        <time>2024-04-21T07:46:20Z</time>
      </trkpt>
      <trkpt lat="48.39476" lon="2.37192">
        <ele>103.2</ele>
        <time>2024-04-21T07:46:23Z</time>
      </trkpt>
      <trkpt lat="48.39477" lon="2.37182">
        <ele>103.6</ele>
        <time>2024-04-21T07:46:26Z</time>
      </trkpt>
      <trkpt lat="48.39478" lon="2.37164">
        <ele>104.8</ele>
        <time>2024-04-21T07:46:31Z</time>
      </trkpt>
      <trkpt lat="48.39479" lon="2.37161">
        <ele>105</ele>
        <time>2024-04-21T07:46:32Z</time>
      </trkpt>
      <trkpt lat="48.39482" lon="2.37147">
        <ele>106</ele>
        <time>2024-04-21T07:46:36Z</time>
      </trkpt>
      <trkpt lat="48.39483" lon="2.37141">
        <ele>106.2</ele>
        <time>2024-04-21T07:46:38Z</time>
      </trkpt>
      <trkpt lat="48.39484" lon="2.37131">
        <ele>107</ele>
        <time>2024-04-21T07:46:41Z</time>
      </trkpt>
      <trkpt lat="48.3948" lon="2.3712">
        <ele>107.8</ele>
        <time>2024-04-21T07:46:44Z</time>
      </trkpt>
      <trkpt lat="48.39477" lon="2.37116">
        <ele>108.4</ele>
        <time>2024-04-21T07:46:46Z</time>
      </trkpt>
      <trkpt lat="48.39472" lon="2.3711">
        <ele>109</ele>
        <time>2024-04-21T07:46:49Z</time>
      </trkpt>
      <trkpt lat="48.39468" lon="2.37096">
        <ele>109.8</ele>
        <time>2024-04-21T07:46:54Z</time>
      </trkpt>
      <trkpt lat="48.39468" lon="2.37093">
        <ele>110.4</ele>
        <time>2024-04-21T07:46:55Z</time>
      </trkpt>
      <trkpt lat="48.39468" lon="2.37091">
        <ele>111</ele>
        <time>2024-04-21T07:46:56Z</time>
      </trkpt>
      <trkpt lat="48.39466" lon="2.37085">
        <ele>112.2</ele>
        <time>2024-04-21T07:46:59Z</time>
      </trkpt>
      <trkpt lat="48.39466" lon="2.37081">
        <ele>112.8</ele>
        <time>2024-04-21T07:47:01Z</time>
      </trkpt>
      <trkpt lat="48.39466" lon="2.37078">
        <ele>113.6</ele>
        <time>2024-04-21T07:47:03Z</time>
      </trkpt>
      <trkpt lat="48.39467" lon="2.37072">
        <ele>114.8</ele>
        <time>2024-04-21T07:47:06Z</time>
      </trkpt>
      <trkpt lat="48.39469" lon="2.37069">
        <ele>116</ele>
        <time>2024-04-21T07:47:08Z</time>
      </trkpt>
      <trkpt lat="48.39471" lon="2.37063">
        <ele>117.2</ele>
        <time>2024-04-21T07:47:11Z</time>
      </trkpt>
      <trkpt lat="48.39474" lon="2.37058">
        <ele>118.4</ele>
        <time>2024-04-21T07:47:14Z</time>
      </trkpt>
      <trkpt lat="48.39475" lon="2.37056">
        <ele>118.8</ele>
        <time>2024-04-21T07:47:15Z</time>
      </trkpt>
      <trkpt lat="48.39477" lon="2.37052">
        <ele>119.8</ele>
        <time>2024-04-21T07:47:17Z</time>
      </trkpt>
      <trkpt lat="48.39479" lon="2.37042">
        <ele>121</ele>
        <time>2024-04-21T07:47:20Z</time>
      </trkpt>
      <trkpt lat="48.39481" lon="2.37033">
        <ele>122.2</ele>
        <time>2024-04-21T07:47:23Z</time>
      </trkpt>
      <trkpt lat="48.39482" lon="2.37032">
        <ele>122.6</ele>
        <time>2024-04-21T07:47:24Z</time>
      </trkpt>
      <trkpt lat="48.39483" lon="2.3703">
        <ele>122.8</ele>
        <time>2024-04-21T07:47:25Z</time>
      </trkpt>
      <trkpt lat="48.39483" lon="2.3702">
        <ele>123.2</ele>
        <time>2024-04-21T07:47:29Z</time>
      </trkpt>
      <trkpt lat="48.39484" lon="2.37017">
        <ele>123.2</ele>
        <time>2024-04-21T07:47:30Z</time>
      </trkpt>
      <trkpt lat="48.39484" lon="2.37013">
        <ele>123.2</ele>
        <time>2024-04-21T07:47:32Z</time>
      </trkpt>
      <trkpt lat="48.39486" lon="2.37009">
        <ele>123.4</ele>
        <time>2024-04-21T07:47:36Z</time>
      </trkpt>
      <trkpt lat="48.39486" lon="2.37009">
        <ele>124.2</ele>
        <time>2024-04-21T07:47:53Z</time>
      </trkpt>
      <trkpt lat="48.39486" lon="2.37009">
        <ele>123.8</ele>
        <time>2024-04-21T07:48:12Z</time>
      </trkpt>
      <trkpt lat="48.39486" lon="2.37009">
        <ele>124</ele>
        <time>2024-04-21T07:48:30Z</time>
      </trkpt>
      <trkpt lat="48.39486" lon="2.37009">
        <ele>123.8</ele>
        <time>2024-04-21T07:48:47Z</time>
      </trkpt>
      <trkpt lat="48.39486" lon="2.3701">
        <ele>123.8</ele>
        <time>2024-04-21T07:49:42Z</time>
      </trkpt>
      <trkpt lat="48.39486" lon="2.3701">
        <ele>123.6</ele>
        <time>2024-04-21T07:50:18Z</time>
      </trkpt>
      <trkpt lat="48.39486" lon="2.3701">
        <ele>123.6</ele>
        <time>2024-04-21T07:50:20Z</time>
      </trkpt>
      <trkpt lat="48.39486" lon="2.3701">
        <ele>123.8</ele>
        <time>2024-04-21T07:51:05Z</time>
      </trkpt>
      <trkpt lat="48.39486" lon="2.37009">
        <ele>123.8</ele>
        <time>2024-04-21T07:52:06Z</time>
      </trkpt>
      <trkpt lat="48.3949" lon="2.37004">
        <ele>123.6</ele>
        <time>2024-04-21T07:52:39Z</time>
      </trkpt>
      <trkpt lat="48.39495" lon="2.36999">
        <ele>123.6</ele>
        <time>2024-04-21T07:52:43Z</time>
      </trkpt>
      <trkpt lat="48.39497" lon="2.36995">
        <ele>123.6</ele>
        <time>2024-04-21T07:52:45Z</time>
      </trkpt>
      <trkpt lat="48.39508" lon="2.36996">
        <ele>124.4</ele>
        <time>2024-04-21T07:52:50Z</time>
      </trkpt>
      <trkpt lat="48.39513" lon="2.36996">
        <ele>125</ele>
        <time>2024-04-21T07:52:52Z</time>
      </trkpt>
      <trkpt lat="48.39519" lon="2.36992">
        <ele>125.2</ele>
        <time>2024-04-21T07:52:54Z</time>
      </trkpt>
      <trkpt lat="48.39525" lon="2.36989">
        <ele>125.2</ele>
        <time>2024-04-21T07:52:56Z</time>
      </trkpt>
      <trkpt lat="48.3953" lon="2.36985">
        <ele>125.4</ele>
        <time>2024-04-21T07:52:58Z</time>
      </trkpt>
      <trkpt lat="48.39532" lon="2.36982">
        <ele>125.4</ele>
        <time>2024-04-21T07:52:59Z</time>
      </trkpt>
      <trkpt lat="48.39543" lon="2.36966">
        <ele>125.8</ele>
        <time>2024-04-21T07:53:04Z</time>
      </trkpt>
      <trkpt lat="48.39557" lon="2.36956">
        <ele>126.2</ele>
        <time>2024-04-21T07:53:10Z</time>
      </trkpt>
      <trkpt lat="48.39561" lon="2.36954">
        <ele>126.8</ele>
        <time>2024-04-21T07:53:12Z</time>
      </trkpt>
      <trkpt lat="48.39571" lon="2.36948">
        <ele>127.6</ele>
        <time>2024-04-21T07:53:16Z</time>
      </trkpt>
      <trkpt lat="48.3958" lon="2.36947">
        <ele>128</ele>
        <time>2024-04-21T07:53:20Z</time>
      </trkpt>
      <trkpt lat="48.39585" lon="2.36945">
        <ele>128.4</ele>
        <time>2024-04-21T07:53:22Z</time>
      </trkpt>
      <trkpt lat="48.396" lon="2.36938">
        <ele>128.6</ele>
        <time>2024-04-21T07:53:28Z</time>
      </trkpt>
      <trkpt lat="48.39605" lon="2.36937">
        <ele>129</ele>
        <time>2024-04-21T07:53:30Z</time>
      </trkpt>
      <trkpt lat="48.39618" lon="2.36934">
        <ele>130.2</ele>
        <time>2024-04-21T07:53:35Z</time>
      </trkpt>
      <trkpt lat="48.39634" lon="2.36935">
        <ele>130.4</ele>
        <time>2024-04-21T07:53:41Z</time>
      </trkpt>
      <trkpt lat="48.39651" lon="2.36935">
        <ele>130.4</ele>
        <time>2024-04-21T07:53:47Z</time>
      </trkpt>
      <trkpt lat="48.39674" lon="2.36941">
        <ele>131</ele>
        <time>2024-04-21T07:53:55Z</time>
      </trkpt>
      <trkpt lat="48.39689" lon="2.3695">
        <ele>131.2</ele>
        <time>2024-04-21T07:54:00Z</time>
      </trkpt>
      <trkpt lat="48.39695" lon="2.36951">
        <ele>131.4</ele>
        <time>2024-04-21T07:54:02Z</time>
      </trkpt>
      <trkpt lat="48.39705" lon="2.36954">
        <ele>131.4</ele>
        <time>2024-04-21T07:54:05Z</time>
      </trkpt>
      <trkpt lat="48.39728" lon="2.36962">
        <ele>130.8</ele>
        <time>2024-04-21T07:54:12Z</time>
      </trkpt>
      <trkpt lat="48.39756" lon="2.36971">
        <ele>130.8</ele>
        <time>2024-04-21T07:54:20Z</time>
      </trkpt>
      <trkpt lat="48.39791" lon="2.36978">
        <ele>130.8</ele>
        <time>2024-04-21T07:54:29Z</time>
      </trkpt>
      <trkpt lat="48.39807" lon="2.36968">
        <ele>130.8</ele>
        <time>2024-04-21T07:54:34Z</time>
      </trkpt>
      <trkpt lat="48.39816" lon="2.36943">
        <ele>130.8</ele>
        <time>2024-04-21T07:54:39Z</time>
      </trkpt>
      <trkpt lat="48.39817" lon="2.36937">
        <ele>130.8</ele>
        <time>2024-04-21T07:54:40Z</time>
      </trkpt>
      <trkpt lat="48.39818" lon="2.36923">
        <ele>130.8</ele>
        <time>2024-04-21T07:54:42Z</time>
      </trkpt>
      <trkpt lat="48.39818" lon="2.36896">
        <ele>130.8</ele>
        <time>2024-04-21T07:54:46Z</time>
      </trkpt>
      <trkpt lat="48.39816" lon="2.36875">
        <ele>130.2</ele>
        <time>2024-04-21T07:54:49Z</time>
      </trkpt>
      <trkpt lat="48.39815" lon="2.36862">
        <ele>129.6</ele>
        <time>2024-04-21T07:54:51Z</time>
      </trkpt>
      <trkpt lat="48.39813" lon="2.36849">
        <ele>129.4</ele>
        <time>2024-04-21T07:54:53Z</time>
      </trkpt>
      <trkpt lat="48.39813" lon="2.36814">
        <ele>129.2</ele>
        <time>2024-04-21T07:54:59Z</time>
      </trkpt>
      <trkpt lat="48.39821" lon="2.36797">
        <ele>129.4</ele>
        <time>2024-04-21T07:55:03Z</time>
      </trkpt>
      <trkpt lat="48.39831" lon="2.36801">
        <ele>130</ele>
        <time>2024-04-21T07:55:07Z</time>
      </trkpt>
      <trkpt lat="48.39838" lon="2.36816">
        <ele>130</ele>
        <time>2024-04-21T07:55:11Z</time>
      </trkpt>
      <trkpt lat="48.3984" lon="2.36826">
        <ele>130</ele>
        <time>2024-04-21T07:55:13Z</time>
      </trkpt>
      <trkpt lat="48.39842" lon="2.36834">
        <ele>130</ele>
        <time>2024-04-21T07:55:15Z</time>
      </trkpt>
      <trkpt lat="48.39849" lon="2.36849">
        <ele>129.2</ele>
        <time>2024-04-21T07:55:20Z</time>
      </trkpt>
      <trkpt lat="48.39849" lon="2.36853">
        <ele>129</ele>
        <time>2024-04-21T07:55:21Z</time>
      </trkpt>
      <trkpt lat="48.39853" lon="2.36866">
        <ele>129</ele>
        <time>2024-04-21T07:55:24Z</time>
      </trkpt>
      <trkpt lat="48.39856" lon="2.36869">
        <ele>128.8</ele>
        <time>2024-04-21T07:55:25Z</time>
      </trkpt>
      <trkpt lat="48.39867" lon="2.36886">
        <ele>128.2</ele>
        <time>2024-04-21T07:55:29Z</time>
      </trkpt>
      <trkpt lat="48.3987" lon="2.36895">
        <ele>127.2</ele>
        <time>2024-04-21T07:55:32Z</time>
      </trkpt>
      <trkpt lat="48.3987" lon="2.36898">
        <ele>126</ele>
        <time>2024-04-21T07:55:33Z</time>
      </trkpt>
      <trkpt lat="48.39871" lon="2.36901">
        <ele>125.8</ele>
        <time>2024-04-21T07:55:34Z</time>
      </trkpt>
      <trkpt lat="48.39871" lon="2.36906">
        <ele>125.6</ele>
        <time>2024-04-21T07:55:41Z</time>
      </trkpt>
      <trkpt lat="48.39873" lon="2.36908">
        <ele>126.4</ele>
        <time>2024-04-21T07:55:52Z</time>
      </trkpt>
      <trkpt lat="48.39878" lon="2.36909">
        <ele>126.4</ele>
        <time>2024-04-21T07:55:54Z</time>
      </trkpt>
      <trkpt lat="48.39886" lon="2.36922">
        <ele>126.4</ele>
        <time>2024-04-21T07:55:58Z</time>
      </trkpt>
      <trkpt lat="48.39894" lon="2.36932">
        <ele>126</ele>
        <time>2024-04-21T07:56:02Z</time>
      </trkpt>
      <trkpt lat="48.39899" lon="2.36941">
        <ele>125.2</ele>
        <time>2024-04-21T07:56:05Z</time>
      </trkpt>
      <trkpt lat="48.39903" lon="2.3695">
        <ele>125</ele>
        <time>2024-04-21T07:56:08Z</time>
      </trkpt>
      <trkpt lat="48.39912" lon="2.36961">
        <ele>125</ele>
        <time>2024-04-21T07:56:14Z</time>
      </trkpt>
      <trkpt lat="48.39924" lon="2.36963">
        <ele>125</ele>
        <time>2024-04-21T07:56:19Z</time>
      </trkpt>
      <trkpt lat="48.39926" lon="2.36963">
        <ele>125</ele>
        <time>2024-04-21T07:56:20Z</time>
      </trkpt>
      <trkpt lat="48.39933" lon="2.36965">
        <ele>125</ele>
        <time>2024-04-21T07:56:26Z</time>
      </trkpt>
      <trkpt lat="48.39934" lon="2.36967">
        <ele>124.2</ele>
        <time>2024-04-21T07:56:42Z</time>
      </trkpt>
      <trkpt lat="48.39934" lon="2.36968">
        <ele>124.2</ele>
        <time>2024-04-21T07:56:50Z</time>
      </trkpt>
      <trkpt lat="48.39934" lon="2.36968">
        <ele>124</ele>
        <time>2024-04-21T07:56:59Z</time>
      </trkpt>
      <trkpt lat="48.39935" lon="2.36969">
        <ele>124</ele>
        <time>2024-04-21T07:57:15Z</time>
      </trkpt>
      <trkpt lat="48.39935" lon="2.36969">
        <ele>123.8</ele>
        <time>2024-04-21T07:57:30Z</time>
      </trkpt>
      <trkpt lat="48.39935" lon="2.36969">
        <ele>123.8</ele>
        <time>2024-04-21T07:57:43Z</time>
      </trkpt>
      <trkpt lat="48.39942" lon="2.36966">
        <ele>123.4</ele>
        <time>2024-04-21T07:57:52Z</time>
      </trkpt>
      <trkpt lat="48.39944" lon="2.36965">
        <ele>123.4</ele>
        <time>2024-04-21T07:57:53Z</time>
      </trkpt>
      <trkpt lat="48.39951" lon="2.36961">
        <ele>123.2</ele>
        <time>2024-04-21T07:57:56Z</time>
      </trkpt>
      <trkpt lat="48.39956" lon="2.36961">
        <ele>123</ele>
        <time>2024-04-21T07:57:58Z</time>
      </trkpt>
      <trkpt lat="48.39965" lon="2.36965">
        <ele>122.4</ele>
        <time>2024-04-21T07:58:01Z</time>
      </trkpt>
      <trkpt lat="48.39968" lon="2.36968">
        <ele>122</ele>
        <time>2024-04-21T07:58:02Z</time>
      </trkpt>
      <trkpt lat="48.39971" lon="2.36972">
        <ele>120.8</ele>
        <time>2024-04-21T07:58:04Z</time>
      </trkpt>
      <trkpt lat="48.39973" lon="2.36976">
        <ele>119</ele>
        <time>2024-04-21T07:58:06Z</time>
      </trkpt>
      <trkpt lat="48.39977" lon="2.36976">
        <ele>117.2</ele>
        <time>2024-04-21T07:58:08Z</time>
      </trkpt>
      <trkpt lat="48.3998" lon="2.36975">
        <ele>116.2</ele>
        <time>2024-04-21T07:58:09Z</time>
      </trkpt>
      <trkpt lat="48.39981" lon="2.36974">
        <ele>115.6</ele>
        <time>2024-04-21T07:58:10Z</time>
      </trkpt>
      <trkpt lat="48.39983" lon="2.36973">
        <ele>115.2</ele>
        <time>2024-04-21T07:58:11Z</time>
      </trkpt>
      <trkpt lat="48.39984" lon="2.3697">
        <ele>114.8</ele>
        <time>2024-04-21T07:58:13Z</time>
      </trkpt>
      <trkpt lat="48.39984" lon="2.36968">
        <ele>114.8</ele>
        <time>2024-04-21T07:58:14Z</time>
      </trkpt>
      <trkpt lat="48.39982" lon="2.36963">
        <ele>113.8</ele>
        <time>2024-04-21T07:58:17Z</time>
      </trkpt>
      <trkpt lat="48.3998" lon="2.36961">
        <ele>112.8</ele>
        <time>2024-04-21T07:58:19Z</time>
      </trkpt>
      <trkpt lat="48.3998" lon="2.3696">
        <ele>112.4</ele>
        <time>2024-04-21T07:58:20Z</time>
      </trkpt>
      <trkpt lat="48.39979" lon="2.36957">
        <ele>112.2</ele>
        <time>2024-04-21T07:58:26Z</time>
      </trkpt>
      <trkpt lat="48.39975" lon="2.36958">
        <ele>112.2</ele>
        <time>2024-04-21T07:58:44Z</time>
      </trkpt>
      <trkpt lat="48.39973" lon="2.36957">
        <ele>112.2</ele>
        <time>2024-04-21T07:58:56Z</time>
      </trkpt>
      <trkpt lat="48.39964" lon="2.36948">
        <ele>112.2</ele>
        <time>2024-04-21T07:59:03Z</time>
      </trkpt>
      <trkpt lat="48.39952" lon="2.36936">
        <ele>112.2</ele>
        <time>2024-04-21T07:59:09Z</time>
      </trkpt>
      <trkpt lat="48.3994" lon="2.36927">
        <ele>112.6</ele>
        <time>2024-04-21T07:59:15Z</time>
      </trkpt>
      <trkpt lat="48.39928" lon="2.36913">
        <ele>113</ele>
        <time>2024-04-21T07:59:22Z</time>
      </trkpt>
      <trkpt lat="48.39927" lon="2.3691">
        <ele>113</ele>
        <time>2024-04-21T07:59:23Z</time>
      </trkpt>
      <trkpt lat="48.39922" lon="2.369">
        <ele>113.4</ele>
        <time>2024-04-21T07:59:27Z</time>
      </trkpt>
      <trkpt lat="48.39916" lon="2.36895">
        <ele>113.6</ele>
        <time>2024-04-21T07:59:30Z</time>
      </trkpt>
      <trkpt lat="48.39909" lon="2.36888">
        <ele>114</ele>
        <time>2024-04-21T07:59:34Z</time>
      </trkpt>
      <trkpt lat="48.39901" lon="2.36873">
        <ele>114.6</ele>
        <time>2024-04-21T07:59:40Z</time>
      </trkpt>
      <trkpt lat="48.39892" lon="2.36858">
        <ele>115</ele>
        <time>2024-04-21T07:59:46Z</time>
      </trkpt>
      <trkpt lat="48.39886" lon="2.36849">
        <ele>115.6</ele>
        <time>2024-04-21T07:59:50Z</time>
      </trkpt>
      <trkpt lat="48.39885" lon="2.36843">
        <ele>115.8</ele>
        <time>2024-04-21T07:59:52Z</time>
      </trkpt>
      <trkpt lat="48.39883" lon="2.36838">
        <ele>116.2</ele>
        <time>2024-04-21T07:59:54Z</time>
      </trkpt>
      <trkpt lat="48.39882" lon="2.36827">
        <ele>116.4</ele>
        <time>2024-04-21T07:59:57Z</time>
      </trkpt>
      <trkpt lat="48.39879" lon="2.36815">
        <ele>116.6</ele>
        <time>2024-04-21T08:00:00Z</time>
      </trkpt>
      <trkpt lat="48.39878" lon="2.368">
        <ele>117.2</ele>
        <time>2024-04-21T08:00:04Z</time>
      </trkpt>
      <trkpt lat="48.39875" lon="2.36774">
        <ele>117.4</ele>
        <time>2024-04-21T08:00:10Z</time>
      </trkpt>
      <trkpt lat="48.39872" lon="2.36749">
        <ele>117.8</ele>
        <time>2024-04-21T08:00:16Z</time>
      </trkpt>
      <trkpt lat="48.39871" lon="2.36741">
        <ele>118</ele>
        <time>2024-04-21T08:00:18Z</time>
      </trkpt>
      <trkpt lat="48.39868" lon="2.36713">
        <ele>118.6</ele>
        <time>2024-04-21T08:00:24Z</time>
      </trkpt>
      <trkpt lat="48.39866" lon="2.36703">
        <ele>118.8</ele>
        <time>2024-04-21T08:00:26Z</time>
      </trkpt>
      <trkpt lat="48.39864" lon="2.36688">
        <ele>119.4</ele>
        <time>2024-04-21T08:00:29Z</time>
      </trkpt>
      <trkpt lat="48.3986" lon="2.36655">
        <ele>119.8</ele>
        <time>2024-04-21T08:00:35Z</time>
      </trkpt>
      <trkpt lat="48.39854" lon="2.36625">
        <ele>120.6</ele>
        <time>2024-04-21T08:00:41Z</time>
      </trkpt>
      <trkpt lat="48.39853" lon="2.36611">
        <ele>121</ele>
        <time>2024-04-21T08:00:44Z</time>
      </trkpt>
      <trkpt lat="48.39852" lon="2.36597">
        <ele>121.2</ele>
        <time>2024-04-21T08:00:47Z</time>
      </trkpt>
      <trkpt lat="48.39851" lon="2.36568">
        <ele>121.8</ele>
        <time>2024-04-21T08:00:53Z</time>
      </trkpt>
      <trkpt lat="48.3985" lon="2.36564">
        <ele>122</ele>
        <time>2024-04-21T08:00:54Z</time>
      </trkpt>
      <trkpt lat="48.39847" lon="2.36544">
        <ele>123</ele>
        <time>2024-04-21T08:00:59Z</time>
      </trkpt>
      <trkpt lat="48.39847" lon="2.36539">
        <ele>123</ele>
        <time>2024-04-21T08:01:00Z</time>
      </trkpt>
      <trkpt lat="48.39845" lon="2.36521">
        <ele>123.8</ele>
        <time>2024-04-21T08:01:04Z</time>
      </trkpt>
      <trkpt lat="48.39845" lon="2.36516">
        <ele>124</ele>
        <time>2024-04-21T08:01:05Z</time>
      </trkpt>
      <trkpt lat="48.3984" lon="2.36491">
        <ele>124.8</ele>
        <time>2024-04-21T08:01:11Z</time>
      </trkpt>
      <trkpt lat="48.39834" lon="2.36458">
        <ele>125.2</ele>
        <time>2024-04-21T08:01:18Z</time>
      </trkpt>
      <trkpt lat="48.3983" lon="2.36426">
        <ele>126.2</ele>
        <time>2024-04-21T08:01:25Z</time>
      </trkpt>
      <trkpt lat="48.39829" lon="2.36421">
        <ele>126.4</ele>
        <time>2024-04-21T08:01:26Z</time>
      </trkpt>
      <trkpt lat="48.39824" lon="2.36396">
        <ele>126.6</ele>
        <time>2024-04-21T08:01:31Z</time>
      </trkpt>
      <trkpt lat="48.39815" lon="2.36365">
        <ele>127.2</ele>
        <time>2024-04-21T08:01:37Z</time>
      </trkpt>
      <trkpt lat="48.39812" lon="2.36354">
        <ele>127.4</ele>
        <time>2024-04-21T08:01:39Z</time>
      </trkpt>
      <trkpt lat="48.39811" lon="2.36345">
        <ele>127.8</ele>
        <time>2024-04-21T08:01:41Z</time>
      </trkpt>
      <trkpt lat="48.39813" lon="2.36343">
        <ele>128</ele>
        <time>2024-04-21T08:01:42Z</time>
      </trkpt>
      <trkpt lat="48.39819" lon="2.36343">
        <ele>128.6</ele>
        <time>2024-04-21T08:01:45Z</time>
      </trkpt>
      <trkpt lat="48.3982" lon="2.36341">
        <ele>128.8</ele>
        <time>2024-04-21T08:01:46Z</time>
      </trkpt>
      <trkpt lat="48.39822" lon="2.36337">
        <ele>129.2</ele>
        <time>2024-04-21T08:01:50Z</time>
      </trkpt>
      <trkpt lat="48.39822" lon="2.36336">
        <ele>130</ele>
        <time>2024-04-21T08:01:53Z</time>
      </trkpt>
      <trkpt lat="48.39821" lon="2.36338">
        <ele>131.2</ele>
        <time>2024-04-21T08:01:56Z</time>
      </trkpt>
      <trkpt lat="48.39822" lon="2.3634">
        <ele>131.4</ele>
        <time>2024-04-21T08:01:58Z</time>
      </trkpt>
      <trkpt lat="48.39822" lon="2.36342">
        <ele>131.4</ele>
        <time>2024-04-21T08:01:59Z</time>
      </trkpt>
      <trkpt lat="48.39823" lon="2.36348">
        <ele>131.4</ele>
        <time>2024-04-21T08:02:02Z</time>
      </trkpt>
      <trkpt lat="48.39826" lon="2.36356">
        <ele>131.6</ele>
        <time>2024-04-21T08:02:07Z</time>
      </trkpt>
      <trkpt lat="48.39831" lon="2.36362">
        <ele>131.4</ele>
        <time>2024-04-21T08:02:15Z</time>
      </trkpt>
      <trkpt lat="48.39833" lon="2.36377">
        <ele>131.4</ele>
        <time>2024-04-21T08:02:19Z</time>
      </trkpt>
      <trkpt lat="48.39834" lon="2.36403">
        <ele>131</ele>
        <time>2024-04-21T08:02:26Z</time>
      </trkpt>
      <trkpt lat="48.39839" lon="2.36429">
        <ele>130.6</ele>
        <time>2024-04-21T08:02:32Z</time>
      </trkpt>
      <trkpt lat="48.3984" lon="2.36449">
        <ele>130.6</ele>
        <time>2024-04-21T08:02:37Z</time>
      </trkpt>
      <trkpt lat="48.39843" lon="2.36475">
        <ele>130.4</ele>
        <time>2024-04-21T08:02:43Z</time>
      </trkpt>
      <trkpt lat="48.39852" lon="2.36496">
        <ele>130.2</ele>
        <time>2024-04-21T08:02:48Z</time>
      </trkpt>
      <trkpt lat="48.39866" lon="2.36507">
        <ele>129.6</ele>
        <time>2024-04-21T08:02:52Z</time>
      </trkpt>
      <trkpt lat="48.39872" lon="2.36511">
        <ele>129.2</ele>
        <time>2024-04-21T08:02:54Z</time>
      </trkpt>
      <trkpt lat="48.39874" lon="2.36515">
        <ele>128.8</ele>
        <time>2024-04-21T08:02:55Z</time>
      </trkpt>
      <trkpt lat="48.39875" lon="2.36518">
        <ele>128.4</ele>
        <time>2024-04-21T08:02:56Z</time>
      </trkpt>
      <trkpt lat="48.39878" lon="2.3652">
        <ele>127.6</ele>
        <time>2024-04-21T08:02:58Z</time>
      </trkpt>
      <trkpt lat="48.39882" lon="2.36523">
        <ele>126.8</ele>
        <time>2024-04-21T08:03:00Z</time>
      </trkpt>
      <trkpt lat="48.39883" lon="2.36523">
        <ele>126.4</ele>
        <time>2024-04-21T08:03:01Z</time>
      </trkpt>
      <trkpt lat="48.39885" lon="2.36529">
        <ele>125.4</ele>
        <time>2024-04-21T08:03:05Z</time>
      </trkpt>
      <trkpt lat="48.39891" lon="2.36532">
        <ele>125.2</ele>
        <time>2024-04-21T08:03:07Z</time>
      </trkpt>
      <trkpt lat="48.39904" lon="2.36544">
        <ele>124.8</ele>
        <time>2024-04-21T08:03:11Z</time>
      </trkpt>
      <trkpt lat="48.39905" lon="2.36554">
        <ele>124</ele>
        <time>2024-04-21T08:03:13Z</time>
      </trkpt>
      <trkpt lat="48.39906" lon="2.36561">
        <ele>122.6</ele>
        <time>2024-04-21T08:03:15Z</time>
      </trkpt>
      <trkpt lat="48.39907" lon="2.36564">
        <ele>121.4</ele>
        <time>2024-04-21T08:03:16Z</time>
      </trkpt>
      <trkpt lat="48.39909" lon="2.36569">
        <ele>120.4</ele>
        <time>2024-04-21T08:03:18Z</time>
      </trkpt>
      <trkpt lat="48.39913" lon="2.36576">
        <ele>120</ele>
        <time>2024-04-21T08:03:20Z</time>
      </trkpt>
      <trkpt lat="48.39914" lon="2.36579">
        <ele>119.8</ele>
        <time>2024-04-21T08:03:21Z</time>
      </trkpt>
      <trkpt lat="48.39921" lon="2.36582">
        <ele>119.2</ele>
        <time>2024-04-21T08:03:23Z</time>
      </trkpt>
      <trkpt lat="48.39925" lon="2.36582">
        <ele>119</ele>
        <time>2024-04-21T08:03:24Z</time>
      </trkpt>
      <trkpt lat="48.3993" lon="2.36578">
        <ele>118</ele>
        <time>2024-04-21T08:03:28Z</time>
      </trkpt>
      <trkpt lat="48.39933" lon="2.36578">
        <ele>117.6</ele>
        <time>2024-04-21T08:03:29Z</time>
      </trkpt>
      <trkpt lat="48.39942" lon="2.36576">
        <ele>116.8</ele>
        <time>2024-04-21T08:03:33Z</time>
      </trkpt>
      <trkpt lat="48.39945" lon="2.36575">
        <ele>116.6</ele>
        <time>2024-04-21T08:03:34Z</time>
      </trkpt>
      <trkpt lat="48.39953" lon="2.36577">
        <ele>115.6</ele>
        <time>2024-04-21T08:03:39Z</time>
      </trkpt>
      <trkpt lat="48.39955" lon="2.36576">
        <ele>115.2</ele>
        <time>2024-04-21T08:03:40Z</time>
      </trkpt>
      <trkpt lat="48.39959" lon="2.36574">
        <ele>114.4</ele>
        <time>2024-04-21T08:03:42Z</time>
      </trkpt>
      <trkpt lat="48.39964" lon="2.36575">
        <ele>114</ele>
        <time>2024-04-21T08:03:43Z</time>
      </trkpt>
      <trkpt lat="48.39973" lon="2.3658">
        <ele>113.2</ele>
        <time>2024-04-21T08:03:45Z</time>
      </trkpt>
      <trkpt lat="48.3998" lon="2.36587">
        <ele>112.8</ele>
        <time>2024-04-21T08:03:47Z</time>
      </trkpt>
      <trkpt lat="48.39992" lon="2.36598">
        <ele>111.8</ele>
        <time>2024-04-21T08:03:50Z</time>
      </trkpt>
      <trkpt lat="48.39999" lon="2.36607">
        <ele>109.8</ele>
        <time>2024-04-21T08:03:52Z</time>
      </trkpt>
      <trkpt lat="48.40003" lon="2.3661">
        <ele>108.8</ele>
        <time>2024-04-21T08:03:53Z</time>
      </trkpt>
      <trkpt lat="48.40007" lon="2.36611">
        <ele>107.6</ele>
        <time>2024-04-21T08:03:54Z</time>
      </trkpt>
      <trkpt lat="48.40012" lon="2.3661">
        <ele>107.2</ele>
        <time>2024-04-21T08:03:55Z</time>
      </trkpt>
      <trkpt lat="48.40017" lon="2.3661">
        <ele>106.4</ele>
        <time>2024-04-21T08:03:56Z</time>
      </trkpt>
      <trkpt lat="48.40027" lon="2.36614">
        <ele>104.8</ele>
        <time>2024-04-21T08:03:58Z</time>
      </trkpt>
      <trkpt lat="48.40031" lon="2.36617">
        <ele>103.8</ele>
        <time>2024-04-21T08:03:59Z</time>
      </trkpt>
      <trkpt lat="48.40033" lon="2.36621">
        <ele>102.8</ele>
        <time>2024-04-21T08:04:00Z</time>
      </trkpt>
      <trkpt lat="48.40036" lon="2.36631">
        <ele>101.2</ele>
        <time>2024-04-21T08:04:02Z</time>
      </trkpt>
      <trkpt lat="48.40039" lon="2.36645">
        <ele>99.4</ele>
        <time>2024-04-21T08:04:05Z</time>
      </trkpt>
      <trkpt lat="48.40041" lon="2.36661">
        <ele>98.2</ele>
        <time>2024-04-21T08:04:08Z</time>
      </trkpt>
      <trkpt lat="48.40043" lon="2.36671">
        <ele>97.8</ele>
        <time>2024-04-21T08:04:10Z</time>
      </trkpt>
      <trkpt lat="48.40047" lon="2.36688">
        <ele>97.2</ele>
        <time>2024-04-21T08:04:13Z</time>
      </trkpt>
      <trkpt lat="48.40053" lon="2.36717">
        <ele>96.4</ele>
        <time>2024-04-21T08:04:18Z</time>
      </trkpt>
      <trkpt lat="48.40061" lon="2.36744">
        <ele>95.6</ele>
        <time>2024-04-21T08:04:23Z</time>
      </trkpt>
      <trkpt lat="48.40068" lon="2.36767">
        <ele>94.8</ele>
        <time>2024-04-21T08:04:27Z</time>
      </trkpt>
      <trkpt lat="48.40073" lon="2.36785">
        <ele>94.4</ele>
        <time>2024-04-21T08:04:30Z</time>
      </trkpt>
      <trkpt lat="48.40081" lon="2.36808">
        <ele>93.4</ele>
        <time>2024-04-21T08:04:34Z</time>
      </trkpt>
      <trkpt lat="48.40083" lon="2.36813">
        <ele>93</ele>
        <time>2024-04-21T08:04:35Z</time>
      </trkpt>
      <trkpt lat="48.40089" lon="2.36831">
        <ele>92.2</ele>
        <time>2024-04-21T08:04:38Z</time>
      </trkpt>
      <trkpt lat="48.40093" lon="2.36843">
        <ele>91.6</ele>
        <time>2024-04-21T08:04:40Z</time>
      </trkpt>
      <trkpt lat="48.40094" lon="2.36849">
        <ele>91.2</ele>
        <time>2024-04-21T08:04:41Z</time>
      </trkpt>
      <trkpt lat="48.40099" lon="2.36874">
        <ele>90.6</ele>
        <time>2024-04-21T08:04:45Z</time>
      </trkpt>
      <trkpt lat="48.40102" lon="2.36894">
        <ele>90.2</ele>
        <time>2024-04-21T08:04:48Z</time>
      </trkpt>
      <trkpt lat="48.40112" lon="2.36949">
        <ele>89.4</ele>
        <time>2024-04-21T08:04:56Z</time>
      </trkpt>
      <trkpt lat="48.4012" lon="2.36992">
        <ele>89.2</ele>
        <time>2024-04-21T08:05:02Z</time>
      </trkpt>
      <trkpt lat="48.40123" lon="2.37004">
        <ele>88.8</ele>
        <time>2024-04-21T08:05:04Z</time>
      </trkpt>
      <trkpt lat="48.40133" lon="2.37028">
        <ele>88.2</ele>
        <time>2024-04-21T08:05:08Z</time>
      </trkpt>
      <trkpt lat="48.40141" lon="2.37045">
        <ele>87</ele>
        <time>2024-04-21T08:05:11Z</time>
      </trkpt>
      <trkpt lat="48.40157" lon="2.3708">
        <ele>86</ele>
        <time>2024-04-21T08:05:17Z</time>
      </trkpt>
      <trkpt lat="48.40162" lon="2.37092">
        <ele>85.4</ele>
        <time>2024-04-21T08:05:19Z</time>
      </trkpt>
      <trkpt lat="48.40168" lon="2.37104">
        <ele>84.6</ele>
        <time>2024-04-21T08:05:21Z</time>
      </trkpt>
      <trkpt lat="48.40171" lon="2.37109">
        <ele>84.4</ele>
        <time>2024-04-21T08:05:22Z</time>
      </trkpt>
      <trkpt lat="48.40182" lon="2.37122">
        <ele>84.2</ele>
        <time>2024-04-21T08:05:25Z</time>
      </trkpt>
      <trkpt lat="48.40201" lon="2.37154">
        <ele>83.8</ele>
        <time>2024-04-21T08:05:31Z</time>
      </trkpt>
      <trkpt lat="48.40228" lon="2.37209">
        <ele>83.4</ele>
        <time>2024-04-21T08:05:40Z</time>
      </trkpt>
      <trkpt lat="48.40247" lon="2.37253">
        <ele>82.6</ele>
        <time>2024-04-21T08:05:47Z</time>
      </trkpt>
      <trkpt lat="48.40256" lon="2.37279">
        <ele>82</ele>
        <time>2024-04-21T08:05:51Z</time>
      </trkpt>
      <trkpt lat="48.4026" lon="2.37285">
        <ele>82</ele>
        <time>2024-04-21T08:05:52Z</time>
      </trkpt>
      <trkpt lat="48.40263" lon="2.37292">
        <ele>81.8</ele>
        <time>2024-04-21T08:05:53Z</time>
      </trkpt>
      <trkpt lat="48.40283" lon="2.37329">
        <ele>81.4</ele>
        <time>2024-04-21T08:05:59Z</time>
      </trkpt>
      <trkpt lat="48.40286" lon="2.37335">
        <ele>81</ele>
        <time>2024-04-21T08:06:00Z</time>
      </trkpt>
      <trkpt lat="48.40291" lon="2.37349">
        <ele>79.8</ele>
        <time>2024-04-21T08:06:02Z</time>
      </trkpt>
      <trkpt lat="48.40298" lon="2.37371">
        <ele>79</ele>
        <time>2024-04-21T08:06:05Z</time>
      </trkpt>
      <trkpt lat="48.40302" lon="2.37385">
        <ele>78.8</ele>
        <time>2024-04-21T08:06:07Z</time>
      </trkpt>
      <trkpt lat="48.4031" lon="2.3741">
        <ele>77.8</ele>
        <time>2024-04-21T08:06:11Z</time>
      </trkpt>
      <trkpt lat="48.40313" lon="2.37414">
        <ele>77.8</ele>
        <time>2024-04-21T08:06:12Z</time>
      </trkpt>
      <trkpt lat="48.40317" lon="2.37415">
        <ele>77.8</ele>
        <time>2024-04-21T08:06:13Z</time>
      </trkpt>
      <trkpt lat="48.40321" lon="2.37416">
        <ele>77.8</ele>
        <time>2024-04-21T08:06:14Z</time>
      </trkpt>
      <trkpt lat="48.40342" lon="2.37415">
        <ele>77.4</ele>
        <time>2024-04-21T08:06:20Z</time>
      </trkpt>
      <trkpt lat="48.4035" lon="2.37419">
        <ele>76.6</ele>
        <time>2024-04-21T08:06:22Z</time>
      </trkpt>
      <trkpt lat="48.40356" lon="2.37427">
        <ele>76.4</ele>
        <time>2024-04-21T08:06:24Z</time>
      </trkpt>
      <trkpt lat="48.40364" lon="2.37451">
        <ele>76.2</ele>
        <time>2024-04-21T08:06:28Z</time>
      </trkpt>
      <trkpt lat="48.40364" lon="2.37458">
        <ele>76.2</ele>
        <time>2024-04-21T08:06:29Z</time>
      </trkpt>
      <trkpt lat="48.40364" lon="2.37464">
        <ele>76.2</ele>
        <time>2024-04-21T08:06:30Z</time>
      </trkpt>
      <trkpt lat="48.40363" lon="2.37477">
        <ele>76</ele>
        <time>2024-04-21T08:06:32Z</time>
      </trkpt>
      <trkpt lat="48.40362" lon="2.37483">
        <ele>76</ele>
        <time>2024-04-21T08:06:33Z</time>
      </trkpt>
      <trkpt lat="48.40356" lon="2.37521">
        <ele>76</ele>
        <time>2024-04-21T08:06:39Z</time>
      </trkpt>
      <trkpt lat="48.40354" lon="2.37535">
        <ele>76</ele>
        <time>2024-04-21T08:06:41Z</time>
      </trkpt>
      <trkpt lat="48.40354" lon="2.37565">
        <ele>75.8</ele>
        <time>2024-04-21T08:06:45Z</time>
      </trkpt>
      <trkpt lat="48.40356" lon="2.37579">
        <ele>75.6</ele>
        <time>2024-04-21T08:06:47Z</time>
      </trkpt>
      <trkpt lat="48.40356" lon="2.37587">
        <ele>75.4</ele>
        <time>2024-04-21T08:06:48Z</time>
      </trkpt>
      <trkpt lat="48.40354" lon="2.37601">
        <ele>74.8</ele>
        <time>2024-04-21T08:06:50Z</time>
      </trkpt>
      <trkpt lat="48.40346" lon="2.37637">
        <ele>74.2</ele>
        <time>2024-04-21T08:06:55Z</time>
      </trkpt>
      <trkpt lat="48.40342" lon="2.37659">
        <ele>73.8</ele>
        <time>2024-04-21T08:06:58Z</time>
      </trkpt>
      <trkpt lat="48.40337" lon="2.37679">
        <ele>73.4</ele>
        <time>2024-04-21T08:07:01Z</time>
      </trkpt>
      <trkpt lat="48.40334" lon="2.37693">
        <ele>73.2</ele>
        <time>2024-04-21T08:07:03Z</time>
      </trkpt>
      <trkpt lat="48.40332" lon="2.37699">
        <ele>73.2</ele>
        <time>2024-04-21T08:07:04Z</time>
      </trkpt>
      <trkpt lat="48.40327" lon="2.37711">
        <ele>73.2</ele>
        <time>2024-04-21T08:07:06Z</time>
      </trkpt>
      <trkpt lat="48.40318" lon="2.37727">
        <ele>73.2</ele>
        <time>2024-04-21T08:07:09Z</time>
      </trkpt>
      <trkpt lat="48.40315" lon="2.37732">
        <ele>73.2</ele>
        <time>2024-04-21T08:07:10Z</time>
      </trkpt>
      <trkpt lat="48.403" lon="2.37755">
        <ele>73</ele>
        <time>2024-04-21T08:07:15Z</time>
      </trkpt>
      <trkpt lat="48.40278" lon="2.37788">
        <ele>73.4</ele>
        <time>2024-04-21T08:07:21Z</time>
      </trkpt>
      <trkpt lat="48.40258" lon="2.37827">
        <ele>73.6</ele>
        <time>2024-04-21T08:07:28Z</time>
      </trkpt>
      <trkpt lat="48.40253" lon="2.37838">
        <ele>73.6</ele>
        <time>2024-04-21T08:07:33Z</time>
      </trkpt>
      <trkpt lat="48.40252" lon="2.37842">
        <ele>73.6</ele>
        <time>2024-04-21T08:07:43Z</time>
      </trkpt>
      <trkpt lat="48.4025" lon="2.37858">
        <ele>73.6</ele>
        <time>2024-04-21T08:07:47Z</time>
      </trkpt>
      <trkpt lat="48.40254" lon="2.37874">
        <ele>73.4</ele>
        <time>2024-04-21T08:07:50Z</time>
      </trkpt>
      <trkpt lat="48.40256" lon="2.37878">
        <ele>73.4</ele>
        <time>2024-04-21T08:07:51Z</time>
      </trkpt>
      <trkpt lat="48.40263" lon="2.37893">
        <ele>73</ele>
        <time>2024-04-21T08:07:54Z</time>
      </trkpt>
      <trkpt lat="48.40262" lon="2.37907">
        <ele>72.6</ele>
        <time>2024-04-21T08:07:56Z</time>
      </trkpt>
      <trkpt lat="48.40261" lon="2.37913">
        <ele>72</ele>
        <time>2024-04-21T08:07:57Z</time>
      </trkpt>
      <trkpt lat="48.4026" lon="2.37919">
        <ele>71.6</ele>
        <time>2024-04-21T08:07:58Z</time>
      </trkpt>
      <trkpt lat="48.40255" lon="2.37939">
        <ele>71.2</ele>
        <time>2024-04-21T08:08:01Z</time>
      </trkpt>
      <trkpt lat="48.40251" lon="2.37953">
        <ele>71</ele>
        <time>2024-04-21T08:08:03Z</time>
      </trkpt>
      <trkpt lat="48.40238" lon="2.38004">
        <ele>70.6</ele>
        <time>2024-04-21T08:08:10Z</time>
      </trkpt>
      <trkpt lat="48.40234" lon="2.3802">
        <ele>70.4</ele>
        <time>2024-04-21T08:08:12Z</time>
      </trkpt>
      <trkpt lat="48.40228" lon="2.38044">
        <ele>70.4</ele>
        <time>2024-04-21T08:08:15Z</time>
      </trkpt>
      <trkpt lat="48.40226" lon="2.38051">
        <ele>70.2</ele>
        <time>2024-04-21T08:08:16Z</time>
      </trkpt>
      <trkpt lat="48.40217" lon="2.38089">
        <ele>70</ele>
        <time>2024-04-21T08:08:21Z</time>
      </trkpt>
      <trkpt lat="48.40206" lon="2.38128">
        <ele>69.6</ele>
        <time>2024-04-21T08:08:27Z</time>
      </trkpt>
      <trkpt lat="48.40203" lon="2.38133">
        <ele>69.6</ele>
        <time>2024-04-21T08:08:28Z</time>
      </trkpt>
      <trkpt lat="48.40195" lon="2.38139">
        <ele>69.6</ele>
        <time>2024-04-21T08:08:30Z</time>
      </trkpt>
      <trkpt lat="48.40179" lon="2.38137">
        <ele>69.4</ele>
        <time>2024-04-21T08:08:33Z</time>
      </trkpt>
      <trkpt lat="48.40174" lon="2.38136">
        <ele>69.4</ele>
        <time>2024-04-21T08:08:34Z</time>
      </trkpt>
      <trkpt lat="48.40132" lon="2.38127">
        <ele>69.4</ele>
        <time>2024-04-21T08:08:42Z</time>
      </trkpt>
      <trkpt lat="48.40121" lon="2.38124">
        <ele>69.2</ele>
        <time>2024-04-21T08:08:44Z</time>
      </trkpt>
      <trkpt lat="48.40088" lon="2.38117">
        <ele>68.6</ele>
        <time>2024-04-21T08:08:50Z</time>
      </trkpt>
      <trkpt lat="48.40065" lon="2.38111">
        <ele>68.2</ele>
        <time>2024-04-21T08:08:54Z</time>
      </trkpt>
      <trkpt lat="48.40032" lon="2.38103">
        <ele>68</ele>
        <time>2024-04-21T08:09:00Z</time>
      </trkpt>
      <trkpt lat="48.39983" lon="2.38096">
        <ele>68.4</ele>
        <time>2024-04-21T08:09:09Z</time>
      </trkpt>
      <trkpt lat="48.39948" lon="2.3809">
        <ele>69.2</ele>
        <time>2024-04-21T08:09:16Z</time>
      </trkpt>
      <trkpt lat="48.39915" lon="2.38088">
        <ele>69.8</ele>
        <time>2024-04-21T08:09:23Z</time>
      </trkpt>
      <trkpt lat="48.39892" lon="2.38092">
        <ele>70.4</ele>
        <time>2024-04-21T08:09:28Z</time>
      </trkpt>
      <trkpt lat="48.39887" lon="2.38094">
        <ele>70.4</ele>
        <time>2024-04-21T08:09:29Z</time>
      </trkpt>
      <trkpt lat="48.39867" lon="2.38102">
        <ele>70.6</ele>
        <time>2024-04-21T08:09:33Z</time>
      </trkpt>
      <trkpt lat="48.3985" lon="2.38106">
        <ele>70.6</ele>
        <time>2024-04-21T08:09:36Z</time>
      </trkpt>
      <trkpt lat="48.39814" lon="2.38111">
        <ele>70.4</ele>
        <time>2024-04-21T08:09:43Z</time>
      </trkpt>
      <trkpt lat="48.39804" lon="2.3811">
        <ele>70.4</ele>
        <time>2024-04-21T08:09:45Z</time>
      </trkpt>
      <trkpt lat="48.39794" lon="2.38106">
        <ele>70.2</ele>
        <time>2024-04-21T08:09:47Z</time>
      </trkpt>
      <trkpt lat="48.3979" lon="2.38103">
        <ele>70.2</ele>
        <time>2024-04-21T08:09:48Z</time>
      </trkpt>
      <trkpt lat="48.39763" lon="2.38077">
        <ele>70</ele>
        <time>2024-04-21T08:09:54Z</time>
      </trkpt>
      <trkpt lat="48.39759" lon="2.38072">
        <ele>69.8</ele>
        <time>2024-04-21T08:09:55Z</time>
      </trkpt>
      <trkpt lat="48.39728" lon="2.38041">
        <ele>69.2</ele>
        <time>2024-04-21T08:10:02Z</time>
      </trkpt>
      <trkpt lat="48.39719" lon="2.38033">
        <ele>69.2</ele>
        <time>2024-04-21T08:10:04Z</time>
      </trkpt>
      <trkpt lat="48.39692" lon="2.3801">
        <ele>68.6</ele>
        <time>2024-04-21T08:10:10Z</time>
      </trkpt>
      <trkpt lat="48.39688" lon="2.38005">
        <ele>68.6</ele>
        <time>2024-04-21T08:10:11Z</time>
      </trkpt>
      <trkpt lat="48.3966" lon="2.37983">
        <ele>68.4</ele>
        <time>2024-04-21T08:10:18Z</time>
      </trkpt>
      <trkpt lat="48.39656" lon="2.37985">
        <ele>68.4</ele>
        <time>2024-04-21T08:10:19Z</time>
      </trkpt>
      <trkpt lat="48.39655" lon="2.3799">
        <ele>68.4</ele>
        <time>2024-04-21T08:10:20Z</time>
      </trkpt>
      <trkpt lat="48.39653" lon="2.38003">
        <ele>68.2</ele>
        <time>2024-04-21T08:10:22Z</time>
      </trkpt>
      <trkpt lat="48.39652" lon="2.38024">
        <ele>68.2</ele>
        <time>2024-04-21T08:10:25Z</time>
      </trkpt>
      <trkpt lat="48.39647" lon="2.38084">
        <ele>68</ele>
        <time>2024-04-21T08:10:33Z</time>
      </trkpt>
      <trkpt lat="48.39645" lon="2.38117">
        <ele>67.2</ele>
        <time>2024-04-21T08:10:37Z</time>
      </trkpt>
      <trkpt lat="48.39643" lon="2.38148">
        <ele>66.4</ele>
        <time>2024-04-21T08:10:41Z</time>
      </trkpt>
      <trkpt lat="48.39643" lon="2.38163">
        <ele>66.2</ele>
        <time>2024-04-21T08:10:43Z</time>
      </trkpt>
      <trkpt lat="48.3964" lon="2.38201">
        <ele>65.2</ele>
        <time>2024-04-21T08:10:49Z</time>
      </trkpt>
      <trkpt lat="48.39639" lon="2.3822">
        <ele>65.2</ele>
        <time>2024-04-21T08:10:53Z</time>
      </trkpt>
      <trkpt lat="48.39639" lon="2.38236">
        <ele>65.2</ele>
        <time>2024-04-21T08:10:56Z</time>
      </trkpt>
      <trkpt lat="48.39636" lon="2.38278">
        <ele>65.4</ele>
        <time>2024-04-21T08:11:04Z</time>
      </trkpt>
      <trkpt lat="48.39636" lon="2.38317">
        <ele>65.4</ele>
        <time>2024-04-21T08:11:11Z</time>
      </trkpt>
      <trkpt lat="48.39634" lon="2.38342">
        <ele>65.4</ele>
        <time>2024-04-21T08:11:16Z</time>
      </trkpt>
      <trkpt lat="48.39622" lon="2.38344">
        <ele>65.2</ele>
        <time>2024-04-21T08:11:19Z</time>
      </trkpt>
      <trkpt lat="48.39609" lon="2.38345">
        <ele>65.2</ele>
        <time>2024-04-21T08:11:22Z</time>
      </trkpt>
      <trkpt lat="48.39595" lon="2.38348">
        <ele>65</ele>
        <time>2024-04-21T08:11:25Z</time>
      </trkpt>
      <trkpt lat="48.39566" lon="2.38353">
        <ele>64.8</ele>
        <time>2024-04-21T08:11:31Z</time>
      </trkpt>
      <trkpt lat="48.39539" lon="2.38357">
        <ele>64.8</ele>
        <time>2024-04-21T08:11:37Z</time>
      </trkpt>
      <trkpt lat="48.39495" lon="2.38365">
        <ele>65</ele>
        <time>2024-04-21T08:11:47Z</time>
      </trkpt>
      <trkpt lat="48.39477" lon="2.38361">
        <ele>65.2</ele>
        <time>2024-04-21T08:11:52Z</time>
      </trkpt>
      <trkpt lat="48.39467" lon="2.38345">
        <ele>65.2</ele>
        <time>2024-04-21T08:11:56Z</time>
      </trkpt>
      <trkpt lat="48.39449" lon="2.38321">
        <ele>65.6</ele>
        <time>2024-04-21T08:12:02Z</time>
      </trkpt>
      <trkpt lat="48.39445" lon="2.38316">
        <ele>65.8</ele>
        <time>2024-04-21T08:12:04Z</time>
      </trkpt>
      <trkpt lat="48.3944" lon="2.38319">
        <ele>65.8</ele>
        <time>2024-04-21T08:12:06Z</time>
      </trkpt>
      <trkpt lat="48.39438" lon="2.38333">
        <ele>66</ele>
        <time>2024-04-21T08:12:10Z</time>
      </trkpt>
      <trkpt lat="48.39439" lon="2.38343">
        <ele>66</ele>
        <time>2024-04-21T08:12:13Z</time>
      </trkpt>
      <trkpt lat="48.39437" lon="2.38351">
        <ele>66.2</ele>
        <time>2024-04-21T08:12:16Z</time>
      </trkpt>
      <trkpt lat="48.39437" lon="2.38364">
        <ele>66.4</ele>
        <time>2024-04-21T08:12:20Z</time>
      </trkpt>
      <trkpt lat="48.39437" lon="2.38369">
        <ele>66.4</ele>
        <time>2024-04-21T08:12:21Z</time>
      </trkpt>
      <trkpt lat="48.39435" lon="2.38401">
        <ele>66.4</ele>
        <time>2024-04-21T08:12:27Z</time>
      </trkpt>
      <trkpt lat="48.39431" lon="2.38426">
        <ele>66.4</ele>
        <time>2024-04-21T08:12:32Z</time>
      </trkpt>
      <trkpt lat="48.39417" lon="2.38469">
        <ele>66</ele>
        <time>2024-04-21T08:12:39Z</time>
      </trkpt>
      <trkpt lat="48.39397" lon="2.38504">
        <ele>66.2</ele>
        <time>2024-04-21T08:12:45Z</time>
      </trkpt>
      <trkpt lat="48.39376" lon="2.3855">
        <ele>66</ele>
        <time>2024-04-21T08:12:52Z</time>
      </trkpt>
      <trkpt lat="48.39362" lon="2.38592">
        <ele>65.6</ele>
        <time>2024-04-21T08:12:58Z</time>
      </trkpt>
      <trkpt lat="48.39345" lon="2.38631">
        <ele>65.4</ele>
        <time>2024-04-21T08:13:04Z</time>
      </trkpt>
      <trkpt lat="48.39335" lon="2.38661">
        <ele>65.6</ele>
        <time>2024-04-21T08:13:10Z</time>
      </trkpt>
      <trkpt lat="48.39326" lon="2.38701">
        <ele>65.4</ele>
        <time>2024-04-21T08:13:16Z</time>
      </trkpt>
      <trkpt lat="48.39316" lon="2.38759">
        <ele>65.2</ele>
        <time>2024-04-21T08:13:24Z</time>
      </trkpt>
      <trkpt lat="48.39302" lon="2.38813">
        <ele>65.2</ele>
        <time>2024-04-21T08:13:32Z</time>
      </trkpt>
      <trkpt lat="48.39294" lon="2.38869">
        <ele>65.6</ele>
        <time>2024-04-21T08:13:40Z</time>
      </trkpt>
      <trkpt lat="48.39284" lon="2.38926">
        <ele>65.6</ele>
        <time>2024-04-21T08:13:48Z</time>
      </trkpt>
      <trkpt lat="48.39278" lon="2.38959">
        <ele>65.6</ele>
        <time>2024-04-21T08:13:53Z</time>
      </trkpt>
      <trkpt lat="48.39275" lon="2.38972">
        <ele>65.4</ele>
        <time>2024-04-21T08:13:55Z</time>
      </trkpt>
      <trkpt lat="48.39273" lon="2.38986">
        <ele>65.4</ele>
        <time>2024-04-21T08:13:57Z</time>
      </trkpt>
      <trkpt lat="48.3927" lon="2.39007">
        <ele>65.2</ele>
        <time>2024-04-21T08:14:00Z</time>
      </trkpt>
      <trkpt lat="48.39266" lon="2.39019">
        <ele>65.2</ele>
        <time>2024-04-21T08:14:02Z</time>
      </trkpt>
      <trkpt lat="48.39263" lon="2.39032">
        <ele>65.2</ele>
        <time>2024-04-21T08:14:04Z</time>
      </trkpt>
      <trkpt lat="48.39253" lon="2.39078">
        <ele>65.2</ele>
        <time>2024-04-21T08:14:11Z</time>
      </trkpt>
      <trkpt lat="48.39251" lon="2.39084">
        <ele>65.2</ele>
        <time>2024-04-21T08:14:12Z</time>
      </trkpt>
      <trkpt lat="48.39244" lon="2.39115">
        <ele>65.4</ele>
        <time>2024-04-21T08:14:17Z</time>
      </trkpt>
      <trkpt lat="48.39237" lon="2.39152">
        <ele>65.8</ele>
        <time>2024-04-21T08:14:23Z</time>
      </trkpt>
      <trkpt lat="48.39236" lon="2.39169">
        <ele>65.8</ele>
        <time>2024-04-21T08:14:26Z</time>
      </trkpt>
      <trkpt lat="48.39237" lon="2.39189">
        <ele>65.8</ele>
        <time>2024-04-21T08:14:29Z</time>
      </trkpt>
      <trkpt lat="48.39239" lon="2.39245">
        <ele>66</ele>
        <time>2024-04-21T08:14:37Z</time>
      </trkpt>
      <trkpt lat="48.39239" lon="2.39252">
        <ele>66</ele>
        <time>2024-04-21T08:14:38Z</time>
      </trkpt>
      <trkpt lat="48.39239" lon="2.39266">
        <ele>66</ele>
        <time>2024-04-21T08:14:40Z</time>
      </trkpt>
      <trkpt lat="48.39241" lon="2.3928">
        <ele>66</ele>
        <time>2024-04-21T08:14:42Z</time>
      </trkpt>
      <trkpt lat="48.39248" lon="2.39337">
        <ele>66.4</ele>
        <time>2024-04-21T08:14:50Z</time>
      </trkpt>
      <trkpt lat="48.39256" lon="2.39379">
        <ele>66.4</ele>
        <time>2024-04-21T08:14:56Z</time>
      </trkpt>
      <trkpt lat="48.39259" lon="2.39385">
        <ele>66.4</ele>
        <time>2024-04-21T08:14:57Z</time>
      </trkpt>
      <trkpt lat="48.39273" lon="2.3943">
        <ele>66.2</ele>
        <time>2024-04-21T08:15:04Z</time>
      </trkpt>
      <trkpt lat="48.3928" lon="2.39456">
        <ele>66.4</ele>
        <time>2024-04-21T08:15:08Z</time>
      </trkpt>
      <trkpt lat="48.39284" lon="2.39475">
        <ele>67</ele>
        <time>2024-04-21T08:15:11Z</time>
      </trkpt>
      <trkpt lat="48.39291" lon="2.39498">
        <ele>67.4</ele>
        <time>2024-04-21T08:15:15Z</time>
      </trkpt>
      <trkpt lat="48.39293" lon="2.39504">
        <ele>67.6</ele>
        <time>2024-04-21T08:15:16Z</time>
      </trkpt>
      <trkpt lat="48.39295" lon="2.39516">
        <ele>67.6</ele>
        <time>2024-04-21T08:15:18Z</time>
      </trkpt>
      <trkpt lat="48.39289" lon="2.39527">
        <ele>68</ele>
        <time>2024-04-21T08:15:21Z</time>
      </trkpt>
      <trkpt lat="48.3928" lon="2.3952">
        <ele>68</ele>
        <time>2024-04-21T08:15:24Z</time>
      </trkpt>
      <trkpt lat="48.39277" lon="2.39517">
        <ele>68</ele>
        <time>2024-04-21T08:15:25Z</time>
      </trkpt>
      <trkpt lat="48.3927" lon="2.39505">
        <ele>68.6</ele>
        <time>2024-04-21T08:15:28Z</time>
      </trkpt>
      <trkpt lat="48.39262" lon="2.39491">
        <ele>68.8</ele>
        <time>2024-04-21T08:15:31Z</time>
      </trkpt>
      <trkpt lat="48.39251" lon="2.39469">
        <ele>68.8</ele>
        <time>2024-04-21T08:15:36Z</time>
      </trkpt>
      <trkpt lat="48.39248" lon="2.39468">
        <ele>68.8</ele>
        <time>2024-04-21T08:15:37Z</time>
      </trkpt>
      <trkpt lat="48.39244" lon="2.39469">
        <ele>68.8</ele>
        <time>2024-04-21T08:15:39Z</time>
      </trkpt>
      <trkpt lat="48.39238" lon="2.3947">
        <ele>68.8</ele>
        <time>2024-04-21T08:15:42Z</time>
      </trkpt>
      <trkpt lat="48.39234" lon="2.39464">
        <ele>68.8</ele>
        <time>2024-04-21T08:15:46Z</time>
      </trkpt>
      <trkpt lat="48.39231" lon="2.39464">
        <ele>69</ele>
        <time>2024-04-21T08:15:48Z</time>
      </trkpt>
      <trkpt lat="48.39227" lon="2.39467">
        <ele>69.6</ele>
        <time>2024-04-21T08:15:51Z</time>
      </trkpt>
      <trkpt lat="48.39223" lon="2.39471">
        <ele>69.8</ele>
        <time>2024-04-21T08:15:53Z</time>
      </trkpt>
      <trkpt lat="48.39217" lon="2.39482">
        <ele>70.2</ele>
        <time>2024-04-21T08:15:57Z</time>
      </trkpt>
      <trkpt lat="48.39215" lon="2.3949">
        <ele>70.8</ele>
        <time>2024-04-21T08:16:00Z</time>
      </trkpt>
      <trkpt lat="48.39212" lon="2.39494">
        <ele>71.6</ele>
        <time>2024-04-21T08:16:02Z</time>
      </trkpt>
      <trkpt lat="48.39212" lon="2.39497">
        <ele>72.2</ele>
        <time>2024-04-21T08:16:03Z</time>
      </trkpt>
      <trkpt lat="48.39209" lon="2.39501">
        <ele>73.2</ele>
        <time>2024-04-21T08:16:05Z</time>
      </trkpt>
      <trkpt lat="48.39207" lon="2.39502">
        <ele>74.6</ele>
        <time>2024-04-21T08:16:08Z</time>
      </trkpt>
      <trkpt lat="48.39206" lon="2.39505">
        <ele>75.8</ele>
        <time>2024-04-21T08:16:10Z</time>
      </trkpt>
      <trkpt lat="48.39206" lon="2.39508">
        <ele>76</ele>
        <time>2024-04-21T08:16:11Z</time>
      </trkpt>
      <trkpt lat="48.39207" lon="2.39518">
        <ele>76</ele>
        <time>2024-04-21T08:16:13Z</time>
      </trkpt>
      <trkpt lat="48.39214" lon="2.39533">
        <ele>76</ele>
        <time>2024-04-21T08:16:17Z</time>
      </trkpt>
      <trkpt lat="48.39223" lon="2.39551">
        <ele>74.6</ele>
        <time>2024-04-21T08:16:22Z</time>
      </trkpt>
      <trkpt lat="48.39225" lon="2.39557">
        <ele>74</ele>
        <time>2024-04-21T08:16:24Z</time>
      </trkpt>
      <trkpt lat="48.39226" lon="2.39563">
        <ele>73.2</ele>
        <time>2024-04-21T08:16:26Z</time>
      </trkpt>
      <trkpt lat="48.39227" lon="2.3957">
        <ele>72.8</ele>
        <time>2024-04-21T08:16:32Z</time>
      </trkpt>
      <trkpt lat="48.39227" lon="2.39584">
        <ele>73.2</ele>
        <time>2024-04-21T08:16:39Z</time>
      </trkpt>
      <trkpt lat="48.39231" lon="2.39599">
        <ele>73.4</ele>
        <time>2024-04-21T08:16:45Z</time>
      </trkpt>
      <trkpt lat="48.3923" lon="2.39616">
        <ele>74.2</ele>
        <time>2024-04-21T08:16:50Z</time>
      </trkpt>
      <trkpt lat="48.39229" lon="2.39618">
        <ele>74.6</ele>
        <time>2024-04-21T08:16:51Z</time>
      </trkpt>
      <trkpt lat="48.39229" lon="2.39627">
        <ele>75.6</ele>
        <time>2024-04-21T08:16:55Z</time>
      </trkpt>
      <trkpt lat="48.39232" lon="2.39632">
        <ele>76.4</ele>
        <time>2024-04-21T08:16:58Z</time>
      </trkpt>
      <trkpt lat="48.39234" lon="2.39633">
        <ele>76.8</ele>
        <time>2024-04-21T08:16:59Z</time>
      </trkpt>
      <trkpt lat="48.39236" lon="2.39634">
        <ele>77.4</ele>
        <time>2024-04-21T08:17:01Z</time>
      </trkpt>
      <trkpt lat="48.39236" lon="2.39635">
        <ele>77.8</ele>
        <time>2024-04-21T08:17:03Z</time>
      </trkpt>
      <trkpt lat="48.39239" lon="2.39642">
        <ele>78</ele>
        <time>2024-04-21T08:17:12Z</time>
      </trkpt>
      <trkpt lat="48.39242" lon="2.39662">
        <ele>77.8</ele>
        <time>2024-04-21T08:17:18Z</time>
      </trkpt>
      <trkpt lat="48.39247" lon="2.39685">
        <ele>77.6</ele>
        <time>2024-04-21T08:17:23Z</time>
      </trkpt>
      <trkpt lat="48.39243" lon="2.39711">
        <ele>77.4</ele>
        <time>2024-04-21T08:17:29Z</time>
      </trkpt>
      <trkpt lat="48.39251" lon="2.39733">
        <ele>77.4</ele>
        <time>2024-04-21T08:17:34Z</time>
      </trkpt>
      <trkpt lat="48.39252" lon="2.39753">
        <ele>77.2</ele>
        <time>2024-04-21T08:17:38Z</time>
      </trkpt>
      <trkpt lat="48.39253" lon="2.39766">
        <ele>77.2</ele>
        <time>2024-04-21T08:17:41Z</time>
      </trkpt>
      <trkpt lat="48.39256" lon="2.39772">
        <ele>77.2</ele>
        <time>2024-04-21T08:17:42Z</time>
      </trkpt>
      <trkpt lat="48.39257" lon="2.39779">
        <ele>77.2</ele>
        <time>2024-04-21T08:17:43Z</time>
      </trkpt>
      <trkpt lat="48.39262" lon="2.39798">
        <ele>77.2</ele>
        <time>2024-04-21T08:17:46Z</time>
      </trkpt>
      <trkpt lat="48.39262" lon="2.3981">
        <ele>76.6</ele>
        <time>2024-04-21T08:17:49Z</time>
      </trkpt>
      <trkpt lat="48.39261" lon="2.39814">
        <ele>76.4</ele>
        <time>2024-04-21T08:17:50Z</time>
      </trkpt>
      <trkpt lat="48.3926" lon="2.39816">
        <ele>76.2</ele>
        <time>2024-04-21T08:17:51Z</time>
      </trkpt>
      <trkpt lat="48.39256" lon="2.39818">
        <ele>76</ele>
        <time>2024-04-21T08:17:54Z</time>
      </trkpt>
      <trkpt lat="48.39253" lon="2.39822">
        <ele>76</ele>
        <time>2024-04-21T08:17:57Z</time>
      </trkpt>
      <trkpt lat="48.39251" lon="2.39824">
        <ele>76</ele>
        <time>2024-04-21T08:17:59Z</time>
      </trkpt>
      <trkpt lat="48.39249" lon="2.39824">
        <ele>76.2</ele>
        <time>2024-04-21T08:18:00Z</time>
      </trkpt>
      <trkpt lat="48.3924" lon="2.39824">
        <ele>77.2</ele>
        <time>2024-04-21T08:18:07Z</time>
      </trkpt>
      <trkpt lat="48.39236" lon="2.39824">
        <ele>77.4</ele>
        <time>2024-04-21T08:18:09Z</time>
      </trkpt>
      <trkpt lat="48.39228" lon="2.39826">
        <ele>77.8</ele>
        <time>2024-04-21T08:18:13Z</time>
      </trkpt>
      <trkpt lat="48.39222" lon="2.39825">
        <ele>78.6</ele>
        <time>2024-04-21T08:18:17Z</time>
      </trkpt>
      <trkpt lat="48.3922" lon="2.39824">
        <ele>79.2</ele>
        <time>2024-04-21T08:18:19Z</time>
      </trkpt>
      <trkpt lat="48.39218" lon="2.39824">
        <ele>79.8</ele>
        <time>2024-04-21T08:18:20Z</time>
      </trkpt>
      <trkpt lat="48.39213" lon="2.39823">
        <ele>80.8</ele>
        <time>2024-04-21T08:18:23Z</time>
      </trkpt>
      <trkpt lat="48.39208" lon="2.39821">
        <ele>82</ele>
        <time>2024-04-21T08:18:26Z</time>
      </trkpt>
      <trkpt lat="48.39205" lon="2.39819">
        <ele>83.2</ele>
        <time>2024-04-21T08:18:29Z</time>
      </trkpt>
      <trkpt lat="48.39202" lon="2.3982">
        <ele>84</ele>
        <time>2024-04-21T08:18:31Z</time>
      </trkpt>
      <trkpt lat="48.392" lon="2.39821">
        <ele>84.6</ele>
        <time>2024-04-21T08:18:32Z</time>
      </trkpt>
      <trkpt lat="48.39195" lon="2.39821">
        <ele>86</ele>
        <time>2024-04-21T08:18:35Z</time>
      </trkpt>
      <trkpt lat="48.39192" lon="2.3982">
        <ele>87.2</ele>
        <time>2024-04-21T08:18:37Z</time>
      </trkpt>
      <trkpt lat="48.3919" lon="2.39819">
        <ele>88</ele>
        <time>2024-04-21T08:18:38Z</time>
      </trkpt>
      <trkpt lat="48.39189" lon="2.39818">
        <ele>88.2</ele>
        <time>2024-04-21T08:18:39Z</time>
      </trkpt>
      <trkpt lat="48.39185" lon="2.39811">
        <ele>89</ele>
        <time>2024-04-21T08:18:43Z</time>
      </trkpt>
      <trkpt lat="48.39184" lon="2.3981">
        <ele>89.4</ele>
        <time>2024-04-21T08:18:44Z</time>
      </trkpt>
      <trkpt lat="48.39182" lon="2.39807">
        <ele>90.6</ele>
        <time>2024-04-21T08:18:47Z</time>
      </trkpt>
      <trkpt lat="48.3918" lon="2.39802">
        <ele>91.8</ele>
        <time>2024-04-21T08:18:50Z</time>
      </trkpt>
      <trkpt lat="48.39179" lon="2.398">
        <ele>92.2</ele>
        <time>2024-04-21T08:18:51Z</time>
      </trkpt>
      <trkpt lat="48.39178" lon="2.39797">
        <ele>93</ele>
        <time>2024-04-21T08:18:53Z</time>
      </trkpt>
      <trkpt lat="48.39173" lon="2.39792">
        <ele>94.2</ele>
        <time>2024-04-21T08:18:57Z</time>
      </trkpt>
      <trkpt lat="48.39171" lon="2.39792">
        <ele>94.6</ele>
        <time>2024-04-21T08:18:58Z</time>
      </trkpt>
      <trkpt lat="48.39169" lon="2.39792">
        <ele>94.8</ele>
        <time>2024-04-21T08:18:59Z</time>
      </trkpt>
      <trkpt lat="48.39167" lon="2.39795">
        <ele>95.4</ele>
        <time>2024-04-21T08:19:01Z</time>
      </trkpt>
      <trkpt lat="48.39164" lon="2.39798">
        <ele>95.8</ele>
        <time>2024-04-21T08:19:03Z</time>
      </trkpt>
      <trkpt lat="48.39163" lon="2.39802">
        <ele>96.2</ele>
        <time>2024-04-21T08:19:05Z</time>
      </trkpt>
      <trkpt lat="48.39162" lon="2.39803">
        <ele>96.4</ele>
        <time>2024-04-21T08:19:07Z</time>
      </trkpt>
      <trkpt lat="48.39162" lon="2.39803">
        <ele>96.6</ele>
        <time>2024-04-21T08:19:11Z</time>
      </trkpt>
      <trkpt lat="48.39163" lon="2.39802">
        <ele>96.8</ele>
        <time>2024-04-21T08:19:26Z</time>
      </trkpt>
      <trkpt lat="48.3916" lon="2.398">
        <ele>97</ele>
        <time>2024-04-21T08:19:42Z</time>
      </trkpt>
      <trkpt lat="48.3916" lon="2.398">
        <ele>96.8</ele>
        <time>2024-04-21T08:20:02Z</time>
      </trkpt>
      <trkpt lat="48.39159" lon="2.398">
        <ele>97</ele>
        <time>2024-04-21T08:20:14Z</time>
      </trkpt>
      <trkpt lat="48.39158" lon="2.39803">
        <ele>97.4</ele>
        <time>2024-04-21T08:20:32Z</time>
      </trkpt>
      <trkpt lat="48.39157" lon="2.39803">
        <ele>97.4</ele>
        <time>2024-04-21T08:20:36Z</time>
      </trkpt>
      <trkpt lat="48.39157" lon="2.39804">
        <ele>97.2</ele>
        <time>2024-04-21T08:20:52Z</time>
      </trkpt>
      <trkpt lat="48.39158" lon="2.39803">
        <ele>97</ele>
        <time>2024-04-21T08:21:06Z</time>
      </trkpt>
      <trkpt lat="48.39159" lon="2.39803">
        <ele>97</ele>
        <time>2024-04-21T08:21:21Z</time>
      </trkpt>
      <trkpt lat="48.39159" lon="2.39807">
        <ele>97.2</ele>
        <time>2024-04-21T08:21:29Z</time>
      </trkpt>
      <trkpt lat="48.39156" lon="2.39825">
        <ele>97.2</ele>
        <time>2024-04-21T08:21:36Z</time>
      </trkpt>
      <trkpt lat="48.39152" lon="2.39848">
        <ele>97.4</ele>
        <time>2024-04-21T08:21:42Z</time>
      </trkpt>
      <trkpt lat="48.39147" lon="2.39878">
        <ele>97</ele>
        <time>2024-04-21T08:21:49Z</time>
      </trkpt>
      <trkpt lat="48.39148" lon="2.39902">
        <ele>97</ele>
        <time>2024-04-21T08:21:54Z</time>
      </trkpt>
      <trkpt lat="48.39155" lon="2.39936">
        <ele>96.8</ele>
        <time>2024-04-21T08:22:01Z</time>
      </trkpt>
      <trkpt lat="48.39166" lon="2.39972">
        <ele>96.8</ele>
        <time>2024-04-21T08:22:08Z</time>
      </trkpt>
      <trkpt lat="48.39179" lon="2.40007">
        <ele>97</ele>
        <time>2024-04-21T08:22:15Z</time>
      </trkpt>
      <trkpt lat="48.39188" lon="2.40044">
        <ele>97.6</ele>
        <time>2024-04-21T08:22:22Z</time>
      </trkpt>
      <trkpt lat="48.39195" lon="2.40068">
        <ele>98</ele>
        <time>2024-04-21T08:22:26Z</time>
      </trkpt>
      <trkpt lat="48.39197" lon="2.40079">
        <ele>98.4</ele>
        <time>2024-04-21T08:22:28Z</time>
      </trkpt>
      <trkpt lat="48.39208" lon="2.40112">
        <ele>99</ele>
        <time>2024-04-21T08:22:34Z</time>
      </trkpt>
      <trkpt lat="48.39212" lon="2.40122">
        <ele>99.2</ele>
        <time>2024-04-21T08:22:36Z</time>
      </trkpt>
      <trkpt lat="48.39217" lon="2.40138">
        <ele>99.4</ele>
        <time>2024-04-21T08:22:39Z</time>
      </trkpt>
      <trkpt lat="48.39223" lon="2.40162">
        <ele>99.6</ele>
        <time>2024-04-21T08:22:44Z</time>
      </trkpt>
      <trkpt lat="48.39232" lon="2.40197">
        <ele>100</ele>
        <time>2024-04-21T08:22:50Z</time>
      </trkpt>
      <trkpt lat="48.39234" lon="2.40203">
        <ele>100</ele>
        <time>2024-04-21T08:22:51Z</time>
      </trkpt>
      <trkpt lat="48.39241" lon="2.40235">
        <ele>101.2</ele>
        <time>2024-04-21T08:22:57Z</time>
      </trkpt>
      <trkpt lat="48.39245" lon="2.40268">
        <ele>101.8</ele>
        <time>2024-04-21T08:23:04Z</time>
      </trkpt>
      <trkpt lat="48.39246" lon="2.40283">
        <ele>102.2</ele>
        <time>2024-04-21T08:23:07Z</time>
      </trkpt>
      <trkpt lat="48.3925" lon="2.40302">
        <ele>102.4</ele>
        <time>2024-04-21T08:23:11Z</time>
      </trkpt>
      <trkpt lat="48.39253" lon="2.40337">
        <ele>102.8</ele>
        <time>2024-04-21T08:23:18Z</time>
      </trkpt>
      <trkpt lat="48.39258" lon="2.40356">
        <ele>103.2</ele>
        <time>2024-04-21T08:23:22Z</time>
      </trkpt>
      <trkpt lat="48.39262" lon="2.40372">
        <ele>103.2</ele>
        <time>2024-04-21T08:23:25Z</time>
      </trkpt>
      <trkpt lat="48.39265" lon="2.40398">
        <ele>104.2</ele>
        <time>2024-04-21T08:23:30Z</time>
      </trkpt>
      <trkpt lat="48.39266" lon="2.40413">
        <ele>105.2</ele>
        <time>2024-04-21T08:23:33Z</time>
      </trkpt>
      <trkpt lat="48.39266" lon="2.40427">
        <ele>105.6</ele>
        <time>2024-04-21T08:23:36Z</time>
      </trkpt>
      <trkpt lat="48.39268" lon="2.40438">
        <ele>106</ele>
        <time>2024-04-21T08:23:38Z</time>
      </trkpt>
      <trkpt lat="48.39269" lon="2.40462">
        <ele>106.8</ele>
        <time>2024-04-21T08:23:43Z</time>
      </trkpt>
      <trkpt lat="48.39266" lon="2.40477">
        <ele>107</ele>
        <time>2024-04-21T08:23:46Z</time>
      </trkpt>
      <trkpt lat="48.39265" lon="2.4049">
        <ele>107.4</ele>
        <time>2024-04-21T08:23:49Z</time>
      </trkpt>
      <trkpt lat="48.39261" lon="2.40513">
        <ele>108</ele>
        <time>2024-04-21T08:23:55Z</time>
      </trkpt>
      <trkpt lat="48.3926" lon="2.40517">
        <ele>108.2</ele>
        <time>2024-04-21T08:23:56Z</time>
      </trkpt>
      <trkpt lat="48.39252" lon="2.40536">
        <ele>109.2</ele>
        <time>2024-04-21T08:24:01Z</time>
      </trkpt>
      <trkpt lat="48.3925" lon="2.4054">
        <ele>109.4</ele>
        <time>2024-04-21T08:24:02Z</time>
      </trkpt>
      <trkpt lat="48.3924" lon="2.40554">
        <ele>109.8</ele>
        <time>2024-04-21T08:24:06Z</time>
      </trkpt>
      <trkpt lat="48.39228" lon="2.40576">
        <ele>110.4</ele>
        <time>2024-04-21T08:24:12Z</time>
      </trkpt>
      <trkpt lat="48.39225" lon="2.40584">
        <ele>110.8</ele>
        <time>2024-04-21T08:24:14Z</time>
      </trkpt>
      <trkpt lat="48.39216" lon="2.40607">
        <ele>111.6</ele>
        <time>2024-04-21T08:24:20Z</time>
      </trkpt>
      <trkpt lat="48.39206" lon="2.40631">
        <ele>112.4</ele>
        <time>2024-04-21T08:24:26Z</time>
      </trkpt>
      <trkpt lat="48.39204" lon="2.40636">
        <ele>112.6</ele>
        <time>2024-04-21T08:24:27Z</time>
      </trkpt>
      <trkpt lat="48.39196" lon="2.40657">
        <ele>113.8</ele>
        <time>2024-04-21T08:24:32Z</time>
      </trkpt>
      <trkpt lat="48.39185" lon="2.40693">
        <ele>115</ele>
        <time>2024-04-21T08:24:39Z</time>
      </trkpt>
      <trkpt lat="48.39176" lon="2.40726">
        <ele>115.4</ele>
        <time>2024-04-21T08:24:45Z</time>
      </trkpt>
      <trkpt lat="48.39173" lon="2.4075">
        <ele>116</ele>
        <time>2024-04-21T08:24:50Z</time>
      </trkpt>
      <trkpt lat="48.39173" lon="2.40759">
        <ele>116.2</ele>
        <time>2024-04-21T08:24:52Z</time>
      </trkpt>
      <trkpt lat="48.39178" lon="2.4078">
        <ele>117</ele>
        <time>2024-04-21T08:24:57Z</time>
      </trkpt>
      <trkpt lat="48.39179" lon="2.40784">
        <ele>117.2</ele>
        <time>2024-04-21T08:24:58Z</time>
      </trkpt>
      <trkpt lat="48.39188" lon="2.40806">
        <ele>118.2</ele>
        <time>2024-04-21T08:25:03Z</time>
      </trkpt>
      <trkpt lat="48.3919" lon="2.40811">
        <ele>118.2</ele>
        <time>2024-04-21T08:25:04Z</time>
      </trkpt>
      <trkpt lat="48.39201" lon="2.40833">
        <ele>118.8</ele>
        <time>2024-04-21T08:25:10Z</time>
      </trkpt>
      <trkpt lat="48.39206" lon="2.40845">
        <ele>119.2</ele>
        <time>2024-04-21T08:25:13Z</time>
      </trkpt>
      <trkpt lat="48.39213" lon="2.40866">
        <ele>119.8</ele>
        <time>2024-04-21T08:25:17Z</time>
      </trkpt>
      <trkpt lat="48.39221" lon="2.40887">
        <ele>120.2</ele>
        <time>2024-04-21T08:25:21Z</time>
      </trkpt>
      <trkpt lat="48.39226" lon="2.40894">
        <ele>120.6</ele>
        <time>2024-04-21T08:25:23Z</time>
      </trkpt>
      <trkpt lat="48.39234" lon="2.40912">
        <ele>121.4</ele>
        <time>2024-04-21T08:25:27Z</time>
      </trkpt>
      <trkpt lat="48.39243" lon="2.40927">
        <ele>121.6</ele>
        <time>2024-04-21T08:25:30Z</time>
      </trkpt>
      <trkpt lat="48.39258" lon="2.40948">
        <ele>122.2</ele>
        <time>2024-04-21T08:25:36Z</time>
      </trkpt>
      <trkpt lat="48.39261" lon="2.40951">
        <ele>122.4</ele>
        <time>2024-04-21T08:25:37Z</time>
      </trkpt>
      <trkpt lat="48.39273" lon="2.40966">
        <ele>123.4</ele>
        <time>2024-04-21T08:25:42Z</time>
      </trkpt>
      <trkpt lat="48.39276" lon="2.40972">
        <ele>123.6</ele>
        <time>2024-04-21T08:25:44Z</time>
      </trkpt>
      <trkpt lat="48.39286" lon="2.40992">
        <ele>124.4</ele>
        <time>2024-04-21T08:25:49Z</time>
      </trkpt>
      <trkpt lat="48.39288" lon="2.40996">
        <ele>124.6</ele>
        <time>2024-04-21T08:25:50Z</time>
      </trkpt>
      <trkpt lat="48.39299" lon="2.41018">
        <ele>125.8</ele>
        <time>2024-04-21T08:25:56Z</time>
      </trkpt>
      <trkpt lat="48.39316" lon="2.41043">
        <ele>126.6</ele>
        <time>2024-04-21T08:26:04Z</time>
      </trkpt>
      <trkpt lat="48.39321" lon="2.41053">
        <ele>126.8</ele>
        <time>2024-04-21T08:26:07Z</time>
      </trkpt>
      <trkpt lat="48.39332" lon="2.41069">
        <ele>127.6</ele>
        <time>2024-04-21T08:26:12Z</time>
      </trkpt>
      <trkpt lat="48.39345" lon="2.41085">
        <ele>127.8</ele>
        <time>2024-04-21T08:26:17Z</time>
      </trkpt>
      <trkpt lat="48.3935" lon="2.41091">
        <ele>128</ele>
        <time>2024-04-21T08:26:19Z</time>
      </trkpt>
      <trkpt lat="48.39365" lon="2.41106">
        <ele>128.2</ele>
        <time>2024-04-21T08:26:25Z</time>
      </trkpt>
      <trkpt lat="48.39379" lon="2.41121">
        <ele>128.8</ele>
        <time>2024-04-21T08:26:31Z</time>
      </trkpt>
      <trkpt lat="48.39381" lon="2.41124">
        <ele>129</ele>
        <time>2024-04-21T08:26:32Z</time>
      </trkpt>
      <trkpt lat="48.39394" lon="2.41138">
        <ele>129.2</ele>
        <time>2024-04-21T08:26:36Z</time>
      </trkpt>
      <trkpt lat="48.39418" lon="2.41165">
        <ele>129.8</ele>
        <time>2024-04-21T08:26:43Z</time>
      </trkpt>
      <trkpt lat="48.39431" lon="2.41177">
        <ele>130</ele>
        <time>2024-04-21T08:26:47Z</time>
      </trkpt>
      <trkpt lat="48.39438" lon="2.41184">
        <ele>130.2</ele>
        <time>2024-04-21T08:26:49Z</time>
      </trkpt>
      <trkpt lat="48.39463" lon="2.41208">
        <ele>130.4</ele>
        <time>2024-04-21T08:26:56Z</time>
      </trkpt>
      <trkpt lat="48.39478" lon="2.41225">
        <ele>130.6</ele>
        <time>2024-04-21T08:27:02Z</time>
      </trkpt>
      <trkpt lat="48.39494" lon="2.41241">
        <ele>131</ele>
        <time>2024-04-21T08:27:08Z</time>
      </trkpt>
      <trkpt lat="48.39507" lon="2.41254">
        <ele>131.2</ele>
        <time>2024-04-21T08:27:13Z</time>
      </trkpt>
      <trkpt lat="48.39527" lon="2.41272">
        <ele>131.2</ele>
        <time>2024-04-21T08:27:20Z</time>
      </trkpt>
      <trkpt lat="48.39554" lon="2.41297">
        <ele>131</ele>
        <time>2024-04-21T08:27:29Z</time>
      </trkpt>
      <trkpt lat="48.39569" lon="2.41309">
        <ele>130.8</ele>
        <time>2024-04-21T08:27:34Z</time>
      </trkpt>
      <trkpt lat="48.39593" lon="2.41329">
        <ele>129.8</ele>
        <time>2024-04-21T08:27:42Z</time>
      </trkpt>
      <trkpt lat="48.39607" lon="2.41349">
        <ele>129.4</ele>
        <time>2024-04-21T08:27:49Z</time>
      </trkpt>
      <trkpt lat="48.39606" lon="2.41371">
        <ele>129.2</ele>
        <time>2024-04-21T08:27:54Z</time>
      </trkpt>
      <trkpt lat="48.396" lon="2.41398">
        <ele>129.8</ele>
        <time>2024-04-21T08:28:00Z</time>
      </trkpt>
      <trkpt lat="48.39594" lon="2.4143">
        <ele>130.2</ele>
        <time>2024-04-21T08:28:07Z</time>
      </trkpt>
      <trkpt lat="48.3959" lon="2.41454">
        <ele>130.4</ele>
        <time>2024-04-21T08:28:13Z</time>
      </trkpt>
      <trkpt lat="48.39589" lon="2.41463">
        <ele>130.8</ele>
        <time>2024-04-21T08:28:19Z</time>
      </trkpt>
      <trkpt lat="48.3959" lon="2.41482">
        <ele>130.8</ele>
        <time>2024-04-21T08:28:23Z</time>
      </trkpt>
      <trkpt lat="48.39591" lon="2.41535">
        <ele>130.6</ele>
        <time>2024-04-21T08:28:31Z</time>
      </trkpt>
      <trkpt lat="48.39591" lon="2.4159">
        <ele>130.6</ele>
        <time>2024-04-21T08:28:39Z</time>
      </trkpt>
      <trkpt lat="48.39595" lon="2.41654">
        <ele>131.6</ele>
        <time>2024-04-21T08:28:48Z</time>
      </trkpt>
      <trkpt lat="48.39601" lon="2.41712">
        <ele>132.6</ele>
        <time>2024-04-21T08:28:56Z</time>
      </trkpt>
      <trkpt lat="48.39606" lon="2.41764">
        <ele>133.6</ele>
        <time>2024-04-21T08:29:03Z</time>
      </trkpt>
      <trkpt lat="48.39608" lon="2.41778">
        <ele>133.6</ele>
        <time>2024-04-21T08:29:05Z</time>
      </trkpt>
      <trkpt lat="48.39613" lon="2.41819">
        <ele>134</ele>
        <time>2024-04-21T08:29:11Z</time>
      </trkpt>
      <trkpt lat="48.39618" lon="2.41857">
        <ele>134.8</ele>
        <time>2024-04-21T08:29:17Z</time>
      </trkpt>
      <trkpt lat="48.39621" lon="2.41877">
        <ele>135</ele>
        <time>2024-04-21T08:29:20Z</time>
      </trkpt>
      <trkpt lat="48.39629" lon="2.4193">
        <ele>135.6</ele>
        <time>2024-04-21T08:29:28Z</time>
      </trkpt>
      <trkpt lat="48.39637" lon="2.41979">
        <ele>136</ele>
        <time>2024-04-21T08:29:36Z</time>
      </trkpt>
      <trkpt lat="48.39643" lon="2.42022">
        <ele>136</ele>
        <time>2024-04-21T08:29:43Z</time>
      </trkpt>
      <trkpt lat="48.39653" lon="2.42089">
        <ele>135.6</ele>
        <time>2024-04-21T08:29:53Z</time>
      </trkpt>
      <trkpt lat="48.39662" lon="2.42152">
        <ele>135.4</ele>
        <time>2024-04-21T08:30:02Z</time>
      </trkpt>
      <trkpt lat="48.39667" lon="2.42201">
        <ele>135.4</ele>
        <time>2024-04-21T08:30:10Z</time>
      </trkpt>
      <trkpt lat="48.39663" lon="2.42217">
        <ele>135.6</ele>
        <time>2024-04-21T08:30:14Z</time>
      </trkpt>
      <trkpt lat="48.39656" lon="2.42232">
        <ele>135.6</ele>
        <time>2024-04-21T08:30:17Z</time>
      </trkpt>
      <trkpt lat="48.39653" lon="2.42245">
        <ele>135.4</ele>
        <time>2024-04-21T08:30:19Z</time>
      </trkpt>
      <trkpt lat="48.39653" lon="2.42267">
        <ele>135.2</ele>
        <time>2024-04-21T08:30:23Z</time>
      </trkpt>
      <trkpt lat="48.39663" lon="2.4228">
        <ele>135.2</ele>
        <time>2024-04-21T08:30:27Z</time>
      </trkpt>
      <trkpt lat="48.39672" lon="2.42281">
        <ele>135.2</ele>
        <time>2024-04-21T08:30:29Z</time>
      </trkpt>
      <trkpt lat="48.39685" lon="2.42277">
        <ele>134.8</ele>
        <time>2024-04-21T08:30:32Z</time>
      </trkpt>
      <trkpt lat="48.39696" lon="2.42266">
        <ele>134.4</ele>
        <time>2024-04-21T08:30:35Z</time>
      </trkpt>
      <trkpt lat="48.39704" lon="2.42258">
        <ele>134.4</ele>
        <time>2024-04-21T08:30:37Z</time>
      </trkpt>
      <trkpt lat="48.39717" lon="2.42251">
        <ele>134</ele>
        <time>2024-04-21T08:30:40Z</time>
      </trkpt>
      <trkpt lat="48.3973" lon="2.42248">
        <ele>133.8</ele>
        <time>2024-04-21T08:30:43Z</time>
      </trkpt>
      <trkpt lat="48.39762" lon="2.42242">
        <ele>133.6</ele>
        <time>2024-04-21T08:30:50Z</time>
      </trkpt>
      <trkpt lat="48.39801" lon="2.42235">
        <ele>133.4</ele>
        <time>2024-04-21T08:30:59Z</time>
      </trkpt>
      <trkpt lat="48.39816" lon="2.42231">
        <ele>133.6</ele>
        <time>2024-04-21T08:31:04Z</time>
      </trkpt>
      <trkpt lat="48.3983" lon="2.42226">
        <ele>133.6</ele>
        <time>2024-04-21T08:31:08Z</time>
      </trkpt>
      <trkpt lat="48.39859" lon="2.42216">
        <ele>133.4</ele>
        <time>2024-04-21T08:31:15Z</time>
      </trkpt>
      <trkpt lat="48.39888" lon="2.422">
        <ele>133</ele>
        <time>2024-04-21T08:31:22Z</time>
      </trkpt>
      <trkpt lat="48.39892" lon="2.42197">
        <ele>133</ele>
        <time>2024-04-21T08:31:23Z</time>
      </trkpt>
      <trkpt lat="48.39921" lon="2.42168">
        <ele>133.4</ele>
        <time>2024-04-21T08:31:31Z</time>
      </trkpt>
      <trkpt lat="48.39949" lon="2.42134">
        <ele>133.6</ele>
        <time>2024-04-21T08:31:39Z</time>
      </trkpt>
      <trkpt lat="48.39969" lon="2.42099">
        <ele>133.6</ele>
        <time>2024-04-21T08:31:46Z</time>
      </trkpt>
      <trkpt lat="48.39981" lon="2.4208">
        <ele>133.6</ele>
        <time>2024-04-21T08:31:51Z</time>
      </trkpt>
      <trkpt lat="48.39984" lon="2.4207">
        <ele>134</ele>
        <time>2024-04-21T08:31:56Z</time>
      </trkpt>
      <trkpt lat="48.39984" lon="2.42071">
        <ele>135</ele>
        <time>2024-04-21T08:32:01Z</time>
      </trkpt>
      <trkpt lat="48.39984" lon="2.42071">
        <ele>135.2</ele>
        <time>2024-04-21T08:32:08Z</time>
      </trkpt>
      <trkpt lat="48.39982" lon="2.42071">
        <ele>135.2</ele>
        <time>2024-04-21T08:32:23Z</time>
      </trkpt>
      <trkpt lat="48.39981" lon="2.42071">
        <ele>135</ele>
        <time>2024-04-21T08:32:40Z</time>
      </trkpt>
      <trkpt lat="48.39982" lon="2.42072">
        <ele>135</ele>
        <time>2024-04-21T08:32:57Z</time>
      </trkpt>
      <trkpt lat="48.39982" lon="2.42072">
        <ele>135</ele>
        <time>2024-04-21T08:33:12Z</time>
      </trkpt>
      <trkpt lat="48.39982" lon="2.42072">
        <ele>135.2</ele>
        <time>2024-04-21T08:33:39Z</time>
      </trkpt>
      <trkpt lat="48.39982" lon="2.42072">
        <ele>135.4</ele>
        <time>2024-04-21T08:33:59Z</time>
      </trkpt>
      <trkpt lat="48.39982" lon="2.42071">
        <ele>135.6</ele>
        <time>2024-04-21T08:35:24Z</time>
      </trkpt>
      <trkpt lat="48.39982" lon="2.42071">
        <ele>135.4</ele>
        <time>2024-04-21T08:35:58Z</time>
      </trkpt>
      <trkpt lat="48.39982" lon="2.42071">
        <ele>135.2</ele>
        <time>2024-04-21T08:36:19Z</time>
      </trkpt>
      <trkpt lat="48.39979" lon="2.42069">
        <ele>135.2</ele>
        <time>2024-04-21T08:36:32Z</time>
      </trkpt>
      <trkpt lat="48.39978" lon="2.4207">
        <ele>135.2</ele>
        <time>2024-04-21T08:36:33Z</time>
      </trkpt>
      <trkpt lat="48.39973" lon="2.42083">
        <ele>135.4</ele>
        <time>2024-04-21T08:36:38Z</time>
      </trkpt>
      <trkpt lat="48.39972" lon="2.42086">
        <ele>135.4</ele>
        <time>2024-04-21T08:36:39Z</time>
      </trkpt>
      <trkpt lat="48.39965" lon="2.42099">
        <ele>135.6</ele>
        <time>2024-04-21T08:36:44Z</time>
      </trkpt>
      <trkpt lat="48.39954" lon="2.42114">
        <ele>135.4</ele>
        <time>2024-04-21T08:36:50Z</time>
      </trkpt>
      <trkpt lat="48.39944" lon="2.4213">
        <ele>135.2</ele>
        <time>2024-04-21T08:36:55Z</time>
      </trkpt>
      <trkpt lat="48.39928" lon="2.42152">
        <ele>134.4</ele>
        <time>2024-04-21T08:37:01Z</time>
      </trkpt>
      <trkpt lat="48.39919" lon="2.42163">
        <ele>134.2</ele>
        <time>2024-04-21T08:37:04Z</time>
      </trkpt>
      <trkpt lat="48.39894" lon="2.42189">
        <ele>134.4</ele>
        <time>2024-04-21T08:37:11Z</time>
      </trkpt>
      <trkpt lat="48.39867" lon="2.42207">
        <ele>134.6</ele>
        <time>2024-04-21T08:37:17Z</time>
      </trkpt>
      <trkpt lat="48.39862" lon="2.42209">
        <ele>134.6</ele>
        <time>2024-04-21T08:37:18Z</time>
      </trkpt>
      <trkpt lat="48.39832" lon="2.4222">
        <ele>134.6</ele>
        <time>2024-04-21T08:37:25Z</time>
      </trkpt>
      <trkpt lat="48.39813" lon="2.42225">
        <ele>135</ele>
        <time>2024-04-21T08:37:31Z</time>
      </trkpt>
      <trkpt lat="48.39797" lon="2.4223">
        <ele>135.4</ele>
        <time>2024-04-21T08:37:35Z</time>
      </trkpt>
      <trkpt lat="48.39789" lon="2.42231">
        <ele>135.4</ele>
        <time>2024-04-21T08:37:37Z</time>
      </trkpt>
      <trkpt lat="48.39771" lon="2.42232">
        <ele>135.6</ele>
        <time>2024-04-21T08:37:41Z</time>
      </trkpt>
      <trkpt lat="48.39753" lon="2.42233">
        <ele>136</ele>
        <time>2024-04-21T08:37:45Z</time>
      </trkpt>
      <trkpt lat="48.39723" lon="2.42237">
        <ele>136.2</ele>
        <time>2024-04-21T08:37:52Z</time>
      </trkpt>
      <trkpt lat="48.39708" lon="2.42238">
        <ele>136.2</ele>
        <time>2024-04-21T08:37:57Z</time>
      </trkpt>
      <trkpt lat="48.39705" lon="2.42238">
        <ele>136.2</ele>
        <time>2024-04-21T08:38:02Z</time>
      </trkpt>
      <trkpt lat="48.39694" lon="2.42231">
        <ele>136.2</ele>
        <time>2024-04-21T08:38:07Z</time>
      </trkpt>
      <trkpt lat="48.39687" lon="2.42226">
        <ele>136.2</ele>
        <time>2024-04-21T08:38:09Z</time>
      </trkpt>
      <trkpt lat="48.39674" lon="2.42224">
        <ele>136.4</ele>
        <time>2024-04-21T08:38:12Z</time>
      </trkpt>
      <trkpt lat="48.39662" lon="2.42238">
        <ele>136.4</ele>
        <time>2024-04-21T08:38:15Z</time>
      </trkpt>
      <trkpt lat="48.39658" lon="2.42244">
        <ele>136.4</ele>
        <time>2024-04-21T08:38:16Z</time>
      </trkpt>
      <trkpt lat="48.39655" lon="2.42268">
        <ele>136.2</ele>
        <time>2024-04-21T08:38:19Z</time>
      </trkpt>
      <trkpt lat="48.39664" lon="2.42286">
        <ele>136.2</ele>
        <time>2024-04-21T08:38:22Z</time>
      </trkpt>
      <trkpt lat="48.39672" lon="2.42309">
        <ele>135.6</ele>
        <time>2024-04-21T08:38:25Z</time>
      </trkpt>
      <trkpt lat="48.39674" lon="2.42328">
        <ele>135.2</ele>
        <time>2024-04-21T08:38:27Z</time>
      </trkpt>
      <trkpt lat="48.39676" lon="2.42357">
        <ele>134.6</ele>
        <time>2024-04-21T08:38:30Z</time>
      </trkpt>
      <trkpt lat="48.39676" lon="2.42367">
        <ele>134.4</ele>
        <time>2024-04-21T08:38:31Z</time>
      </trkpt>
      <trkpt lat="48.39684" lon="2.42438">
        <ele>134</ele>
        <time>2024-04-21T08:38:39Z</time>
      </trkpt>
      <trkpt lat="48.3969" lon="2.42505">
        <ele>134</ele>
        <time>2024-04-21T08:38:47Z</time>
      </trkpt>
      <trkpt lat="48.39694" lon="2.42566">
        <ele>133.8</ele>
        <time>2024-04-21T08:38:54Z</time>
      </trkpt>
      <trkpt lat="48.397" lon="2.42644">
        <ele>134</ele>
        <time>2024-04-21T08:39:03Z</time>
      </trkpt>
      <trkpt lat="48.39704" lon="2.42701">
        <ele>134</ele>
        <time>2024-04-21T08:39:10Z</time>
      </trkpt>
      <trkpt lat="48.39707" lon="2.42739">
        <ele>133.6</ele>
        <time>2024-04-21T08:39:15Z</time>
      </trkpt>
      <trkpt lat="48.39708" lon="2.42763">
        <ele>133.6</ele>
        <time>2024-04-21T08:39:18Z</time>
      </trkpt>
      <trkpt lat="48.3971" lon="2.42839">
        <ele>132.8</ele>
        <time>2024-04-21T08:39:27Z</time>
      </trkpt>
      <trkpt lat="48.39702" lon="2.42908">
        <ele>132.6</ele>
        <time>2024-04-21T08:39:35Z</time>
      </trkpt>
      <trkpt lat="48.39701" lon="2.42916">
        <ele>132.4</ele>
        <time>2024-04-21T08:39:36Z</time>
      </trkpt>
      <trkpt lat="48.39699" lon="2.42925">
        <ele>132.4</ele>
        <time>2024-04-21T08:39:37Z</time>
      </trkpt>
      <trkpt lat="48.39688" lon="2.42965">
        <ele>132</ele>
        <time>2024-04-21T08:39:42Z</time>
      </trkpt>
      <trkpt lat="48.39681" lon="2.42987">
        <ele>131.4</ele>
        <time>2024-04-21T08:39:45Z</time>
      </trkpt>
      <trkpt lat="48.39668" lon="2.43016">
        <ele>131.2</ele>
        <time>2024-04-21T08:39:49Z</time>
      </trkpt>
      <trkpt lat="48.3964" lon="2.43074">
        <ele>130.6</ele>
        <time>2024-04-21T08:39:57Z</time>
      </trkpt>
      <trkpt lat="48.39633" lon="2.43089">
        <ele>130.4</ele>
        <time>2024-04-21T08:39:59Z</time>
      </trkpt>
      <trkpt lat="48.39614" lon="2.43135">
        <ele>129.8</ele>
        <time>2024-04-21T08:40:05Z</time>
      </trkpt>
      <trkpt lat="48.39607" lon="2.4315">
        <ele>129.6</ele>
        <time>2024-04-21T08:40:07Z</time>
      </trkpt>
      <trkpt lat="48.39597" lon="2.43158">
        <ele>129.4</ele>
        <time>2024-04-21T08:40:09Z</time>
      </trkpt>
      <trkpt lat="48.39581" lon="2.43159">
        <ele>129.4</ele>
        <time>2024-04-21T08:40:12Z</time>
      </trkpt>
      <trkpt lat="48.3957" lon="2.43156">
        <ele>129.4</ele>
        <time>2024-04-21T08:40:14Z</time>
      </trkpt>
      <trkpt lat="48.39555" lon="2.43151">
        <ele>129.4</ele>
        <time>2024-04-21T08:40:17Z</time>
      </trkpt>
      <trkpt lat="48.3955" lon="2.43148">
        <ele>129.6</ele>
        <time>2024-04-21T08:40:18Z</time>
      </trkpt>
      <trkpt lat="48.39513" lon="2.43124">
        <ele>130.6</ele>
        <time>2024-04-21T08:40:26Z</time>
      </trkpt>
      <trkpt lat="48.39508" lon="2.4312">
        <ele>130.6</ele>
        <time>2024-04-21T08:40:27Z</time>
      </trkpt>
      <trkpt lat="48.39498" lon="2.43109">
        <ele>130.6</ele>
        <time>2024-04-21T08:40:29Z</time>
      </trkpt>
      <trkpt lat="48.3949" lon="2.43094">
        <ele>130.6</ele>
        <time>2024-04-21T08:40:31Z</time>
      </trkpt>
      <trkpt lat="48.39485" lon="2.43077">
        <ele>130.4</ele>
        <time>2024-04-21T08:40:33Z</time>
      </trkpt>
      <trkpt lat="48.39481" lon="2.4306">
        <ele>130.2</ele>
        <time>2024-04-21T08:40:35Z</time>
      </trkpt>
      <trkpt lat="48.39478" lon="2.43052">
        <ele>129.8</ele>
        <time>2024-04-21T08:40:36Z</time>
      </trkpt>
      <trkpt lat="48.39468" lon="2.43045">
        <ele>129.4</ele>
        <time>2024-04-21T08:40:38Z</time>
      </trkpt>
      <trkpt lat="48.39461" lon="2.43054">
        <ele>128.6</ele>
        <time>2024-04-21T08:40:40Z</time>
      </trkpt>
      <trkpt lat="48.39461" lon="2.43069">
        <ele>128.2</ele>
        <time>2024-04-21T08:40:42Z</time>
      </trkpt>
      <trkpt lat="48.39462" lon="2.43076">
        <ele>128.2</ele>
        <time>2024-04-21T08:40:43Z</time>
      </trkpt>
      <trkpt lat="48.39463" lon="2.43084">
        <ele>128.2</ele>
        <time>2024-04-21T08:40:44Z</time>
      </trkpt>
      <trkpt lat="48.39467" lon="2.43134">
        <ele>127.4</ele>
        <time>2024-04-21T08:40:50Z</time>
      </trkpt>
      <trkpt lat="48.39468" lon="2.43144">
        <ele>127.2</ele>
        <time>2024-04-21T08:40:51Z</time>
      </trkpt>
      <trkpt lat="48.39472" lon="2.43192">
        <ele>126</ele>
        <time>2024-04-21T08:40:56Z</time>
      </trkpt>
      <trkpt lat="48.39473" lon="2.43203">
        <ele>125.6</ele>
        <time>2024-04-21T08:40:57Z</time>
      </trkpt>
      <trkpt lat="48.39475" lon="2.43223">
        <ele>124.8</ele>
        <time>2024-04-21T08:40:59Z</time>
      </trkpt>
      <trkpt lat="48.39476" lon="2.43242">
        <ele>123.8</ele>
        <time>2024-04-21T08:41:01Z</time>
      </trkpt>
      <trkpt lat="48.39477" lon="2.4326">
        <ele>123.4</ele>
        <time>2024-04-21T08:41:03Z</time>
      </trkpt>
      <trkpt lat="48.3948" lon="2.43277">
        <ele>122.8</ele>
        <time>2024-04-21T08:41:05Z</time>
      </trkpt>
      <trkpt lat="48.39487" lon="2.43302">
        <ele>121.4</ele>
        <time>2024-04-21T08:41:08Z</time>
      </trkpt>
      <trkpt lat="48.39498" lon="2.43343">
        <ele>120.4</ele>
        <time>2024-04-21T08:41:13Z</time>
      </trkpt>
      <trkpt lat="48.39501" lon="2.43353">
        <ele>120.2</ele>
        <time>2024-04-21T08:41:14Z</time>
      </trkpt>
      <trkpt lat="48.39508" lon="2.43381">
        <ele>119.2</ele>
        <time>2024-04-21T08:41:17Z</time>
      </trkpt>
      <trkpt lat="48.39514" lon="2.43409">
        <ele>118.2</ele>
        <time>2024-04-21T08:41:20Z</time>
      </trkpt>
      <trkpt lat="48.39523" lon="2.4345">
        <ele>117.2</ele>
        <time>2024-04-21T08:41:24Z</time>
      </trkpt>
      <trkpt lat="48.39528" lon="2.4347">
        <ele>116.2</ele>
        <time>2024-04-21T08:41:26Z</time>
      </trkpt>
      <trkpt lat="48.39534" lon="2.4349">
        <ele>115.2</ele>
        <time>2024-04-21T08:41:28Z</time>
      </trkpt>
      <trkpt lat="48.39536" lon="2.435">
        <ele>114.8</ele>
        <time>2024-04-21T08:41:29Z</time>
      </trkpt>
      <trkpt lat="48.39541" lon="2.43519">
        <ele>114.6</ele>
        <time>2024-04-21T08:41:31Z</time>
      </trkpt>
      <trkpt lat="48.39549" lon="2.43539">
        <ele>114</ele>
        <time>2024-04-21T08:41:33Z</time>
      </trkpt>
      <trkpt lat="48.39558" lon="2.43558">
        <ele>112.4</ele>
        <time>2024-04-21T08:41:35Z</time>
      </trkpt>
      <trkpt lat="48.39563" lon="2.43566">
        <ele>112</ele>
        <time>2024-04-21T08:41:36Z</time>
      </trkpt>
      <trkpt lat="48.39569" lon="2.43574">
        <ele>111.8</ele>
        <time>2024-04-21T08:41:37Z</time>
      </trkpt>
      <trkpt lat="48.39587" lon="2.43591">
        <ele>111.4</ele>
        <time>2024-04-21T08:41:40Z</time>
      </trkpt>
      <trkpt lat="48.39594" lon="2.43595">
        <ele>111.2</ele>
        <time>2024-04-21T08:41:41Z</time>
      </trkpt>
      <trkpt lat="48.39631" lon="2.4362">
        <ele>110</ele>
        <time>2024-04-21T08:41:46Z</time>
      </trkpt>
      <trkpt lat="48.39638" lon="2.43626">
        <ele>109.4</ele>
        <time>2024-04-21T08:41:47Z</time>
      </trkpt>
      <trkpt lat="48.39644" lon="2.43633">
        <ele>108.8</ele>
        <time>2024-04-21T08:41:48Z</time>
      </trkpt>
      <trkpt lat="48.39656" lon="2.43648">
        <ele>107.4</ele>
        <time>2024-04-21T08:41:50Z</time>
      </trkpt>
      <trkpt lat="48.39662" lon="2.43657">
        <ele>107.2</ele>
        <time>2024-04-21T08:41:51Z</time>
      </trkpt>
      <trkpt lat="48.3967" lon="2.43677">
        <ele>106.8</ele>
        <time>2024-04-21T08:41:53Z</time>
      </trkpt>
      <trkpt lat="48.39676" lon="2.43701">
        <ele>106.4</ele>
        <time>2024-04-21T08:41:55Z</time>
      </trkpt>
      <trkpt lat="48.39678" lon="2.43725">
        <ele>106.2</ele>
        <time>2024-04-21T08:41:57Z</time>
      </trkpt>
      <trkpt lat="48.39679" lon="2.43737">
        <ele>106</ele>
        <time>2024-04-21T08:41:58Z</time>
      </trkpt>
      <trkpt lat="48.39679" lon="2.4376">
        <ele>105.8</ele>
        <time>2024-04-21T08:42:00Z</time>
      </trkpt>
      <trkpt lat="48.39681" lon="2.43783">
        <ele>105.2</ele>
        <time>2024-04-21T08:42:02Z</time>
      </trkpt>
      <trkpt lat="48.39686" lon="2.43827">
        <ele>103.6</ele>
        <time>2024-04-21T08:42:06Z</time>
      </trkpt>
      <trkpt lat="48.3969" lon="2.43849">
        <ele>103</ele>
        <time>2024-04-21T08:42:08Z</time>
      </trkpt>
      <trkpt lat="48.39693" lon="2.43859">
        <ele>102.8</ele>
        <time>2024-04-21T08:42:09Z</time>
      </trkpt>
      <trkpt lat="48.39696" lon="2.43868">
        <ele>102.4</ele>
        <time>2024-04-21T08:42:10Z</time>
      </trkpt>
      <trkpt lat="48.39705" lon="2.43886">
        <ele>101.6</ele>
        <time>2024-04-21T08:42:12Z</time>
      </trkpt>
      <trkpt lat="48.39709" lon="2.43894">
        <ele>101.6</ele>
        <time>2024-04-21T08:42:13Z</time>
      </trkpt>
      <trkpt lat="48.39714" lon="2.43903">
        <ele>101.4</ele>
        <time>2024-04-21T08:42:14Z</time>
      </trkpt>
      <trkpt lat="48.3974" lon="2.43944">
        <ele>100.2</ele>
        <time>2024-04-21T08:42:19Z</time>
      </trkpt>
      <trkpt lat="48.39755" lon="2.43968">
        <ele>98.8</ele>
        <time>2024-04-21T08:42:22Z</time>
      </trkpt>
      <trkpt lat="48.39766" lon="2.43985">
        <ele>97.4</ele>
        <time>2024-04-21T08:42:24Z</time>
      </trkpt>
      <trkpt lat="48.39782" lon="2.44011">
        <ele>96.2</ele>
        <time>2024-04-21T08:42:27Z</time>
      </trkpt>
      <trkpt lat="48.39788" lon="2.4402">
        <ele>96</ele>
        <time>2024-04-21T08:42:28Z</time>
      </trkpt>
      <trkpt lat="48.39808" lon="2.44059">
        <ele>95.4</ele>
        <time>2024-04-21T08:42:32Z</time>
      </trkpt>
      <trkpt lat="48.39812" lon="2.44071">
        <ele>95.2</ele>
        <time>2024-04-21T08:42:33Z</time>
      </trkpt>
      <trkpt lat="48.39819" lon="2.44121">
        <ele>93.8</ele>
        <time>2024-04-21T08:42:37Z</time>
      </trkpt>
      <trkpt lat="48.3982" lon="2.44133">
        <ele>93</ele>
        <time>2024-04-21T08:42:38Z</time>
      </trkpt>
      <trkpt lat="48.3982" lon="2.44146">
        <ele>92.2</ele>
        <time>2024-04-21T08:42:39Z</time>
      </trkpt>
      <trkpt lat="48.3982" lon="2.44158">
        <ele>91.2</ele>
        <time>2024-04-21T08:42:40Z</time>
      </trkpt>
      <trkpt lat="48.39822" lon="2.44182">
        <ele>90.4</ele>
        <time>2024-04-21T08:42:42Z</time>
      </trkpt>
      <trkpt lat="48.39823" lon="2.44206">
        <ele>90.2</ele>
        <time>2024-04-21T08:42:44Z</time>
      </trkpt>
      <trkpt lat="48.39824" lon="2.44242">
        <ele>88.8</ele>
        <time>2024-04-21T08:42:47Z</time>
      </trkpt>
      <trkpt lat="48.39825" lon="2.44265">
        <ele>88.4</ele>
        <time>2024-04-21T08:42:49Z</time>
      </trkpt>
      <trkpt lat="48.39828" lon="2.4432">
        <ele>88</ele>
        <time>2024-04-21T08:42:54Z</time>
      </trkpt>
      <trkpt lat="48.39828" lon="2.44331">
        <ele>87.8</ele>
        <time>2024-04-21T08:42:55Z</time>
      </trkpt>
      <trkpt lat="48.39831" lon="2.44394">
        <ele>86.4</ele>
        <time>2024-04-21T08:43:00Z</time>
      </trkpt>
      <trkpt lat="48.39833" lon="2.44419">
        <ele>85.2</ele>
        <time>2024-04-21T08:43:02Z</time>
      </trkpt>
      <trkpt lat="48.39836" lon="2.44469">
        <ele>84.4</ele>
        <time>2024-04-21T08:43:06Z</time>
      </trkpt>
      <trkpt lat="48.39837" lon="2.44481">
        <ele>84.2</ele>
        <time>2024-04-21T08:43:07Z</time>
      </trkpt>
      <trkpt lat="48.39841" lon="2.44517">
        <ele>83.2</ele>
        <time>2024-04-21T08:43:10Z</time>
      </trkpt>
      <trkpt lat="48.39845" lon="2.4454">
        <ele>82.8</ele>
        <time>2024-04-21T08:43:12Z</time>
      </trkpt>
      <trkpt lat="48.39851" lon="2.44563">
        <ele>81.8</ele>
        <time>2024-04-21T08:43:15Z</time>
      </trkpt>
      <trkpt lat="48.39858" lon="2.44572">
        <ele>81.2</ele>
        <time>2024-04-21T08:43:19Z</time>
      </trkpt>
      <trkpt lat="48.39861" lon="2.44573">
        <ele>81</ele>
        <time>2024-04-21T08:43:21Z</time>
      </trkpt>
      <trkpt lat="48.39867" lon="2.4458">
        <ele>81</ele>
        <time>2024-04-21T08:43:25Z</time>
      </trkpt>
      <trkpt lat="48.39879" lon="2.44596">
        <ele>81.2</ele>
        <time>2024-04-21T08:43:30Z</time>
      </trkpt>
      <trkpt lat="48.39882" lon="2.44603">
        <ele>81.2</ele>
        <time>2024-04-21T08:43:31Z</time>
      </trkpt>
      <trkpt lat="48.39888" lon="2.4462">
        <ele>81.2</ele>
        <time>2024-04-21T08:43:33Z</time>
      </trkpt>
      <trkpt lat="48.39893" lon="2.44635">
        <ele>81.2</ele>
        <time>2024-04-21T08:43:35Z</time>
      </trkpt>
      <trkpt lat="48.399" lon="2.44649">
        <ele>80.8</ele>
        <time>2024-04-21T08:43:37Z</time>
      </trkpt>
      <trkpt lat="48.39903" lon="2.44656">
        <ele>80.4</ele>
        <time>2024-04-21T08:43:38Z</time>
      </trkpt>
      <trkpt lat="48.39907" lon="2.44664">
        <ele>78.6</ele>
        <time>2024-04-21T08:43:39Z</time>
      </trkpt>
      <trkpt lat="48.39913" lon="2.4468">
        <ele>77.4</ele>
        <time>2024-04-21T08:43:41Z</time>
      </trkpt>
      <trkpt lat="48.3992" lon="2.44696">
        <ele>76.6</ele>
        <time>2024-04-21T08:43:43Z</time>
      </trkpt>
      <trkpt lat="48.39927" lon="2.44713">
        <ele>76.4</ele>
        <time>2024-04-21T08:43:45Z</time>
      </trkpt>
      <trkpt lat="48.39933" lon="2.44729">
        <ele>76</ele>
        <time>2024-04-21T08:43:47Z</time>
      </trkpt>
      <trkpt lat="48.39937" lon="2.44739">
        <ele>75.8</ele>
        <time>2024-04-21T08:43:48Z</time>
      </trkpt>
      <trkpt lat="48.39947" lon="2.44756">
        <ele>75</ele>
        <time>2024-04-21T08:43:50Z</time>
      </trkpt>
      <trkpt lat="48.39965" lon="2.44789">
        <ele>74.6</ele>
        <time>2024-04-21T08:43:54Z</time>
      </trkpt>
      <trkpt lat="48.39978" lon="2.44813">
        <ele>74</ele>
        <time>2024-04-21T08:43:57Z</time>
      </trkpt>
      <trkpt lat="48.39989" lon="2.44837">
        <ele>72.6</ele>
        <time>2024-04-21T08:44:00Z</time>
      </trkpt>
      <trkpt lat="48.40011" lon="2.44887">
        <ele>71.6</ele>
        <time>2024-04-21T08:44:06Z</time>
      </trkpt>
      <trkpt lat="48.40022" lon="2.44911">
        <ele>71.4</ele>
        <time>2024-04-21T08:44:09Z</time>
      </trkpt>
      <trkpt lat="48.40027" lon="2.44928">
        <ele>71.4</ele>
        <time>2024-04-21T08:44:11Z</time>
      </trkpt>
      <trkpt lat="48.40035" lon="2.44952">
        <ele>71.2</ele>
        <time>2024-04-21T08:44:14Z</time>
      </trkpt>
      <trkpt lat="48.40042" lon="2.44965">
        <ele>71</ele>
        <time>2024-04-21T08:44:16Z</time>
      </trkpt>
      <trkpt lat="48.40051" lon="2.44977">
        <ele>71</ele>
        <time>2024-04-21T08:44:18Z</time>
      </trkpt>
      <trkpt lat="48.40062" lon="2.44999">
        <ele>70.8</ele>
        <time>2024-04-21T08:44:21Z</time>
      </trkpt>
      <trkpt lat="48.40066" lon="2.45006">
        <ele>70.8</ele>
        <time>2024-04-21T08:44:22Z</time>
      </trkpt>
      <trkpt lat="48.40073" lon="2.4502">
        <ele>70.8</ele>
        <time>2024-04-21T08:44:24Z</time>
      </trkpt>
      <trkpt lat="48.40078" lon="2.45035">
        <ele>70.8</ele>
        <time>2024-04-21T08:44:26Z</time>
      </trkpt>
      <trkpt lat="48.40081" lon="2.45065">
        <ele>70.8</ele>
        <time>2024-04-21T08:44:30Z</time>
      </trkpt>
      <trkpt lat="48.40078" lon="2.4508">
        <ele>71</ele>
        <time>2024-04-21T08:44:32Z</time>
      </trkpt>
      <trkpt lat="48.40076" lon="2.45088">
        <ele>71.2</ele>
        <time>2024-04-21T08:44:33Z</time>
      </trkpt>
      <trkpt lat="48.40075" lon="2.45096">
        <ele>71.2</ele>
        <time>2024-04-21T08:44:34Z</time>
      </trkpt>
      <trkpt lat="48.4008" lon="2.4513">
        <ele>71</ele>
        <time>2024-04-21T08:44:38Z</time>
      </trkpt>
      <trkpt lat="48.40087" lon="2.45144">
        <ele>70.8</ele>
        <time>2024-04-21T08:44:40Z</time>
      </trkpt>
      <trkpt lat="48.40091" lon="2.4515">
        <ele>70.6</ele>
        <time>2024-04-21T08:44:41Z</time>
      </trkpt>
      <trkpt lat="48.40095" lon="2.45158">
        <ele>70.6</ele>
        <time>2024-04-21T08:44:42Z</time>
      </trkpt>
      <trkpt lat="48.40098" lon="2.45166">
        <ele>70.4</ele>
        <time>2024-04-21T08:44:43Z</time>
      </trkpt>
      <trkpt lat="48.40111" lon="2.4522">
        <ele>70</ele>
        <time>2024-04-21T08:44:49Z</time>
      </trkpt>
      <trkpt lat="48.40119" lon="2.45274">
        <ele>69.8</ele>
        <time>2024-04-21T08:44:55Z</time>
      </trkpt>
      <trkpt lat="48.40121" lon="2.45346">
        <ele>69.8</ele>
        <time>2024-04-21T08:45:03Z</time>
      </trkpt>
      <trkpt lat="48.4012" lon="2.45361">
        <ele>69.6</ele>
        <time>2024-04-21T08:45:05Z</time>
      </trkpt>
      <trkpt lat="48.40119" lon="2.45389">
        <ele>69.6</ele>
        <time>2024-04-21T08:45:09Z</time>
      </trkpt>
      <trkpt lat="48.40117" lon="2.45401">
        <ele>69.6</ele>
        <time>2024-04-21T08:45:11Z</time>
      </trkpt>
      <trkpt lat="48.40111" lon="2.45404">
        <ele>69.6</ele>
        <time>2024-04-21T08:45:13Z</time>
      </trkpt>
      <trkpt lat="48.40104" lon="2.45399">
        <ele>69.6</ele>
        <time>2024-04-21T08:45:15Z</time>
      </trkpt>
      <trkpt lat="48.40096" lon="2.45394">
        <ele>69.6</ele>
        <time>2024-04-21T08:45:17Z</time>
      </trkpt>
      <trkpt lat="48.40077" lon="2.45388">
        <ele>69.8</ele>
        <time>2024-04-21T08:45:21Z</time>
      </trkpt>
      <trkpt lat="48.40068" lon="2.45386">
        <ele>69.8</ele>
        <time>2024-04-21T08:45:23Z</time>
      </trkpt>
      <trkpt lat="48.40031" lon="2.45381">
        <ele>70.4</ele>
        <time>2024-04-21T08:45:31Z</time>
      </trkpt>
      <trkpt lat="48.40018" lon="2.45379">
        <ele>70.6</ele>
        <time>2024-04-21T08:45:34Z</time>
      </trkpt>
      <trkpt lat="48.39994" lon="2.45376">
        <ele>71</ele>
        <time>2024-04-21T08:45:39Z</time>
      </trkpt>
      <trkpt lat="48.3998" lon="2.45376">
        <ele>71.2</ele>
        <time>2024-04-21T08:45:42Z</time>
      </trkpt>
      <trkpt lat="48.3996" lon="2.45375">
        <ele>71.4</ele>
        <time>2024-04-21T08:45:46Z</time>
      </trkpt>
      <trkpt lat="48.39946" lon="2.45378">
        <ele>71.8</ele>
        <time>2024-04-21T08:45:49Z</time>
      </trkpt>
      <trkpt lat="48.39937" lon="2.45381">
        <ele>72</ele>
        <time>2024-04-21T08:45:51Z</time>
      </trkpt>
      <trkpt lat="48.39929" lon="2.45384">
        <ele>72.2</ele>
        <time>2024-04-21T08:45:53Z</time>
      </trkpt>
      <trkpt lat="48.39909" lon="2.45395">
        <ele>72.4</ele>
        <time>2024-04-21T08:45:58Z</time>
      </trkpt>
      <trkpt lat="48.39874" lon="2.45405">
        <ele>72.2</ele>
        <time>2024-04-21T08:46:06Z</time>
      </trkpt>
      <trkpt lat="48.39844" lon="2.4541">
        <ele>72</ele>
        <time>2024-04-21T08:46:12Z</time>
      </trkpt>
      <trkpt lat="48.39804" lon="2.45415">
        <ele>72</ele>
        <time>2024-04-21T08:46:20Z</time>
      </trkpt>
      <trkpt lat="48.39765" lon="2.45427">
        <ele>72.4</ele>
        <time>2024-04-21T08:46:27Z</time>
      </trkpt>
      <trkpt lat="48.39726" lon="2.45439">
        <ele>72.8</ele>
        <time>2024-04-21T08:46:34Z</time>
      </trkpt>
      <trkpt lat="48.39721" lon="2.45441">
        <ele>73</ele>
        <time>2024-04-21T08:46:35Z</time>
      </trkpt>
      <trkpt lat="48.39679" lon="2.4545">
        <ele>73.2</ele>
        <time>2024-04-21T08:46:43Z</time>
      </trkpt>
      <trkpt lat="48.39656" lon="2.45454">
        <ele>73.4</ele>
        <time>2024-04-21T08:46:49Z</time>
      </trkpt>
      <trkpt lat="48.39635" lon="2.45456">
        <ele>73.4</ele>
        <time>2024-04-21T08:46:56Z</time>
      </trkpt>
      <trkpt lat="48.39623" lon="2.45451">
        <ele>73.4</ele>
        <time>2024-04-21T08:46:59Z</time>
      </trkpt>
      <trkpt lat="48.39613" lon="2.45449">
        <ele>73.4</ele>
        <time>2024-04-21T08:47:01Z</time>
      </trkpt>
      <trkpt lat="48.3958" lon="2.45438">
        <ele>73.4</ele>
        <time>2024-04-21T08:47:08Z</time>
      </trkpt>
      <trkpt lat="48.39543" lon="2.45424">
        <ele>73.8</ele>
        <time>2024-04-21T08:47:16Z</time>
      </trkpt>
      <trkpt lat="48.39538" lon="2.45423">
        <ele>74</ele>
        <time>2024-04-21T08:47:17Z</time>
      </trkpt>
      <trkpt lat="48.39512" lon="2.4541">
        <ele>74.8</ele>
        <time>2024-04-21T08:47:24Z</time>
      </trkpt>
      <trkpt lat="48.39498" lon="2.45408">
        <ele>75</ele>
        <time>2024-04-21T08:47:28Z</time>
      </trkpt>
      <trkpt lat="48.39495" lon="2.45413">
        <ele>75</ele>
        <time>2024-04-21T08:47:29Z</time>
      </trkpt>
      <trkpt lat="48.39491" lon="2.45437">
        <ele>75</ele>
        <time>2024-04-21T08:47:33Z</time>
      </trkpt>
      <trkpt lat="48.39493" lon="2.45449">
        <ele>75</ele>
        <time>2024-04-21T08:47:35Z</time>
      </trkpt>
      <trkpt lat="48.39494" lon="2.45475">
        <ele>74.8</ele>
        <time>2024-04-21T08:47:39Z</time>
      </trkpt>
      <trkpt lat="48.395" lon="2.45519">
        <ele>74.4</ele>
        <time>2024-04-21T08:47:46Z</time>
      </trkpt>
      <trkpt lat="48.39503" lon="2.45554">
        <ele>74.4</ele>
        <time>2024-04-21T08:47:52Z</time>
      </trkpt>
      <trkpt lat="48.39515" lon="2.45587">
        <ele>74.6</ele>
        <time>2024-04-21T08:47:58Z</time>
      </trkpt>
      <trkpt lat="48.39529" lon="2.45616">
        <ele>74.6</ele>
        <time>2024-04-21T08:48:03Z</time>
      </trkpt>
      <trkpt lat="48.39533" lon="2.45622">
        <ele>74.6</ele>
        <time>2024-04-21T08:48:04Z</time>
      </trkpt>
      <trkpt lat="48.39537" lon="2.45628">
        <ele>74.6</ele>
        <time>2024-04-21T08:48:05Z</time>
      </trkpt>
      <trkpt lat="48.39552" lon="2.45654">
        <ele>74.2</ele>
        <time>2024-04-21T08:48:09Z</time>
      </trkpt>
      <trkpt lat="48.39564" lon="2.45677">
        <ele>73.8</ele>
        <time>2024-04-21T08:48:13Z</time>
      </trkpt>
      <trkpt lat="48.39565" lon="2.45683">
        <ele>73.8</ele>
        <time>2024-04-21T08:48:14Z</time>
      </trkpt>
      <trkpt lat="48.39566" lon="2.4569">
        <ele>73.6</ele>
        <time>2024-04-21T08:48:16Z</time>
      </trkpt>
      <trkpt lat="48.39565" lon="2.45692">
        <ele>73.6</ele>
        <time>2024-04-21T08:48:17Z</time>
      </trkpt>
      <trkpt lat="48.39561" lon="2.45696">
        <ele>73.6</ele>
        <time>2024-04-21T08:48:20Z</time>
      </trkpt>
      <trkpt lat="48.39554" lon="2.45701">
        <ele>74.2</ele>
        <time>2024-04-21T08:48:23Z</time>
      </trkpt>
      <trkpt lat="48.39552" lon="2.45704">
        <ele>75</ele>
        <time>2024-04-21T08:48:24Z</time>
      </trkpt>
      <trkpt lat="48.39547" lon="2.45707">
        <ele>76.2</ele>
        <time>2024-04-21T08:48:26Z</time>
      </trkpt>
      <trkpt lat="48.39539" lon="2.45716">
        <ele>77.6</ele>
        <time>2024-04-21T08:48:29Z</time>
      </trkpt>
      <trkpt lat="48.39533" lon="2.45721">
        <ele>78.6</ele>
        <time>2024-04-21T08:48:31Z</time>
      </trkpt>
      <trkpt lat="48.39527" lon="2.45726">
        <ele>79.2</ele>
        <time>2024-04-21T08:48:33Z</time>
      </trkpt>
      <trkpt lat="48.39522" lon="2.4573">
        <ele>80</ele>
        <time>2024-04-21T08:48:35Z</time>
      </trkpt>
      <trkpt lat="48.39511" lon="2.45735">
        <ele>81</ele>
        <time>2024-04-21T08:48:39Z</time>
      </trkpt>
      <trkpt lat="48.39498" lon="2.45741">
        <ele>82.4</ele>
        <time>2024-04-21T08:48:44Z</time>
      </trkpt>
      <trkpt lat="48.39491" lon="2.45744">
        <ele>83.2</ele>
        <time>2024-04-21T08:48:47Z</time>
      </trkpt>
      <trkpt lat="48.39488" lon="2.45744">
        <ele>83.2</ele>
        <time>2024-04-21T08:48:48Z</time>
      </trkpt>
      <trkpt lat="48.39475" lon="2.45755">
        <ele>84.2</ele>
        <time>2024-04-21T08:48:53Z</time>
      </trkpt>
      <trkpt lat="48.39473" lon="2.45758">
        <ele>84.6</ele>
        <time>2024-04-21T08:48:54Z</time>
      </trkpt>
      <trkpt lat="48.39466" lon="2.4577">
        <ele>85.6</ele>
        <time>2024-04-21T08:48:58Z</time>
      </trkpt>
      <trkpt lat="48.39462" lon="2.45776">
        <ele>86.6</ele>
        <time>2024-04-21T08:49:00Z</time>
      </trkpt>
      <trkpt lat="48.39461" lon="2.45786">
        <ele>87.8</ele>
        <time>2024-04-21T08:49:04Z</time>
      </trkpt>
      <trkpt lat="48.39462" lon="2.45788">
        <ele>88</ele>
        <time>2024-04-21T08:49:05Z</time>
      </trkpt>
      <trkpt lat="48.39465" lon="2.45797">
        <ele>88.8</ele>
        <time>2024-04-21T08:49:11Z</time>
      </trkpt>
      <trkpt lat="48.39465" lon="2.45798">
        <ele>89.2</ele>
        <time>2024-04-21T08:49:12Z</time>
      </trkpt>
      <trkpt lat="48.39464" lon="2.45801">
        <ele>89.6</ele>
        <time>2024-04-21T08:49:21Z</time>
      </trkpt>
      <trkpt lat="48.39469" lon="2.45803">
        <ele>89.2</ele>
        <time>2024-04-21T08:49:32Z</time>
      </trkpt>
      <trkpt lat="48.39472" lon="2.45806">
        <ele>89.2</ele>
        <time>2024-04-21T08:49:34Z</time>
      </trkpt>
      <trkpt lat="48.39475" lon="2.45815">
        <ele>89.2</ele>
        <time>2024-04-21T08:49:36Z</time>
      </trkpt>
      <trkpt lat="48.39477" lon="2.45826">
        <ele>89.2</ele>
        <time>2024-04-21T08:49:38Z</time>
      </trkpt>
      <trkpt lat="48.39481" lon="2.45849">
        <ele>88.6</ele>
        <time>2024-04-21T08:49:41Z</time>
      </trkpt>
      <trkpt lat="48.39484" lon="2.45866">
        <ele>88</ele>
        <time>2024-04-21T08:49:43Z</time>
      </trkpt>
      <trkpt lat="48.39484" lon="2.45887">
        <ele>86.8</ele>
        <time>2024-04-21T08:49:45Z</time>
      </trkpt>
      <trkpt lat="48.39483" lon="2.45896">
        <ele>86.2</ele>
        <time>2024-04-21T08:49:46Z</time>
      </trkpt>
      <trkpt lat="48.39482" lon="2.45904">
        <ele>85.4</ele>
        <time>2024-04-21T08:49:47Z</time>
      </trkpt>
      <trkpt lat="48.39481" lon="2.45912">
        <ele>84.2</ele>
        <time>2024-04-21T08:49:48Z</time>
      </trkpt>
      <trkpt lat="48.3948" lon="2.45919">
        <ele>83</ele>
        <time>2024-04-21T08:49:49Z</time>
      </trkpt>
      <trkpt lat="48.39479" lon="2.45927">
        <ele>81.8</ele>
        <time>2024-04-21T08:49:50Z</time>
      </trkpt>
      <trkpt lat="48.39479" lon="2.45935">
        <ele>80.4</ele>
        <time>2024-04-21T08:49:51Z</time>
      </trkpt>
      <trkpt lat="48.39478" lon="2.45942">
        <ele>79.2</ele>
        <time>2024-04-21T08:49:52Z</time>
      </trkpt>
      <trkpt lat="48.39474" lon="2.45961">
        <ele>78</ele>
        <time>2024-04-21T08:49:55Z</time>
      </trkpt>
      <trkpt lat="48.39463" lon="2.45983">
        <ele>77.6</ele>
        <time>2024-04-21T08:50:00Z</time>
      </trkpt>
      <trkpt lat="48.39455" lon="2.45993">
        <ele>77.8</ele>
        <time>2024-04-21T08:50:05Z</time>
      </trkpt>
      <trkpt lat="48.39447" lon="2.46008">
        <ele>78.4</ele>
        <time>2024-04-21T08:50:11Z</time>
      </trkpt>
      <trkpt lat="48.39434" lon="2.46023">
        <ele>79.2</ele>
        <time>2024-04-21T08:50:18Z</time>
      </trkpt>
      <trkpt lat="48.39432" lon="2.46027">
        <ele>79.4</ele>
        <time>2024-04-21T08:50:19Z</time>
      </trkpt>
      <trkpt lat="48.39423" lon="2.46044">
        <ele>79.8</ele>
        <time>2024-04-21T08:50:24Z</time>
      </trkpt>
      <trkpt lat="48.39414" lon="2.46046">
        <ele>80</ele>
        <time>2024-04-21T08:50:29Z</time>
      </trkpt>
      <trkpt lat="48.3941" lon="2.46041">
        <ele>80</ele>
        <time>2024-04-21T08:50:32Z</time>
      </trkpt>
      <trkpt lat="48.39406" lon="2.46035">
        <ele>80.2</ele>
        <time>2024-04-21T08:50:35Z</time>
      </trkpt>
      <trkpt lat="48.39393" lon="2.46027">
        <ele>80.6</ele>
        <time>2024-04-21T08:50:41Z</time>
      </trkpt>
      <trkpt lat="48.39391" lon="2.46026">
        <ele>81.2</ele>
        <time>2024-04-21T08:50:42Z</time>
      </trkpt>
      <trkpt lat="48.39386" lon="2.46024">
        <ele>82</ele>
        <time>2024-04-21T08:50:44Z</time>
      </trkpt>
      <trkpt lat="48.39384" lon="2.46025">
        <ele>82.2</ele>
        <time>2024-04-21T08:50:45Z</time>
      </trkpt>
      <trkpt lat="48.39383" lon="2.46027">
        <ele>82.8</ele>
        <time>2024-04-21T08:50:46Z</time>
      </trkpt>
      <trkpt lat="48.3938" lon="2.46031">
        <ele>83.4</ele>
        <time>2024-04-21T08:50:48Z</time>
      </trkpt>
      <trkpt lat="48.39379" lon="2.46033">
        <ele>83.8</ele>
        <time>2024-04-21T08:50:49Z</time>
      </trkpt>
      <trkpt lat="48.39375" lon="2.46042">
        <ele>84.6</ele>
        <time>2024-04-21T08:50:52Z</time>
      </trkpt>
      <trkpt lat="48.39366" lon="2.46058">
        <ele>85.2</ele>
        <time>2024-04-21T08:50:58Z</time>
      </trkpt>
      <trkpt lat="48.39363" lon="2.46064">
        <ele>85.4</ele>
        <time>2024-04-21T08:51:01Z</time>
      </trkpt>
      <trkpt lat="48.39359" lon="2.46069">
        <ele>85.4</ele>
        <time>2024-04-21T08:51:04Z</time>
      </trkpt>
      <trkpt lat="48.39355" lon="2.46082">
        <ele>85.6</ele>
        <time>2024-04-21T08:51:08Z</time>
      </trkpt>
      <trkpt lat="48.39347" lon="2.46096">
        <ele>85.6</ele>
        <time>2024-04-21T08:51:11Z</time>
      </trkpt>
      <trkpt lat="48.39343" lon="2.46104">
        <ele>85.4</ele>
        <time>2024-04-21T08:51:13Z</time>
      </trkpt>
      <trkpt lat="48.39328" lon="2.46118">
        <ele>84</ele>
        <time>2024-04-21T08:51:18Z</time>
      </trkpt>
      <trkpt lat="48.39321" lon="2.46123">
        <ele>83.4</ele>
        <time>2024-04-21T08:51:20Z</time>
      </trkpt>
      <trkpt lat="48.39311" lon="2.46131">
        <ele>83</ele>
        <time>2024-04-21T08:51:24Z</time>
      </trkpt>
      <trkpt lat="48.39301" lon="2.46145">
        <ele>82.8</ele>
        <time>2024-04-21T08:51:28Z</time>
      </trkpt>
      <trkpt lat="48.39295" lon="2.46144">
        <ele>82.8</ele>
        <time>2024-04-21T08:51:31Z</time>
      </trkpt>
      <trkpt lat="48.3929" lon="2.46137">
        <ele>82.8</ele>
        <time>2024-04-21T08:51:36Z</time>
      </trkpt>
      <trkpt lat="48.39288" lon="2.4613">
        <ele>83.6</ele>
        <time>2024-04-21T08:51:40Z</time>
      </trkpt>
      <trkpt lat="48.39285" lon="2.46127">
        <ele>84.4</ele>
        <time>2024-04-21T08:51:42Z</time>
      </trkpt>
      <trkpt lat="48.39281" lon="2.4612">
        <ele>85.4</ele>
        <time>2024-04-21T08:51:45Z</time>
      </trkpt>
      <trkpt lat="48.39278" lon="2.46112">
        <ele>86.4</ele>
        <time>2024-04-21T08:51:48Z</time>
      </trkpt>
      <trkpt lat="48.39278" lon="2.46104">
        <ele>87.6</ele>
        <time>2024-04-21T08:51:51Z</time>
      </trkpt>
      <trkpt lat="48.39276" lon="2.461">
        <ele>88</ele>
        <time>2024-04-21T08:51:53Z</time>
      </trkpt>
      <trkpt lat="48.39276" lon="2.46099">
        <ele>88.4</ele>
        <time>2024-04-21T08:51:54Z</time>
      </trkpt>
      <trkpt lat="48.39273" lon="2.46097">
        <ele>88.6</ele>
        <time>2024-04-21T08:51:56Z</time>
      </trkpt>
      <trkpt lat="48.39268" lon="2.46095">
        <ele>88.8</ele>
        <time>2024-04-21T08:51:59Z</time>
      </trkpt>
      <trkpt lat="48.39263" lon="2.46087">
        <ele>88.8</ele>
        <time>2024-04-21T08:52:04Z</time>
      </trkpt>
      <trkpt lat="48.39265" lon="2.46077">
        <ele>89</ele>
        <time>2024-04-21T08:52:08Z</time>
      </trkpt>
      <trkpt lat="48.39267" lon="2.46056">
        <ele>89.2</ele>
        <time>2024-04-21T08:52:13Z</time>
      </trkpt>
      <trkpt lat="48.39272" lon="2.46047">
        <ele>89.6</ele>
        <time>2024-04-21T08:52:16Z</time>
      </trkpt>
      <trkpt lat="48.39273" lon="2.46045">
        <ele>89.8</ele>
        <time>2024-04-21T08:52:17Z</time>
      </trkpt>
      <trkpt lat="48.39275" lon="2.46045">
        <ele>90</ele>
        <time>2024-04-21T08:52:18Z</time>
      </trkpt>
      <trkpt lat="48.39282" lon="2.46038">
        <ele>90.6</ele>
        <time>2024-04-21T08:52:23Z</time>
      </trkpt>
      <trkpt lat="48.39283" lon="2.46034">
        <ele>91</ele>
        <time>2024-04-21T08:52:25Z</time>
      </trkpt>
      <trkpt lat="48.39284" lon="2.46031">
        <ele>91.8</ele>
        <time>2024-04-21T08:52:27Z</time>
      </trkpt>
      <trkpt lat="48.39286" lon="2.46029">
        <ele>92.2</ele>
        <time>2024-04-21T08:52:28Z</time>
      </trkpt>
      <trkpt lat="48.39289" lon="2.46021">
        <ele>93.6</ele>
        <time>2024-04-21T08:52:31Z</time>
      </trkpt>
      <trkpt lat="48.39291" lon="2.46016">
        <ele>94.6</ele>
        <time>2024-04-21T08:52:34Z</time>
      </trkpt>
      <trkpt lat="48.39292" lon="2.46016">
        <ele>94.8</ele>
        <time>2024-04-21T08:52:35Z</time>
      </trkpt>
      <trkpt lat="48.39293" lon="2.46019">
        <ele>95</ele>
        <time>2024-04-21T08:52:39Z</time>
      </trkpt>
      <trkpt lat="48.39292" lon="2.4602">
        <ele>96</ele>
        <time>2024-04-21T08:52:48Z</time>
      </trkpt>
      <trkpt lat="48.39292" lon="2.4602">
        <ele>96</ele>
        <time>2024-04-21T08:52:49Z</time>
      </trkpt>
      <trkpt lat="48.39293" lon="2.4602">
        <ele>96.4</ele>
        <time>2024-04-21T08:53:07Z</time>
      </trkpt>
      <trkpt lat="48.39294" lon="2.46021">
        <ele>96.2</ele>
        <time>2024-04-21T08:53:24Z</time>
      </trkpt>
      <trkpt lat="48.39293" lon="2.46025">
        <ele>96.2</ele>
        <time>2024-04-21T08:53:31Z</time>
      </trkpt>
      <trkpt lat="48.39294" lon="2.46032">
        <ele>96.2</ele>
        <time>2024-04-21T08:53:33Z</time>
      </trkpt>
      <trkpt lat="48.39301" lon="2.46036">
        <ele>96.2</ele>
        <time>2024-04-21T08:53:36Z</time>
      </trkpt>
      <trkpt lat="48.39309" lon="2.46035">
        <ele>96</ele>
        <time>2024-04-21T08:53:38Z</time>
      </trkpt>
      <trkpt lat="48.3932" lon="2.4603">
        <ele>94.6</ele>
        <time>2024-04-21T08:53:41Z</time>
      </trkpt>
      <trkpt lat="48.39324" lon="2.46026">
        <ele>93.6</ele>
        <time>2024-04-21T08:53:42Z</time>
      </trkpt>
      <trkpt lat="48.3933" lon="2.46019">
        <ele>92</ele>
        <time>2024-04-21T08:53:44Z</time>
      </trkpt>
      <trkpt lat="48.39334" lon="2.46011">
        <ele>91.2</ele>
        <time>2024-04-21T08:53:46Z</time>
      </trkpt>
      <trkpt lat="48.39336" lon="2.46007">
        <ele>91</ele>
        <time>2024-04-21T08:53:47Z</time>
      </trkpt>
      <trkpt lat="48.39336" lon="2.45987">
        <ele>90.2</ele>
        <time>2024-04-21T08:53:51Z</time>
      </trkpt>
      <trkpt lat="48.39341" lon="2.45968">
        <ele>89.8</ele>
        <time>2024-04-21T08:53:55Z</time>
      </trkpt>
      <trkpt lat="48.39353" lon="2.45962">
        <ele>88.8</ele>
        <time>2024-04-21T08:54:00Z</time>
      </trkpt>
      <trkpt lat="48.39355" lon="2.45959">
        <ele>88.6</ele>
        <time>2024-04-21T08:54:01Z</time>
      </trkpt>
      <trkpt lat="48.39356" lon="2.45949">
        <ele>88.6</ele>
        <time>2024-04-21T08:54:04Z</time>
      </trkpt>
      <trkpt lat="48.39352" lon="2.45934">
        <ele>88.6</ele>
        <time>2024-04-21T08:54:09Z</time>
      </trkpt>
      <trkpt lat="48.39354" lon="2.45929">
        <ele>89.4</ele>
        <time>2024-04-21T08:54:14Z</time>
      </trkpt>
      <trkpt lat="48.39354" lon="2.45929">
        <ele>89.6</ele>
        <time>2024-04-21T08:54:15Z</time>
      </trkpt>
      <trkpt lat="48.39354" lon="2.45929">
        <ele>90.8</ele>
        <time>2024-04-21T08:54:18Z</time>
      </trkpt>
      <trkpt lat="48.39355" lon="2.45928">
        <ele>91.4</ele>
        <time>2024-04-21T08:54:28Z</time>
      </trkpt>
      <trkpt lat="48.39357" lon="2.45924">
        <ele>91.4</ele>
        <time>2024-04-21T08:54:32Z</time>
      </trkpt>
      <trkpt lat="48.3936" lon="2.45919">
        <ele>91.4</ele>
        <time>2024-04-21T08:54:35Z</time>
      </trkpt>
      <trkpt lat="48.39366" lon="2.45915">
        <ele>91.4</ele>
        <time>2024-04-21T08:54:41Z</time>
      </trkpt>
      <trkpt lat="48.39368" lon="2.45914">
        <ele>91.6</ele>
        <time>2024-04-21T08:54:43Z</time>
      </trkpt>
      <trkpt lat="48.39368" lon="2.45912">
        <ele>92.6</ele>
        <time>2024-04-21T08:54:47Z</time>
      </trkpt>
      <trkpt lat="48.39369" lon="2.45913">
        <ele>93</ele>
        <time>2024-04-21T08:55:03Z</time>
      </trkpt>
      <trkpt lat="48.39371" lon="2.45914">
        <ele>93</ele>
        <time>2024-04-21T08:55:16Z</time>
      </trkpt>
      <trkpt lat="48.39371" lon="2.45914">
        <ele>92.8</ele>
        <time>2024-04-21T08:55:36Z</time>
      </trkpt>
      <trkpt lat="48.39371" lon="2.45913">
        <ele>92.8</ele>
        <time>2024-04-21T08:55:55Z</time>
      </trkpt>
      <trkpt lat="48.39371" lon="2.45912">
        <ele>93.2</ele>
        <time>2024-04-21T08:56:12Z</time>
      </trkpt>
      <trkpt lat="48.39376" lon="2.45913">
        <ele>93.2</ele>
        <time>2024-04-21T08:56:18Z</time>
      </trkpt>
      <trkpt lat="48.39379" lon="2.45915">
        <ele>93.2</ele>
        <time>2024-04-21T08:56:20Z</time>
      </trkpt>
      <trkpt lat="48.39388" lon="2.45927">
        <ele>93.2</ele>
        <time>2024-04-21T08:56:27Z</time>
      </trkpt>
      <trkpt lat="48.39395" lon="2.45922">
        <ele>93.6</ele>
        <time>2024-04-21T08:56:32Z</time>
      </trkpt>
      <trkpt lat="48.39396" lon="2.45921">
        <ele>94</ele>
        <time>2024-04-21T08:56:33Z</time>
      </trkpt>
      <trkpt lat="48.394" lon="2.4592">
        <ele>95</ele>
        <time>2024-04-21T08:56:37Z</time>
      </trkpt>
      <trkpt lat="48.394" lon="2.45919">
        <ele>95.2</ele>
        <time>2024-04-21T08:56:38Z</time>
      </trkpt>
      <trkpt lat="48.39404" lon="2.45916">
        <ele>96.2</ele>
        <time>2024-04-21T08:56:42Z</time>
      </trkpt>
      <trkpt lat="48.39405" lon="2.45912">
        <ele>96.4</ele>
        <time>2024-04-21T08:56:44Z</time>
      </trkpt>
      <trkpt lat="48.39409" lon="2.45909">
        <ele>96.8</ele>
        <time>2024-04-21T08:56:47Z</time>
      </trkpt>
      <trkpt lat="48.39411" lon="2.4591">
        <ele>96.8</ele>
        <time>2024-04-21T08:56:50Z</time>
      </trkpt>
      <trkpt lat="48.39413" lon="2.4591">
        <ele>97</ele>
        <time>2024-04-21T08:56:53Z</time>
      </trkpt>
      <trkpt lat="48.39413" lon="2.45908">
        <ele>97.4</ele>
        <time>2024-04-21T08:56:57Z</time>
      </trkpt>
      <trkpt lat="48.39413" lon="2.45908">
        <ele>98</ele>
        <time>2024-04-21T08:57:03Z</time>
      </trkpt>
      <trkpt lat="48.39415" lon="2.45914">
        <ele>98</ele>
        <time>2024-04-21T08:57:09Z</time>
      </trkpt>
      <trkpt lat="48.39416" lon="2.45917">
        <ele>98</ele>
        <time>2024-04-21T08:57:11Z</time>
      </trkpt>
      <trkpt lat="48.39422" lon="2.4591">
        <ele>98</ele>
        <time>2024-04-21T08:57:15Z</time>
      </trkpt>
      <trkpt lat="48.39423" lon="2.45908">
        <ele>97.8</ele>
        <time>2024-04-21T08:57:16Z</time>
      </trkpt>
      <trkpt lat="48.39428" lon="2.45897">
        <ele>96.2</ele>
        <time>2024-04-21T08:57:20Z</time>
      </trkpt>
      <trkpt lat="48.39428" lon="2.45895">
        <ele>95.8</ele>
        <time>2024-04-21T08:57:21Z</time>
      </trkpt>
      <trkpt lat="48.39426" lon="2.45883">
        <ele>95.4</ele>
        <time>2024-04-21T08:57:26Z</time>
      </trkpt>
      <trkpt lat="48.39425" lon="2.45883">
        <ele>95.4</ele>
        <time>2024-04-21T08:57:27Z</time>
      </trkpt>
      <trkpt lat="48.39421" lon="2.45883">
        <ele>96.8</ele>
        <time>2024-04-21T08:57:33Z</time>
      </trkpt>
      <trkpt lat="48.39421" lon="2.45883">
        <ele>97.2</ele>
        <time>2024-04-21T08:57:34Z</time>
      </trkpt>
      <trkpt lat="48.3942" lon="2.45883">
        <ele>97.8</ele>
        <time>2024-04-21T08:57:44Z</time>
      </trkpt>
      <trkpt lat="48.39419" lon="2.45884">
        <ele>98</ele>
        <time>2024-04-21T08:57:53Z</time>
      </trkpt>
      <trkpt lat="48.39419" lon="2.45884">
        <ele>98.2</ele>
        <time>2024-04-21T08:58:05Z</time>
      </trkpt>
      <trkpt lat="48.39419" lon="2.45884">
        <ele>98.4</ele>
        <time>2024-04-21T08:58:11Z</time>
      </trkpt>
      <trkpt lat="48.39409" lon="2.45895">
        <ele>98.4</ele>
        <time>2024-04-21T08:58:17Z</time>
      </trkpt>
      <trkpt lat="48.39404" lon="2.45896">
        <ele>98.4</ele>
        <time>2024-04-21T08:58:19Z</time>
      </trkpt>
      <trkpt lat="48.39402" lon="2.45894">
        <ele>98.2</ele>
        <time>2024-04-21T08:58:20Z</time>
      </trkpt>
      <trkpt lat="48.39401" lon="2.45882">
        <ele>96.8</ele>
        <time>2024-04-21T08:58:24Z</time>
      </trkpt>
      <trkpt lat="48.39401" lon="2.45868">
        <ele>95.6</ele>
        <time>2024-04-21T08:58:28Z</time>
      </trkpt>
      <trkpt lat="48.39401" lon="2.45863">
        <ele>95.6</ele>
        <time>2024-04-21T08:58:30Z</time>
      </trkpt>
      <trkpt lat="48.39398" lon="2.45849">
        <ele>95.8</ele>
        <time>2024-04-21T08:58:36Z</time>
      </trkpt>
      <trkpt lat="48.394" lon="2.4584">
        <ele>96.4</ele>
        <time>2024-04-21T08:58:40Z</time>
      </trkpt>
      <trkpt lat="48.39402" lon="2.45836">
        <ele>96.8</ele>
        <time>2024-04-21T08:58:42Z</time>
      </trkpt>
      <trkpt lat="48.39404" lon="2.45824">
        <ele>97</ele>
        <time>2024-04-21T08:58:46Z</time>
      </trkpt>
      <trkpt lat="48.39405" lon="2.45812">
        <ele>96.8</ele>
        <time>2024-04-21T08:58:52Z</time>
      </trkpt>
      <trkpt lat="48.39406" lon="2.45807">
        <ele>96.4</ele>
        <time>2024-04-21T08:58:54Z</time>
      </trkpt>
      <trkpt lat="48.39405" lon="2.45803">
        <ele>96.2</ele>
        <time>2024-04-21T08:58:58Z</time>
      </trkpt>
      <trkpt lat="48.39407" lon="2.4579">
        <ele>96</ele>
        <time>2024-04-21T08:59:05Z</time>
      </trkpt>
      <trkpt lat="48.39409" lon="2.4578">
        <ele>95.8</ele>
        <time>2024-04-21T08:59:09Z</time>
      </trkpt>
      <trkpt lat="48.39409" lon="2.45778">
        <ele>95.6</ele>
        <time>2024-04-21T08:59:10Z</time>
      </trkpt>
      <trkpt lat="48.39407" lon="2.45777">
        <ele>95.2</ele>
        <time>2024-04-21T08:59:12Z</time>
      </trkpt>
      <trkpt lat="48.39405" lon="2.45777">
        <ele>95</ele>
        <time>2024-04-21T08:59:13Z</time>
      </trkpt>
      <trkpt lat="48.39402" lon="2.45778">
        <ele>94.8</ele>
        <time>2024-04-21T08:59:15Z</time>
      </trkpt>
      <trkpt lat="48.39396" lon="2.4577">
        <ele>94.6</ele>
        <time>2024-04-21T08:59:18Z</time>
      </trkpt>
      <trkpt lat="48.39389" lon="2.45764">
        <ele>94.4</ele>
        <time>2024-04-21T08:59:21Z</time>
      </trkpt>
      <trkpt lat="48.39385" lon="2.45763">
        <ele>94.2</ele>
        <time>2024-04-21T08:59:22Z</time>
      </trkpt>
      <trkpt lat="48.39381" lon="2.45764">
        <ele>93.8</ele>
        <time>2024-04-21T08:59:23Z</time>
      </trkpt>
      <trkpt lat="48.39378" lon="2.45763">
        <ele>93.2</ele>
        <time>2024-04-21T08:59:24Z</time>
      </trkpt>
      <trkpt lat="48.39376" lon="2.45759">
        <ele>92.4</ele>
        <time>2024-04-21T08:59:25Z</time>
      </trkpt>
      <trkpt lat="48.39376" lon="2.45755">
        <ele>91.4</ele>
        <time>2024-04-21T08:59:26Z</time>
      </trkpt>
      <trkpt lat="48.39377" lon="2.45752">
        <ele>90.6</ele>
        <time>2024-04-21T08:59:27Z</time>
      </trkpt>
      <trkpt lat="48.39376" lon="2.45747">
        <ele>89</ele>
        <time>2024-04-21T08:59:29Z</time>
      </trkpt>
      <trkpt lat="48.39376" lon="2.45743">
        <ele>88</ele>
        <time>2024-04-21T08:59:31Z</time>
      </trkpt>
      <trkpt lat="48.39375" lon="2.45742">
        <ele>87.8</ele>
        <time>2024-04-21T08:59:32Z</time>
      </trkpt>
      <trkpt lat="48.39373" lon="2.45738">
        <ele>87.2</ele>
        <time>2024-04-21T08:59:40Z</time>
      </trkpt>
      <trkpt lat="48.3937" lon="2.45738">
        <ele>87</ele>
        <time>2024-04-21T08:59:56Z</time>
      </trkpt>
      <trkpt lat="48.39373" lon="2.45731">
        <ele>86.8</ele>
        <time>2024-04-21T09:00:05Z</time>
      </trkpt>
      <trkpt lat="48.39383" lon="2.45717">
        <ele>86.6</ele>
        <time>2024-04-21T09:00:10Z</time>
      </trkpt>
      <trkpt lat="48.39387" lon="2.45711">
        <ele>86.4</ele>
        <time>2024-04-21T09:00:12Z</time>
      </trkpt>
      <trkpt lat="48.39395" lon="2.45701">
        <ele>86.2</ele>
        <time>2024-04-21T09:00:15Z</time>
      </trkpt>
      <trkpt lat="48.39412" lon="2.45692">
        <ele>85</ele>
        <time>2024-04-21T09:00:20Z</time>
      </trkpt>
      <trkpt lat="48.39419" lon="2.45683">
        <ele>84.4</ele>
        <time>2024-04-21T09:00:24Z</time>
      </trkpt>
      <trkpt lat="48.39429" lon="2.45653">
        <ele>84.2</ele>
        <time>2024-04-21T09:00:31Z</time>
      </trkpt>
      <trkpt lat="48.3944" lon="2.4564">
        <ele>84</ele>
        <time>2024-04-21T09:00:34Z</time>
      </trkpt>
      <trkpt lat="48.39444" lon="2.45636">
        <ele>84</ele>
        <time>2024-04-21T09:00:35Z</time>
      </trkpt>
      <trkpt lat="48.39447" lon="2.45629">
        <ele>84</ele>
        <time>2024-04-21T09:00:36Z</time>
      </trkpt>
      <trkpt lat="48.3945" lon="2.45623">
        <ele>84</ele>
        <time>2024-04-21T09:00:37Z</time>
      </trkpt>
      <trkpt lat="48.39454" lon="2.45608">
        <ele>83.4</ele>
        <time>2024-04-21T09:00:39Z</time>
      </trkpt>
      <trkpt lat="48.39457" lon="2.45596">
        <ele>82.6</ele>
        <time>2024-04-21T09:00:41Z</time>
      </trkpt>
      <trkpt lat="48.39459" lon="2.45589">
        <ele>81.4</ele>
        <time>2024-04-21T09:00:43Z</time>
      </trkpt>
      <trkpt lat="48.39463" lon="2.45576">
        <ele>80.2</ele>
        <time>2024-04-21T09:00:46Z</time>
      </trkpt>
      <trkpt lat="48.39465" lon="2.45568">
        <ele>79.6</ele>
        <time>2024-04-21T09:00:48Z</time>
      </trkpt>
      <trkpt lat="48.39462" lon="2.45551">
        <ele>79</ele>
        <time>2024-04-21T09:00:53Z</time>
      </trkpt>
      <trkpt lat="48.39457" lon="2.4554">
        <ele>79.2</ele>
        <time>2024-04-21T09:00:58Z</time>
      </trkpt>
      <trkpt lat="48.39451" lon="2.45542">
        <ele>79.4</ele>
        <time>2024-04-21T09:01:03Z</time>
      </trkpt>
      <trkpt lat="48.3945" lon="2.45543">
        <ele>79.8</ele>
        <time>2024-04-21T09:01:04Z</time>
      </trkpt>
      <trkpt lat="48.39439" lon="2.45548">
        <ele>81.4</ele>
        <time>2024-04-21T09:01:11Z</time>
      </trkpt>
      <trkpt lat="48.3943" lon="2.45549">
        <ele>82.4</ele>
        <time>2024-04-21T09:01:15Z</time>
      </trkpt>
      <trkpt lat="48.39427" lon="2.4555">
        <ele>82.6</ele>
        <time>2024-04-21T09:01:16Z</time>
      </trkpt>
      <trkpt lat="48.3942" lon="2.45557">
        <ele>83.4</ele>
        <time>2024-04-21T09:01:20Z</time>
      </trkpt>
      <trkpt lat="48.39417" lon="2.45563">
        <ele>84</ele>
        <time>2024-04-21T09:01:22Z</time>
      </trkpt>
      <trkpt lat="48.39414" lon="2.45573">
        <ele>84.6</ele>
        <time>2024-04-21T09:01:26Z</time>
      </trkpt>
      <trkpt lat="48.39412" lon="2.45575">
        <ele>84.6</ele>
        <time>2024-04-21T09:01:27Z</time>
      </trkpt>
      <trkpt lat="48.39407" lon="2.45584">
        <ele>85.8</ele>
        <time>2024-04-21T09:01:31Z</time>
      </trkpt>
      <trkpt lat="48.39403" lon="2.45587">
        <ele>86.8</ele>
        <time>2024-04-21T09:01:33Z</time>
      </trkpt>
      <trkpt lat="48.39399" lon="2.45587">
        <ele>86.8</ele>
        <time>2024-04-21T09:01:34Z</time>
      </trkpt>
      <trkpt lat="48.39387" lon="2.4559">
        <ele>87</ele>
        <time>2024-04-21T09:01:36Z</time>
      </trkpt>
      <trkpt lat="48.39371" lon="2.45608">
        <ele>87</ele>
        <time>2024-04-21T09:01:39Z</time>
      </trkpt>
      <trkpt lat="48.39362" lon="2.45619">
        <ele>87</ele>
        <time>2024-04-21T09:01:41Z</time>
      </trkpt>
      <trkpt lat="48.39358" lon="2.45621">
        <ele>86.6</ele>
        <time>2024-04-21T09:01:42Z</time>
      </trkpt>
      <trkpt lat="48.39351" lon="2.45623">
        <ele>84.6</ele>
        <time>2024-04-21T09:01:44Z</time>
      </trkpt>
      <trkpt lat="48.39345" lon="2.45626">
        <ele>84.2</ele>
        <time>2024-04-21T09:01:46Z</time>
      </trkpt>
      <trkpt lat="48.39342" lon="2.45629">
        <ele>84.2</ele>
        <time>2024-04-21T09:01:47Z</time>
      </trkpt>
      <trkpt lat="48.39336" lon="2.4564">
        <ele>84</ele>
        <time>2024-04-21T09:01:50Z</time>
      </trkpt>
      <trkpt lat="48.39334" lon="2.45647">
        <ele>84</ele>
        <time>2024-04-21T09:01:52Z</time>
      </trkpt>
      <trkpt lat="48.39331" lon="2.45655">
        <ele>85.2</ele>
        <time>2024-04-21T09:01:55Z</time>
      </trkpt>
      <trkpt lat="48.39327" lon="2.45656">
        <ele>85.8</ele>
        <time>2024-04-21T09:01:57Z</time>
      </trkpt>
      <trkpt lat="48.3932" lon="2.45655">
        <ele>87.6</ele>
        <time>2024-04-21T09:02:00Z</time>
      </trkpt>
      <trkpt lat="48.39317" lon="2.45658">
        <ele>88.4</ele>
        <time>2024-04-21T09:02:02Z</time>
      </trkpt>
      <trkpt lat="48.39315" lon="2.45661">
        <ele>89</ele>
        <time>2024-04-21T09:02:03Z</time>
      </trkpt>
      <trkpt lat="48.3931" lon="2.45664">
        <ele>90.2</ele>
        <time>2024-04-21T09:02:06Z</time>
      </trkpt>
      <trkpt lat="48.39307" lon="2.45666">
        <ele>90.4</ele>
        <time>2024-04-21T09:02:08Z</time>
      </trkpt>
      <trkpt lat="48.39301" lon="2.45666">
        <ele>91.6</ele>
        <time>2024-04-21T09:02:12Z</time>
      </trkpt>
      <trkpt lat="48.39299" lon="2.45664">
        <ele>92.8</ele>
        <time>2024-04-21T09:02:14Z</time>
      </trkpt>
      <trkpt lat="48.39297" lon="2.45659">
        <ele>94</ele>
        <time>2024-04-21T09:02:17Z</time>
      </trkpt>
      <trkpt lat="48.39294" lon="2.45655">
        <ele>94.6</ele>
        <time>2024-04-21T09:02:20Z</time>
      </trkpt>
      <trkpt lat="48.39293" lon="2.45655">
        <ele>94.8</ele>
        <time>2024-04-21T09:02:28Z</time>
      </trkpt>
      <trkpt lat="48.39292" lon="2.45655">
        <ele>95</ele>
        <time>2024-04-21T09:02:44Z</time>
      </trkpt>
      <trkpt lat="48.39292" lon="2.45656">
        <ele>95</ele>
        <time>2024-04-21T09:02:48Z</time>
      </trkpt>
      <trkpt lat="48.39292" lon="2.45655">
        <ele>94.8</ele>
        <time>2024-04-21T09:03:05Z</time>
      </trkpt>
      <trkpt lat="48.39292" lon="2.45652">
        <ele>94.4</ele>
        <time>2024-04-21T09:03:25Z</time>
      </trkpt>
      <trkpt lat="48.3929" lon="2.45652">
        <ele>94.4</ele>
        <time>2024-04-21T09:03:43Z</time>
      </trkpt>
      <trkpt lat="48.3929" lon="2.45651">
        <ele>94.4</ele>
        <time>2024-04-21T09:04:02Z</time>
      </trkpt>
      <trkpt lat="48.3929" lon="2.45649">
        <ele>94.8</ele>
        <time>2024-04-21T09:04:19Z</time>
      </trkpt>
      <trkpt lat="48.3929" lon="2.45649">
        <ele>94.8</ele>
        <time>2024-04-21T09:04:38Z</time>
      </trkpt>
      <trkpt lat="48.3929" lon="2.45649">
        <ele>95</ele>
        <time>2024-04-21T09:04:52Z</time>
      </trkpt>
      <trkpt lat="48.3929" lon="2.45649">
        <ele>94.8</ele>
        <time>2024-04-21T09:05:11Z</time>
      </trkpt>
      <trkpt lat="48.39289" lon="2.4565">
        <ele>94.6</ele>
        <time>2024-04-21T09:05:29Z</time>
      </trkpt>
      <trkpt lat="48.39285" lon="2.45646">
        <ele>94.6</ele>
        <time>2024-04-21T09:05:40Z</time>
      </trkpt>
      <trkpt lat="48.39283" lon="2.45646">
        <ele>94.6</ele>
        <time>2024-04-21T09:05:41Z</time>
      </trkpt>
      <trkpt lat="48.39277" lon="2.45645">
        <ele>94.6</ele>
        <time>2024-04-21T09:05:44Z</time>
      </trkpt>
      <trkpt lat="48.39274" lon="2.45643">
        <ele>94.6</ele>
        <time>2024-04-21T09:05:45Z</time>
      </trkpt>
      <trkpt lat="48.39263" lon="2.45621">
        <ele>94.4</ele>
        <time>2024-04-21T09:05:49Z</time>
      </trkpt>
      <trkpt lat="48.3926" lon="2.4561">
        <ele>94.4</ele>
        <time>2024-04-21T09:05:51Z</time>
      </trkpt>
      <trkpt lat="48.3926" lon="2.45604">
        <ele>94.2</ele>
        <time>2024-04-21T09:05:52Z</time>
      </trkpt>
      <trkpt lat="48.39258" lon="2.456">
        <ele>94</ele>
        <time>2024-04-21T09:05:53Z</time>
      </trkpt>
      <trkpt lat="48.39252" lon="2.45593">
        <ele>93</ele>
        <time>2024-04-21T09:05:55Z</time>
      </trkpt>
      <trkpt lat="48.39246" lon="2.4559">
        <ele>92.2</ele>
        <time>2024-04-21T09:05:57Z</time>
      </trkpt>
      <trkpt lat="48.39244" lon="2.45589">
        <ele>92</ele>
        <time>2024-04-21T09:05:58Z</time>
      </trkpt>
      <trkpt lat="48.39238" lon="2.45587">
        <ele>90.8</ele>
        <time>2024-04-21T09:06:00Z</time>
      </trkpt>
      <trkpt lat="48.39233" lon="2.45583">
        <ele>90.2</ele>
        <time>2024-04-21T09:06:02Z</time>
      </trkpt>
      <trkpt lat="48.39231" lon="2.45578">
        <ele>89.8</ele>
        <time>2024-04-21T09:06:03Z</time>
      </trkpt>
      <trkpt lat="48.39225" lon="2.45561">
        <ele>89.2</ele>
        <time>2024-04-21T09:06:06Z</time>
      </trkpt>
      <trkpt lat="48.39223" lon="2.45558">
        <ele>88.8</ele>
        <time>2024-04-21T09:06:07Z</time>
      </trkpt>
      <trkpt lat="48.39219" lon="2.45558">
        <ele>88.2</ele>
        <time>2024-04-21T09:06:09Z</time>
      </trkpt>
      <trkpt lat="48.39218" lon="2.45559">
        <ele>87.6</ele>
        <time>2024-04-21T09:06:10Z</time>
      </trkpt>
      <trkpt lat="48.39216" lon="2.4556">
        <ele>86</ele>
        <time>2024-04-21T09:06:12Z</time>
      </trkpt>
      <trkpt lat="48.39214" lon="2.45561">
        <ele>85.8</ele>
        <time>2024-04-21T09:06:13Z</time>
      </trkpt>
      <trkpt lat="48.39211" lon="2.45562">
        <ele>85.8</ele>
        <time>2024-04-21T09:06:15Z</time>
      </trkpt>
      <trkpt lat="48.39205" lon="2.45562">
        <ele>86.2</ele>
        <time>2024-04-21T09:06:21Z</time>
      </trkpt>
      <trkpt lat="48.39204" lon="2.45563">
        <ele>87.2</ele>
        <time>2024-04-21T09:06:23Z</time>
      </trkpt>
      <trkpt lat="48.39201" lon="2.45558">
        <ele>88</ele>
        <time>2024-04-21T09:06:28Z</time>
      </trkpt>
      <trkpt lat="48.39197" lon="2.45558">
        <ele>88.2</ele>
        <time>2024-04-21T09:06:33Z</time>
      </trkpt>
      <trkpt lat="48.39193" lon="2.45557">
        <ele>88.2</ele>
        <time>2024-04-21T09:06:42Z</time>
      </trkpt>
      <trkpt lat="48.39189" lon="2.45549">
        <ele>88.2</ele>
        <time>2024-04-21T09:06:47Z</time>
      </trkpt>
      <trkpt lat="48.39189" lon="2.45542">
        <ele>88.2</ele>
        <time>2024-04-21T09:06:49Z</time>
      </trkpt>
      <trkpt lat="48.39184" lon="2.45526">
        <ele>88.2</ele>
        <time>2024-04-21T09:06:53Z</time>
      </trkpt>
      <trkpt lat="48.39173" lon="2.45503">
        <ele>87.8</ele>
        <time>2024-04-21T09:06:57Z</time>
      </trkpt>
      <trkpt lat="48.39168" lon="2.45497">
        <ele>87</ele>
        <time>2024-04-21T09:06:59Z</time>
      </trkpt>
      <trkpt lat="48.39162" lon="2.45493">
        <ele>85.8</ele>
        <time>2024-04-21T09:07:01Z</time>
      </trkpt>
      <trkpt lat="48.3916" lon="2.45491">
        <ele>85.4</ele>
        <time>2024-04-21T09:07:02Z</time>
      </trkpt>
      <trkpt lat="48.3915" lon="2.45485">
        <ele>85.2</ele>
        <time>2024-04-21T09:07:07Z</time>
      </trkpt>
      <trkpt lat="48.39135" lon="2.45471">
        <ele>86.6</ele>
        <time>2024-04-21T09:07:14Z</time>
      </trkpt>
      <trkpt lat="48.39133" lon="2.45469">
        <ele>87.2</ele>
        <time>2024-04-21T09:07:15Z</time>
      </trkpt>
      <trkpt lat="48.3913" lon="2.45466">
        <ele>88.4</ele>
        <time>2024-04-21T09:07:18Z</time>
      </trkpt>
      <trkpt lat="48.39128" lon="2.45465">
        <ele>89.6</ele>
        <time>2024-04-21T09:07:20Z</time>
      </trkpt>
      <trkpt lat="48.39125" lon="2.45462">
        <ele>90.6</ele>
        <time>2024-04-21T09:07:24Z</time>
      </trkpt>
      <trkpt lat="48.39118" lon="2.45454">
        <ele>90.6</ele>
        <time>2024-04-21T09:07:30Z</time>
      </trkpt>
      <trkpt lat="48.3911" lon="2.45447">
        <ele>90.4</ele>
        <time>2024-04-21T09:07:34Z</time>
      </trkpt>
      <trkpt lat="48.39105" lon="2.45443">
        <ele>90</ele>
        <time>2024-04-21T09:07:36Z</time>
      </trkpt>
      <trkpt lat="48.39099" lon="2.45439">
        <ele>89.6</ele>
        <time>2024-04-21T09:07:38Z</time>
      </trkpt>
      <trkpt lat="48.39091" lon="2.45433">
        <ele>89.4</ele>
        <time>2024-04-21T09:07:42Z</time>
      </trkpt>
      <trkpt lat="48.39071" lon="2.45423">
        <ele>89.2</ele>
        <time>2024-04-21T09:07:48Z</time>
      </trkpt>
      <trkpt lat="48.39052" lon="2.45414">
        <ele>89.4</ele>
        <time>2024-04-21T09:07:54Z</time>
      </trkpt>
      <trkpt lat="48.39033" lon="2.45403">
        <ele>89.6</ele>
        <time>2024-04-21T09:08:00Z</time>
      </trkpt>
      <trkpt lat="48.3903" lon="2.45403">
        <ele>89.6</ele>
        <time>2024-04-21T09:08:01Z</time>
      </trkpt>
      <trkpt lat="48.39026" lon="2.45406">
        <ele>89.8</ele>
        <time>2024-04-21T09:08:03Z</time>
      </trkpt>
      <trkpt lat="48.39012" lon="2.45415">
        <ele>90</ele>
        <time>2024-04-21T09:08:09Z</time>
      </trkpt>
      <trkpt lat="48.39008" lon="2.45419">
        <ele>90.6</ele>
        <time>2024-04-21T09:08:11Z</time>
      </trkpt>
      <trkpt lat="48.38996" lon="2.4542">
        <ele>92</ele>
        <time>2024-04-21T09:08:14Z</time>
      </trkpt>
      <trkpt lat="48.38992" lon="2.45421">
        <ele>92.4</ele>
        <time>2024-04-21T09:08:15Z</time>
      </trkpt>
      <trkpt lat="48.38983" lon="2.45429">
        <ele>93</ele>
        <time>2024-04-21T09:08:18Z</time>
      </trkpt>
      <trkpt lat="48.38979" lon="2.45434">
        <ele>93.4</ele>
        <time>2024-04-21T09:08:20Z</time>
      </trkpt>
      <trkpt lat="48.38968" lon="2.45455">
        <ele>94</ele>
        <time>2024-04-21T09:08:27Z</time>
      </trkpt>
      <trkpt lat="48.38966" lon="2.45458">
        <ele>94.2</ele>
        <time>2024-04-21T09:08:28Z</time>
      </trkpt>
      <trkpt lat="48.38957" lon="2.45475">
        <ele>95.2</ele>
        <time>2024-04-21T09:08:34Z</time>
      </trkpt>
      <trkpt lat="48.38947" lon="2.45486">
        <ele>96.6</ele>
        <time>2024-04-21T09:08:39Z</time>
      </trkpt>
      <trkpt lat="48.38941" lon="2.45493">
        <ele>97.4</ele>
        <time>2024-04-21T09:08:42Z</time>
      </trkpt>
      <trkpt lat="48.38939" lon="2.45497">
        <ele>97.6</ele>
        <time>2024-04-21T09:08:43Z</time>
      </trkpt>
      <trkpt lat="48.38933" lon="2.45514">
        <ele>98.6</ele>
        <time>2024-04-21T09:08:48Z</time>
      </trkpt>
      <trkpt lat="48.38932" lon="2.45516">
        <ele>98.6</ele>
        <time>2024-04-21T09:08:49Z</time>
      </trkpt>
      <trkpt lat="48.38925" lon="2.45532">
        <ele>99.8</ele>
        <time>2024-04-21T09:08:54Z</time>
      </trkpt>
      <trkpt lat="48.38913" lon="2.45552">
        <ele>100.8</ele>
        <time>2024-04-21T09:09:00Z</time>
      </trkpt>
      <trkpt lat="48.38911" lon="2.45556">
        <ele>100.8</ele>
        <time>2024-04-21T09:09:01Z</time>
      </trkpt>
      <trkpt lat="48.38909" lon="2.4556">
        <ele>101</ele>
        <time>2024-04-21T09:09:02Z</time>
      </trkpt>
      <trkpt lat="48.38902" lon="2.45572">
        <ele>102.2</ele>
        <time>2024-04-21T09:09:06Z</time>
      </trkpt>
      <trkpt lat="48.38898" lon="2.45578">
        <ele>103.4</ele>
        <time>2024-04-21T09:09:09Z</time>
      </trkpt>
      <trkpt lat="48.38894" lon="2.45583">
        <ele>104.2</ele>
        <time>2024-04-21T09:09:12Z</time>
      </trkpt>
      <trkpt lat="48.38892" lon="2.45583">
        <ele>104.4</ele>
        <time>2024-04-21T09:09:13Z</time>
      </trkpt>
      <trkpt lat="48.38884" lon="2.45589">
        <ele>105.6</ele>
        <time>2024-04-21T09:09:18Z</time>
      </trkpt>
      <trkpt lat="48.3888" lon="2.45591">
        <ele>106</ele>
        <time>2024-04-21T09:09:20Z</time>
      </trkpt>
      <trkpt lat="48.38875" lon="2.45596">
        <ele>107</ele>
        <time>2024-04-21T09:09:23Z</time>
      </trkpt>
      <trkpt lat="48.38867" lon="2.456">
        <ele>108.2</ele>
        <time>2024-04-21T09:09:27Z</time>
      </trkpt>
      <trkpt lat="48.38866" lon="2.45601">
        <ele>108.2</ele>
        <time>2024-04-21T09:09:28Z</time>
      </trkpt>
      <trkpt lat="48.3886" lon="2.45605">
        <ele>109.2</ele>
        <time>2024-04-21T09:09:31Z</time>
      </trkpt>
      <trkpt lat="48.38856" lon="2.45611">
        <ele>110</ele>
        <time>2024-04-21T09:09:34Z</time>
      </trkpt>
      <trkpt lat="48.38852" lon="2.45614">
        <ele>111.6</ele>
        <time>2024-04-21T09:09:37Z</time>
      </trkpt>
      <trkpt lat="48.38848" lon="2.45615">
        <ele>112.8</ele>
        <time>2024-04-21T09:09:39Z</time>
      </trkpt>
      <trkpt lat="48.38845" lon="2.45616">
        <ele>113.2</ele>
        <time>2024-04-21T09:09:41Z</time>
      </trkpt>
      <trkpt lat="48.38842" lon="2.45616">
        <ele>114</ele>
        <time>2024-04-21T09:09:43Z</time>
      </trkpt>
      <trkpt lat="48.38837" lon="2.45619">
        <ele>115.2</ele>
        <time>2024-04-21T09:09:46Z</time>
      </trkpt>
      <trkpt lat="48.38831" lon="2.45621">
        <ele>116</ele>
        <time>2024-04-21T09:09:49Z</time>
      </trkpt>
      <trkpt lat="48.3883" lon="2.45622">
        <ele>116.4</ele>
        <time>2024-04-21T09:09:50Z</time>
      </trkpt>
      <trkpt lat="48.38823" lon="2.45622">
        <ele>117.8</ele>
        <time>2024-04-21T09:09:56Z</time>
      </trkpt>
      <trkpt lat="48.38821" lon="2.45622">
        <ele>118.2</ele>
        <time>2024-04-21T09:09:57Z</time>
      </trkpt>
      <trkpt lat="48.38816" lon="2.45621">
        <ele>118.8</ele>
        <time>2024-04-21T09:10:01Z</time>
      </trkpt>
      <trkpt lat="48.38814" lon="2.45618">
        <ele>119</ele>
        <time>2024-04-21T09:10:05Z</time>
      </trkpt>
      <trkpt lat="48.38814" lon="2.45615">
        <ele>119.8</ele>
        <time>2024-04-21T09:10:09Z</time>
      </trkpt>
      <trkpt lat="48.38812" lon="2.45613">
        <ele>120.4</ele>
        <time>2024-04-21T09:10:14Z</time>
      </trkpt>
      <trkpt lat="48.38807" lon="2.45607">
        <ele>120</ele>
        <time>2024-04-21T09:10:23Z</time>
      </trkpt>
      <trkpt lat="48.38808" lon="2.45607">
        <ele>119.2</ele>
        <time>2024-04-21T09:10:40Z</time>
      </trkpt>
      <trkpt lat="48.38808" lon="2.45606">
        <ele>119.8</ele>
        <time>2024-04-21T09:10:55Z</time>
      </trkpt>
      <trkpt lat="48.38809" lon="2.45605">
        <ele>120.4</ele>
        <time>2024-04-21T09:11:11Z</time>
      </trkpt>
      <trkpt lat="48.38809" lon="2.45604">
        <ele>120.2</ele>
        <time>2024-04-21T09:11:29Z</time>
      </trkpt>
      <trkpt lat="48.38808" lon="2.45598">
        <ele>120</ele>
        <time>2024-04-21T09:11:34Z</time>
      </trkpt>
      <trkpt lat="48.38809" lon="2.45589">
        <ele>120</ele>
        <time>2024-04-21T09:11:36Z</time>
      </trkpt>
      <trkpt lat="48.38808" lon="2.45565">
        <ele>119.8</ele>
        <time>2024-04-21T09:11:40Z</time>
      </trkpt>
      <trkpt lat="48.38809" lon="2.4555">
        <ele>118</ele>
        <time>2024-04-21T09:11:43Z</time>
      </trkpt>
      <trkpt lat="48.38807" lon="2.45543">
        <ele>117</ele>
        <time>2024-04-21T09:11:44Z</time>
      </trkpt>
      <trkpt lat="48.38805" lon="2.45537">
        <ele>115.8</ele>
        <time>2024-04-21T09:11:45Z</time>
      </trkpt>
      <trkpt lat="48.38803" lon="2.45529">
        <ele>114.8</ele>
        <time>2024-04-21T09:11:46Z</time>
      </trkpt>
      <trkpt lat="48.388" lon="2.45522">
        <ele>113.8</ele>
        <time>2024-04-21T09:11:47Z</time>
      </trkpt>
      <trkpt lat="48.38795" lon="2.45511">
        <ele>112.2</ele>
        <time>2024-04-21T09:11:49Z</time>
      </trkpt>
      <trkpt lat="48.38792" lon="2.45508">
        <ele>111.6</ele>
        <time>2024-04-21T09:11:50Z</time>
      </trkpt>
      <trkpt lat="48.38789" lon="2.45506">
        <ele>110.8</ele>
        <time>2024-04-21T09:11:51Z</time>
      </trkpt>
      <trkpt lat="48.38778" lon="2.45494">
        <ele>110.2</ele>
        <time>2024-04-21T09:11:55Z</time>
      </trkpt>
      <trkpt lat="48.38765" lon="2.45485">
        <ele>110.4</ele>
        <time>2024-04-21T09:12:01Z</time>
      </trkpt>
      <trkpt lat="48.38762" lon="2.45479">
        <ele>112.2</ele>
        <time>2024-04-21T09:12:04Z</time>
      </trkpt>
      <trkpt lat="48.38756" lon="2.45471">
        <ele>112.8</ele>
        <time>2024-04-21T09:12:07Z</time>
      </trkpt>
      <trkpt lat="48.3875" lon="2.45462">
        <ele>112.8</ele>
        <time>2024-04-21T09:12:09Z</time>
      </trkpt>
      <trkpt lat="48.38739" lon="2.45453">
        <ele>112.8</ele>
        <time>2024-04-21T09:12:11Z</time>
      </trkpt>
      <trkpt lat="48.38721" lon="2.45452">
        <ele>112.8</ele>
        <time>2024-04-21T09:12:14Z</time>
      </trkpt>
      <trkpt lat="48.38716" lon="2.45453">
        <ele>112.4</ele>
        <time>2024-04-21T09:12:15Z</time>
      </trkpt>
      <trkpt lat="48.38709" lon="2.45454">
        <ele>110.6</ele>
        <time>2024-04-21T09:12:17Z</time>
      </trkpt>
      <trkpt lat="48.38706" lon="2.45452">
        <ele>110</ele>
        <time>2024-04-21T09:12:18Z</time>
      </trkpt>
      <trkpt lat="48.387" lon="2.45446">
        <ele>109.4</ele>
        <time>2024-04-21T09:12:20Z</time>
      </trkpt>
      <trkpt lat="48.38691" lon="2.45432">
        <ele>108</ele>
        <time>2024-04-21T09:12:23Z</time>
      </trkpt>
      <trkpt lat="48.38687" lon="2.45429">
        <ele>107.8</ele>
        <time>2024-04-21T09:12:24Z</time>
      </trkpt>
      <trkpt lat="48.38679" lon="2.45428">
        <ele>107.6</ele>
        <time>2024-04-21T09:12:26Z</time>
      </trkpt>
      <trkpt lat="48.38671" lon="2.45427">
        <ele>106.8</ele>
        <time>2024-04-21T09:12:28Z</time>
      </trkpt>
      <trkpt lat="48.3866" lon="2.45422">
        <ele>106.2</ele>
        <time>2024-04-21T09:12:31Z</time>
      </trkpt>
      <trkpt lat="48.38657" lon="2.45419">
        <ele>105.4</ele>
        <time>2024-04-21T09:12:32Z</time>
      </trkpt>
      <trkpt lat="48.38654" lon="2.45414">
        <ele>104.8</ele>
        <time>2024-04-21T09:12:33Z</time>
      </trkpt>
      <trkpt lat="48.38651" lon="2.45407">
        <ele>103.6</ele>
        <time>2024-04-21T09:12:34Z</time>
      </trkpt>
      <trkpt lat="48.38648" lon="2.454">
        <ele>103.4</ele>
        <time>2024-04-21T09:12:35Z</time>
      </trkpt>
      <trkpt lat="48.38646" lon="2.45368">
        <ele>102.8</ele>
        <time>2024-04-21T09:12:39Z</time>
      </trkpt>
      <trkpt lat="48.38644" lon="2.4536">
        <ele>102.6</ele>
        <time>2024-04-21T09:12:40Z</time>
      </trkpt>
      <trkpt lat="48.38644" lon="2.4534">
        <ele>101.6</ele>
        <time>2024-04-21T09:12:43Z</time>
      </trkpt>
      <trkpt lat="48.38639" lon="2.45327">
        <ele>100.2</ele>
        <time>2024-04-21T09:12:45Z</time>
      </trkpt>
      <trkpt lat="48.38633" lon="2.45315">
        <ele>98.8</ele>
        <time>2024-04-21T09:12:47Z</time>
      </trkpt>
      <trkpt lat="48.38629" lon="2.45308">
        <ele>98.4</ele>
        <time>2024-04-21T09:12:48Z</time>
      </trkpt>
      <trkpt lat="48.38619" lon="2.45297">
        <ele>97.6</ele>
        <time>2024-04-21T09:12:50Z</time>
      </trkpt>
      <trkpt lat="48.38608" lon="2.45285">
        <ele>96.2</ele>
        <time>2024-04-21T09:12:53Z</time>
      </trkpt>
      <trkpt lat="48.38609" lon="2.45272">
        <ele>94.8</ele>
        <time>2024-04-21T09:12:55Z</time>
      </trkpt>
      <trkpt lat="48.38609" lon="2.45265">
        <ele>93.8</ele>
        <time>2024-04-21T09:12:56Z</time>
      </trkpt>
      <trkpt lat="48.3861" lon="2.45259">
        <ele>92.8</ele>
        <time>2024-04-21T09:12:57Z</time>
      </trkpt>
      <trkpt lat="48.38611" lon="2.45253">
        <ele>91.4</ele>
        <time>2024-04-21T09:12:58Z</time>
      </trkpt>
      <trkpt lat="48.38612" lon="2.45249">
        <ele>90.2</ele>
        <time>2024-04-21T09:12:59Z</time>
      </trkpt>
      <trkpt lat="48.38612" lon="2.45247">
        <ele>89.8</ele>
        <time>2024-04-21T09:13:00Z</time>
      </trkpt>
      <trkpt lat="48.38612" lon="2.45246">
        <ele>88.4</ele>
        <time>2024-04-21T09:13:03Z</time>
      </trkpt>
      <trkpt lat="48.38613" lon="2.45244">
        <ele>88.2</ele>
        <time>2024-04-21T09:13:08Z</time>
      </trkpt>
      <trkpt lat="48.38611" lon="2.45246">
        <ele>88</ele>
        <time>2024-04-21T09:13:11Z</time>
      </trkpt>
      <trkpt lat="48.38609" lon="2.45249">
        <ele>88</ele>
        <time>2024-04-21T09:13:14Z</time>
      </trkpt>
      <trkpt lat="48.38607" lon="2.45249">
        <ele>88.2</ele>
        <time>2024-04-21T09:13:21Z</time>
      </trkpt>
      <trkpt lat="48.38607" lon="2.45248">
        <ele>88.8</ele>
        <time>2024-04-21T09:13:36Z</time>
      </trkpt>
      <trkpt lat="48.38608" lon="2.45248">
        <ele>88.8</ele>
        <time>2024-04-21T09:13:49Z</time>
      </trkpt>
      <trkpt lat="48.38606" lon="2.45246">
        <ele>88.8</ele>
        <time>2024-04-21T09:14:06Z</time>
      </trkpt>
      <trkpt lat="48.38608" lon="2.45243">
        <ele>88.6</ele>
        <time>2024-04-21T09:14:21Z</time>
      </trkpt>
      <trkpt lat="48.38609" lon="2.45241">
        <ele>88.4</ele>
        <time>2024-04-21T09:14:22Z</time>
      </trkpt>
      <trkpt lat="48.38617" lon="2.45232">
        <ele>87.6</ele>
        <time>2024-04-21T09:14:29Z</time>
      </trkpt>
      <trkpt lat="48.38618" lon="2.45229">
        <ele>87.4</ele>
        <time>2024-04-21T09:14:30Z</time>
      </trkpt>
      <trkpt lat="48.38618" lon="2.45226">
        <ele>87</ele>
        <time>2024-04-21T09:14:31Z</time>
      </trkpt>
      <trkpt lat="48.38619" lon="2.45214">
        <ele>86.4</ele>
        <time>2024-04-21T09:14:34Z</time>
      </trkpt>
      <trkpt lat="48.38619" lon="2.45209">
        <ele>86.2</ele>
        <time>2024-04-21T09:14:35Z</time>
      </trkpt>
      <trkpt lat="48.38623" lon="2.45189">
        <ele>85.6</ele>
        <time>2024-04-21T09:14:39Z</time>
      </trkpt>
      <trkpt lat="48.38629" lon="2.45162">
        <ele>85.2</ele>
        <time>2024-04-21T09:14:44Z</time>
      </trkpt>
      <trkpt lat="48.38633" lon="2.45146">
        <ele>84.6</ele>
        <time>2024-04-21T09:14:47Z</time>
      </trkpt>
      <trkpt lat="48.38635" lon="2.45134">
        <ele>84.4</ele>
        <time>2024-04-21T09:14:49Z</time>
      </trkpt>
      <trkpt lat="48.38635" lon="2.45115">
        <ele>84.4</ele>
        <time>2024-04-21T09:14:52Z</time>
      </trkpt>
      <trkpt lat="48.38626" lon="2.4509">
        <ele>84.4</ele>
        <time>2024-04-21T09:14:57Z</time>
      </trkpt>
      <trkpt lat="48.38621" lon="2.45083">
        <ele>84.4</ele>
        <time>2024-04-21T09:14:59Z</time>
      </trkpt>
      <trkpt lat="48.38612" lon="2.4507">
        <ele>85.4</ele>
        <time>2024-04-21T09:15:03Z</time>
      </trkpt>
      <trkpt lat="48.38599" lon="2.45046">
        <ele>86</ele>
        <time>2024-04-21T09:15:09Z</time>
      </trkpt>
      <trkpt lat="48.38597" lon="2.45042">
        <ele>86.4</ele>
        <time>2024-04-21T09:15:10Z</time>
      </trkpt>
      <trkpt lat="48.38585" lon="2.45017">
        <ele>86.6</ele>
        <time>2024-04-21T09:15:16Z</time>
      </trkpt>
      <trkpt lat="48.38569" lon="2.44988">
        <ele>86.8</ele>
        <time>2024-04-21T09:15:23Z</time>
      </trkpt>
      <trkpt lat="48.38548" lon="2.44956">
        <ele>86.8</ele>
        <time>2024-04-21T09:15:30Z</time>
      </trkpt>
      <trkpt lat="48.38518" lon="2.44923">
        <ele>87</ele>
        <time>2024-04-21T09:15:38Z</time>
      </trkpt>
      <trkpt lat="48.38504" lon="2.44906">
        <ele>87.4</ele>
        <time>2024-04-21T09:15:42Z</time>
      </trkpt>
      <trkpt lat="48.3849" lon="2.4489">
        <ele>87.8</ele>
        <time>2024-04-21T09:15:46Z</time>
      </trkpt>
      <trkpt lat="48.3847" lon="2.44868">
        <ele>88.4</ele>
        <time>2024-04-21T09:15:52Z</time>
      </trkpt>
      <trkpt lat="48.3846" lon="2.44858">
        <ele>88.6</ele>
        <time>2024-04-21T09:15:55Z</time>
      </trkpt>
      <trkpt lat="48.38441" lon="2.44837">
        <ele>89.6</ele>
        <time>2024-04-21T09:16:01Z</time>
      </trkpt>
      <trkpt lat="48.3843" lon="2.44826">
        <ele>90</ele>
        <time>2024-04-21T09:16:04Z</time>
      </trkpt>
      <trkpt lat="48.38409" lon="2.44803">
        <ele>90.6</ele>
        <time>2024-04-21T09:16:10Z</time>
      </trkpt>
      <trkpt lat="48.38396" lon="2.44788">
        <ele>91.2</ele>
        <time>2024-04-21T09:16:14Z</time>
      </trkpt>
      <trkpt lat="48.3838" lon="2.44772">
        <ele>91.6</ele>
        <time>2024-04-21T09:16:20Z</time>
      </trkpt>
      <trkpt lat="48.38377" lon="2.44769">
        <ele>91.8</ele>
        <time>2024-04-21T09:16:21Z</time>
      </trkpt>
      <trkpt lat="48.38359" lon="2.44748">
        <ele>92.4</ele>
        <time>2024-04-21T09:16:28Z</time>
      </trkpt>
      <trkpt lat="48.38349" lon="2.44736">
        <ele>92.8</ele>
        <time>2024-04-21T09:16:32Z</time>
      </trkpt>
      <trkpt lat="48.38331" lon="2.44715">
        <ele>93</ele>
        <time>2024-04-21T09:16:39Z</time>
      </trkpt>
      <trkpt lat="48.38303" lon="2.44687">
        <ele>93.6</ele>
        <time>2024-04-21T09:16:49Z</time>
      </trkpt>
      <trkpt lat="48.38276" lon="2.44664">
        <ele>93.6</ele>
        <time>2024-04-21T09:16:58Z</time>
      </trkpt>
      <trkpt lat="48.38244" lon="2.4463">
        <ele>93.6</ele>
        <time>2024-04-21T09:17:09Z</time>
      </trkpt>
      <trkpt lat="48.38228" lon="2.44594">
        <ele>93.8</ele>
        <time>2024-04-21T09:17:17Z</time>
      </trkpt>
      <trkpt lat="48.38221" lon="2.44569">
        <ele>93.8</ele>
        <time>2024-04-21T09:17:22Z</time>
      </trkpt>
      <trkpt lat="48.38214" lon="2.44555">
        <ele>94</ele>
        <time>2024-04-21T09:17:25Z</time>
      </trkpt>
      <trkpt lat="48.38194" lon="2.44524">
        <ele>94.4</ele>
        <time>2024-04-21T09:17:33Z</time>
      </trkpt>
      <trkpt lat="48.3818" lon="2.44498">
        <ele>94.6</ele>
        <time>2024-04-21T09:17:39Z</time>
      </trkpt>
      <trkpt lat="48.38164" lon="2.44462">
        <ele>94.6</ele>
        <time>2024-04-21T09:17:46Z</time>
      </trkpt>
      <trkpt lat="48.3815" lon="2.44418">
        <ele>94.4</ele>
        <time>2024-04-21T09:17:54Z</time>
      </trkpt>
      <trkpt lat="48.38144" lon="2.44402">
        <ele>94.6</ele>
        <time>2024-04-21T09:17:59Z</time>
      </trkpt>
      <trkpt lat="48.38139" lon="2.44388">
        <ele>94.8</ele>
        <time>2024-04-21T09:18:03Z</time>
      </trkpt>
      <trkpt lat="48.38137" lon="2.44381">
        <ele>95.2</ele>
        <time>2024-04-21T09:18:05Z</time>
      </trkpt>
      <trkpt lat="48.38127" lon="2.44364">
        <ele>95.6</ele>
        <time>2024-04-21T09:18:11Z</time>
      </trkpt>
      <trkpt lat="48.38126" lon="2.44365">
        <ele>95.6</ele>
        <time>2024-04-21T09:18:12Z</time>
      </trkpt>
      <trkpt lat="48.38123" lon="2.4437">
        <ele>95.6</ele>
        <time>2024-04-21T09:18:15Z</time>
      </trkpt>
      <trkpt lat="48.3812" lon="2.44372">
        <ele>95.6</ele>
        <time>2024-04-21T09:18:17Z</time>
      </trkpt>
      <trkpt lat="48.38118" lon="2.44372">
        <ele>95.6</ele>
        <time>2024-04-21T09:18:18Z</time>
      </trkpt>
      <trkpt lat="48.38109" lon="2.44376">
        <ele>95.8</ele>
        <time>2024-04-21T09:18:23Z</time>
      </trkpt>
      <trkpt lat="48.38108" lon="2.44378">
        <ele>96</ele>
        <time>2024-04-21T09:18:24Z</time>
      </trkpt>
      <trkpt lat="48.38106" lon="2.44382">
        <ele>97.2</ele>
        <time>2024-04-21T09:18:26Z</time>
      </trkpt>
      <trkpt lat="48.38102" lon="2.44388">
        <ele>98</ele>
        <time>2024-04-21T09:18:28Z</time>
      </trkpt>
      <trkpt lat="48.381" lon="2.44389">
        <ele>98.2</ele>
        <time>2024-04-21T09:18:29Z</time>
      </trkpt>
      <trkpt lat="48.38095" lon="2.44394">
        <ele>98.4</ele>
        <time>2024-04-21T09:18:32Z</time>
      </trkpt>
      <trkpt lat="48.38092" lon="2.44395">
        <ele>98.6</ele>
        <time>2024-04-21T09:18:33Z</time>
      </trkpt>
      <trkpt lat="48.38076" lon="2.44396">
        <ele>99.4</ele>
        <time>2024-04-21T09:18:39Z</time>
      </trkpt>
      <trkpt lat="48.38074" lon="2.44397">
        <ele>99.6</ele>
        <time>2024-04-21T09:18:40Z</time>
      </trkpt>
      <trkpt lat="48.38069" lon="2.44396">
        <ele>100.4</ele>
        <time>2024-04-21T09:18:43Z</time>
      </trkpt>
      <trkpt lat="48.38066" lon="2.44397">
        <ele>101.2</ele>
        <time>2024-04-21T09:18:45Z</time>
      </trkpt>
      <trkpt lat="48.38065" lon="2.44398">
        <ele>101.6</ele>
        <time>2024-04-21T09:18:46Z</time>
      </trkpt>
      <trkpt lat="48.38064" lon="2.444">
        <ele>102</ele>
        <time>2024-04-21T09:18:47Z</time>
      </trkpt>
      <trkpt lat="48.38062" lon="2.44407">
        <ele>103</ele>
        <time>2024-04-21T09:18:49Z</time>
      </trkpt>
      <trkpt lat="48.38061" lon="2.44412">
        <ele>103.4</ele>
        <time>2024-04-21T09:18:50Z</time>
      </trkpt>
      <trkpt lat="48.3806" lon="2.44418">
        <ele>104.2</ele>
        <time>2024-04-21T09:18:52Z</time>
      </trkpt>
      <trkpt lat="48.38058" lon="2.44428">
        <ele>105.4</ele>
        <time>2024-04-21T09:18:56Z</time>
      </trkpt>
      <trkpt lat="48.38058" lon="2.44434">
        <ele>105.6</ele>
        <time>2024-04-21T09:18:58Z</time>
      </trkpt>
      <trkpt lat="48.38057" lon="2.44445">
        <ele>106.8</ele>
        <time>2024-04-21T09:19:02Z</time>
      </trkpt>
      <trkpt lat="48.38055" lon="2.44451">
        <ele>107.8</ele>
        <time>2024-04-21T09:19:04Z</time>
      </trkpt>
      <trkpt lat="48.38055" lon="2.44454">
        <ele>108.4</ele>
        <time>2024-04-21T09:19:05Z</time>
      </trkpt>
      <trkpt lat="48.38054" lon="2.4446">
        <ele>109</ele>
        <time>2024-04-21T09:19:07Z</time>
      </trkpt>
      <trkpt lat="48.38051" lon="2.44467">
        <ele>110.4</ele>
        <time>2024-04-21T09:19:10Z</time>
      </trkpt>
      <trkpt lat="48.38049" lon="2.44474">
        <ele>111.6</ele>
        <time>2024-04-21T09:19:13Z</time>
      </trkpt>
      <trkpt lat="48.38046" lon="2.44479">
        <ele>112.8</ele>
        <time>2024-04-21T09:19:16Z</time>
      </trkpt>
      <trkpt lat="48.38043" lon="2.44485">
        <ele>114</ele>
        <time>2024-04-21T09:19:19Z</time>
      </trkpt>
      <trkpt lat="48.38042" lon="2.44487">
        <ele>114.2</ele>
        <time>2024-04-21T09:19:20Z</time>
      </trkpt>
      <trkpt lat="48.38039" lon="2.44494">
        <ele>115.4</ele>
        <time>2024-04-21T09:19:24Z</time>
      </trkpt>
      <trkpt lat="48.38038" lon="2.44496">
        <ele>115.8</ele>
        <time>2024-04-21T09:19:25Z</time>
      </trkpt>
      <trkpt lat="48.38036" lon="2.44501">
        <ele>116.4</ele>
        <time>2024-04-21T09:19:27Z</time>
      </trkpt>
      <trkpt lat="48.38032" lon="2.44511">
        <ele>117.8</ele>
        <time>2024-04-21T09:19:31Z</time>
      </trkpt>
      <trkpt lat="48.3803" lon="2.44513">
        <ele>118</ele>
        <time>2024-04-21T09:19:32Z</time>
      </trkpt>
      <trkpt lat="48.38021" lon="2.4452">
        <ele>118.8</ele>
        <time>2024-04-21T09:19:38Z</time>
      </trkpt>
      <trkpt lat="48.38016" lon="2.44521">
        <ele>120</ele>
        <time>2024-04-21T09:19:41Z</time>
      </trkpt>
      <trkpt lat="48.38011" lon="2.44526">
        <ele>121.6</ele>
        <time>2024-04-21T09:19:44Z</time>
      </trkpt>
      <trkpt lat="48.38009" lon="2.44528">
        <ele>122</ele>
        <time>2024-04-21T09:19:45Z</time>
      </trkpt>
      <trkpt lat="48.38006" lon="2.44532">
        <ele>122.8</ele>
        <time>2024-04-21T09:19:47Z</time>
      </trkpt>
      <trkpt lat="48.37999" lon="2.44542">
        <ele>123.8</ele>
        <time>2024-04-21T09:19:51Z</time>
      </trkpt>
      <trkpt lat="48.37993" lon="2.44559">
        <ele>124</ele>
        <time>2024-04-21T09:19:57Z</time>
      </trkpt>
      <trkpt lat="48.37988" lon="2.44583">
        <ele>124</ele>
        <time>2024-04-21T09:20:03Z</time>
      </trkpt>
      <trkpt lat="48.37983" lon="2.44617">
        <ele>123.6</ele>
        <time>2024-04-21T09:20:10Z</time>
      </trkpt>
      <trkpt lat="48.37979" lon="2.44649">
        <ele>123.4</ele>
        <time>2024-04-21T09:20:15Z</time>
      </trkpt>
      <trkpt lat="48.37976" lon="2.44685">
        <ele>123.2</ele>
        <time>2024-04-21T09:20:20Z</time>
      </trkpt>
      <trkpt lat="48.37979" lon="2.44695">
        <ele>122.6</ele>
        <time>2024-04-21T09:20:22Z</time>
      </trkpt>
      <trkpt lat="48.37983" lon="2.44702">
        <ele>121.6</ele>
        <time>2024-04-21T09:20:24Z</time>
      </trkpt>
      <trkpt lat="48.37985" lon="2.44705">
        <ele>121.6</ele>
        <time>2024-04-21T09:20:25Z</time>
      </trkpt>
      <trkpt lat="48.37996" lon="2.44715">
        <ele>121</ele>
        <time>2024-04-21T09:20:29Z</time>
      </trkpt>
      <trkpt lat="48.38" lon="2.44719">
        <ele>120.8</ele>
        <time>2024-04-21T09:20:31Z</time>
      </trkpt>
      <trkpt lat="48.38005" lon="2.44721">
        <ele>120.8</ele>
        <time>2024-04-21T09:20:33Z</time>
      </trkpt>
      <trkpt lat="48.38024" lon="2.44738">
        <ele>120.8</ele>
        <time>2024-04-21T09:20:39Z</time>
      </trkpt>
      <trkpt lat="48.38034" lon="2.4476">
        <ele>121.2</ele>
        <time>2024-04-21T09:20:45Z</time>
      </trkpt>
      <trkpt lat="48.38037" lon="2.44765">
        <ele>121.6</ele>
        <time>2024-04-21T09:20:47Z</time>
      </trkpt>
      <trkpt lat="48.38044" lon="2.44772">
        <ele>122</ele>
        <time>2024-04-21T09:20:50Z</time>
      </trkpt>
      <trkpt lat="48.38046" lon="2.44776">
        <ele>122</ele>
        <time>2024-04-21T09:20:51Z</time>
      </trkpt>
      <trkpt lat="48.38054" lon="2.44799">
        <ele>122</ele>
        <time>2024-04-21T09:20:56Z</time>
      </trkpt>
      <trkpt lat="48.38056" lon="2.44829">
        <ele>121.2</ele>
        <time>2024-04-21T09:21:01Z</time>
      </trkpt>
      <trkpt lat="48.38057" lon="2.44857">
        <ele>120.8</ele>
        <time>2024-04-21T09:21:05Z</time>
      </trkpt>
      <trkpt lat="48.38062" lon="2.44882">
        <ele>120.6</ele>
        <time>2024-04-21T09:21:10Z</time>
      </trkpt>
      <trkpt lat="48.38067" lon="2.44896">
        <ele>120.8</ele>
        <time>2024-04-21T09:21:14Z</time>
      </trkpt>
      <trkpt lat="48.3807" lon="2.44898">
        <ele>120.8</ele>
        <time>2024-04-21T09:21:15Z</time>
      </trkpt>
      <trkpt lat="48.3808" lon="2.44899">
        <ele>122.8</ele>
        <time>2024-04-21T09:21:20Z</time>
      </trkpt>
      <trkpt lat="48.38082" lon="2.44901">
        <ele>124.2</ele>
        <time>2024-04-21T09:21:22Z</time>
      </trkpt>
      <trkpt lat="48.38097" lon="2.449">
        <ele>125.2</ele>
        <time>2024-04-21T09:21:30Z</time>
      </trkpt>
      <trkpt lat="48.3811" lon="2.44892">
        <ele>125.2</ele>
        <time>2024-04-21T09:21:34Z</time>
      </trkpt>
      <trkpt lat="48.38118" lon="2.44903">
        <ele>125.2</ele>
        <time>2024-04-21T09:21:38Z</time>
      </trkpt>
      <trkpt lat="48.38119" lon="2.44906">
        <ele>125.2</ele>
        <time>2024-04-21T09:21:39Z</time>
      </trkpt>
      <trkpt lat="48.38127" lon="2.44923">
        <ele>125.2</ele>
        <time>2024-04-21T09:21:44Z</time>
      </trkpt>
      <trkpt lat="48.38129" lon="2.44926">
        <ele>125.4</ele>
        <time>2024-04-21T09:21:45Z</time>
      </trkpt>
      <trkpt lat="48.38131" lon="2.4494">
        <ele>126.2</ele>
        <time>2024-04-21T09:21:48Z</time>
      </trkpt>
      <trkpt lat="48.38132" lon="2.44945">
        <ele>126.6</ele>
        <time>2024-04-21T09:21:49Z</time>
      </trkpt>
      <trkpt lat="48.38138" lon="2.44961">
        <ele>126.8</ele>
        <time>2024-04-21T09:21:53Z</time>
      </trkpt>
      <trkpt lat="48.3814" lon="2.44965">
        <ele>127</ele>
        <time>2024-04-21T09:21:54Z</time>
      </trkpt>
      <trkpt lat="48.38142" lon="2.44975">
        <ele>127</ele>
        <time>2024-04-21T09:21:56Z</time>
      </trkpt>
      <trkpt lat="48.38135" lon="2.45002">
        <ele>127.2</ele>
        <time>2024-04-21T09:22:02Z</time>
      </trkpt>
      <trkpt lat="48.3813" lon="2.45022">
        <ele>127.4</ele>
        <time>2024-04-21T09:22:07Z</time>
      </trkpt>
      <trkpt lat="48.38126" lon="2.45033">
        <ele>127.6</ele>
        <time>2024-04-21T09:22:10Z</time>
      </trkpt>
      <trkpt lat="48.38126" lon="2.45048">
        <ele>127.6</ele>
        <time>2024-04-21T09:22:13Z</time>
      </trkpt>
      <trkpt lat="48.38125" lon="2.45061">
        <ele>128.2</ele>
        <time>2024-04-21T09:22:18Z</time>
      </trkpt>
      <trkpt lat="48.38125" lon="2.45063">
        <ele>128.6</ele>
        <time>2024-04-21T09:22:20Z</time>
      </trkpt>
      <trkpt lat="48.38125" lon="2.45065">
        <ele>128.4</ele>
        <time>2024-04-21T09:22:35Z</time>
      </trkpt>
      <trkpt lat="48.38126" lon="2.45067">
        <ele>128.4</ele>
        <time>2024-04-21T09:22:52Z</time>
      </trkpt>
      <trkpt lat="48.38126" lon="2.45067">
        <ele>128.2</ele>
        <time>2024-04-21T09:23:08Z</time>
      </trkpt>
      <trkpt lat="48.38128" lon="2.45068">
        <ele>128.2</ele>
        <time>2024-04-21T09:23:20Z</time>
      </trkpt>
      <trkpt lat="48.38129" lon="2.45069">
        <ele>129</ele>
        <time>2024-04-21T09:23:40Z</time>
      </trkpt>
      <trkpt lat="48.38132" lon="2.4507">
        <ele>129</ele>
        <time>2024-04-21T09:23:56Z</time>
      </trkpt>
      <trkpt lat="48.38139" lon="2.45078">
        <ele>129.2</ele>
        <time>2024-04-21T09:24:13Z</time>
      </trkpt>
      <trkpt lat="48.38141" lon="2.4508">
        <ele>128.8</ele>
        <time>2024-04-21T09:24:26Z</time>
      </trkpt>
      <trkpt lat="48.38139" lon="2.45079">
        <ele>128.6</ele>
        <time>2024-04-21T09:24:40Z</time>
      </trkpt>
      <trkpt lat="48.38137" lon="2.45079">
        <ele>128.8</ele>
        <time>2024-04-21T09:24:54Z</time>
      </trkpt>
      <trkpt lat="48.38134" lon="2.45077">
        <ele>129</ele>
        <time>2024-04-21T09:25:08Z</time>
      </trkpt>
      <trkpt lat="48.38134" lon="2.45076">
        <ele>129</ele>
        <time>2024-04-21T09:25:24Z</time>
      </trkpt>
      <trkpt lat="48.38133" lon="2.45076">
        <ele>128.4</ele>
        <time>2024-04-21T09:25:42Z</time>
      </trkpt>
      <trkpt lat="48.38131" lon="2.45076">
        <ele>128.6</ele>
        <time>2024-04-21T09:25:59Z</time>
      </trkpt>
      <trkpt lat="48.3813" lon="2.45075">
        <ele>128.2</ele>
        <time>2024-04-21T09:26:16Z</time>
      </trkpt>
      <trkpt lat="48.3813" lon="2.45075">
        <ele>128</ele>
        <time>2024-04-21T09:26:17Z</time>
      </trkpt>
      <trkpt lat="48.3813" lon="2.45074">
        <ele>128.4</ele>
        <time>2024-04-21T09:26:33Z</time>
      </trkpt>
      <trkpt lat="48.3813" lon="2.45073">
        <ele>129</ele>
        <time>2024-04-21T09:26:42Z</time>
      </trkpt>
      <trkpt lat="48.3813" lon="2.45072">
        <ele>129.2</ele>
        <time>2024-04-21T09:26:43Z</time>
      </trkpt>
      <trkpt lat="48.3813" lon="2.45072">
        <ele>129.2</ele>
        <time>2024-04-21T09:27:00Z</time>
      </trkpt>
      <trkpt lat="48.38129" lon="2.4507">
        <ele>129.2</ele>
        <time>2024-04-21T09:27:18Z</time>
      </trkpt>
      <trkpt lat="48.38128" lon="2.45069">
        <ele>129.2</ele>
        <time>2024-04-21T09:27:34Z</time>
      </trkpt>
      <trkpt lat="48.38127" lon="2.45069">
        <ele>129.4</ele>
        <time>2024-04-21T09:27:52Z</time>
      </trkpt>
      <trkpt lat="48.38126" lon="2.45069">
        <ele>129.2</ele>
        <time>2024-04-21T09:28:10Z</time>
      </trkpt>
      <trkpt lat="48.38126" lon="2.45067">
        <ele>129.2</ele>
        <time>2024-04-21T09:28:27Z</time>
      </trkpt>
      <trkpt lat="48.38127" lon="2.45066">
        <ele>129.2</ele>
        <time>2024-04-21T09:28:44Z</time>
      </trkpt>
      <trkpt lat="48.38128" lon="2.45066">
        <ele>129.2</ele>
        <time>2024-04-21T09:28:59Z</time>
      </trkpt>
      <trkpt lat="48.38128" lon="2.4507">
        <ele>129</ele>
        <time>2024-04-21T09:29:18Z</time>
      </trkpt>
      <trkpt lat="48.38131" lon="2.45072">
        <ele>129</ele>
        <time>2024-04-21T09:29:28Z</time>
      </trkpt>
      <trkpt lat="48.38134" lon="2.45078">
        <ele>129</ele>
        <time>2024-04-21T09:29:32Z</time>
      </trkpt>
      <trkpt lat="48.38137" lon="2.45089">
        <ele>129</ele>
        <time>2024-04-21T09:29:36Z</time>
      </trkpt>
      <trkpt lat="48.38146" lon="2.45113">
        <ele>128.8</ele>
        <time>2024-04-21T09:29:43Z</time>
      </trkpt>
      <trkpt lat="48.38153" lon="2.45143">
        <ele>128.8</ele>
        <time>2024-04-21T09:29:49Z</time>
      </trkpt>
      <trkpt lat="48.38153" lon="2.4515">
        <ele>128.8</ele>
        <time>2024-04-21T09:29:51Z</time>
      </trkpt>
      <trkpt lat="48.38151" lon="2.45152">
        <ele>128.6</ele>
        <time>2024-04-21T09:29:52Z</time>
      </trkpt>
      <trkpt lat="48.38141" lon="2.45148">
        <ele>128.6</ele>
        <time>2024-04-21T09:29:56Z</time>
      </trkpt>
      <trkpt lat="48.38122" lon="2.45138">
        <ele>129</ele>
        <time>2024-04-21T09:30:04Z</time>
      </trkpt>
      <trkpt lat="48.38109" lon="2.45136">
        <ele>129.2</ele>
        <time>2024-04-21T09:30:10Z</time>
      </trkpt>
      <trkpt lat="48.38087" lon="2.45136">
        <ele>129.8</ele>
        <time>2024-04-21T09:30:18Z</time>
      </trkpt>
      <trkpt lat="48.38067" lon="2.4514">
        <ele>130</ele>
        <time>2024-04-21T09:30:25Z</time>
      </trkpt>
      <trkpt lat="48.38041" lon="2.45146">
        <ele>130.2</ele>
        <time>2024-04-21T09:30:32Z</time>
      </trkpt>
      <trkpt lat="48.38003" lon="2.45151">
        <ele>130.4</ele>
        <time>2024-04-21T09:30:42Z</time>
      </trkpt>
      <trkpt lat="48.38" lon="2.45151">
        <ele>130.6</ele>
        <time>2024-04-21T09:30:43Z</time>
      </trkpt>
      <trkpt lat="48.37977" lon="2.45145">
        <ele>131.4</ele>
        <time>2024-04-21T09:30:49Z</time>
      </trkpt>
      <trkpt lat="48.37945" lon="2.4513">
        <ele>131.6</ele>
        <time>2024-04-21T09:30:58Z</time>
      </trkpt>
      <trkpt lat="48.3792" lon="2.45118">
        <ele>131.6</ele>
        <time>2024-04-21T09:31:05Z</time>
      </trkpt>
      <trkpt lat="48.37881" lon="2.451">
        <ele>131.8</ele>
        <time>2024-04-21T09:31:16Z</time>
      </trkpt>
      <trkpt lat="48.37878" lon="2.45098">
        <ele>131.8</ele>
        <time>2024-04-21T09:31:17Z</time>
      </trkpt>
      <trkpt lat="48.3785" lon="2.45083">
        <ele>132.2</ele>
        <time>2024-04-21T09:31:25Z</time>
      </trkpt>
      <trkpt lat="48.3782" lon="2.45064">
        <ele>132.8</ele>
        <time>2024-04-21T09:31:33Z</time>
      </trkpt>
      <trkpt lat="48.37813" lon="2.45058">
        <ele>133</ele>
        <time>2024-04-21T09:31:35Z</time>
      </trkpt>
      <trkpt lat="48.37785" lon="2.45037">
        <ele>133.8</ele>
        <time>2024-04-21T09:31:43Z</time>
      </trkpt>
      <trkpt lat="48.37762" lon="2.4502">
        <ele>134.4</ele>
        <time>2024-04-21T09:31:50Z</time>
      </trkpt>
      <trkpt lat="48.37733" lon="2.44994">
        <ele>134.4</ele>
        <time>2024-04-21T09:31:58Z</time>
      </trkpt>
      <trkpt lat="48.37704" lon="2.44963">
        <ele>134</ele>
        <time>2024-04-21T09:32:06Z</time>
      </trkpt>
      <trkpt lat="48.37673" lon="2.44932">
        <ele>133.8</ele>
        <time>2024-04-21T09:32:14Z</time>
      </trkpt>
      <trkpt lat="48.37657" lon="2.44916">
        <ele>133.8</ele>
        <time>2024-04-21T09:32:18Z</time>
      </trkpt>
      <trkpt lat="48.37646" lon="2.44905">
        <ele>133.6</ele>
        <time>2024-04-21T09:32:21Z</time>
      </trkpt>
      <trkpt lat="48.3761" lon="2.44869">
        <ele>133.6</ele>
        <time>2024-04-21T09:32:31Z</time>
      </trkpt>
      <trkpt lat="48.37599" lon="2.44858">
        <ele>133.6</ele>
        <time>2024-04-21T09:32:34Z</time>
      </trkpt>
      <trkpt lat="48.37586" lon="2.44847">
        <ele>133.6</ele>
        <time>2024-04-21T09:32:37Z</time>
      </trkpt>
      <trkpt lat="48.37578" lon="2.44841">
        <ele>133.6</ele>
        <time>2024-04-21T09:32:39Z</time>
      </trkpt>
      <trkpt lat="48.37575" lon="2.44831">
        <ele>133.6</ele>
        <time>2024-04-21T09:32:41Z</time>
      </trkpt>
      <trkpt lat="48.37578" lon="2.44809">
        <ele>133.4</ele>
        <time>2024-04-21T09:32:45Z</time>
      </trkpt>
      <trkpt lat="48.37578" lon="2.44804">
        <ele>133.2</ele>
        <time>2024-04-21T09:32:46Z</time>
      </trkpt>
      <trkpt lat="48.37581" lon="2.44786">
        <ele>132.8</ele>
        <time>2024-04-21T09:32:49Z</time>
      </trkpt>
      <trkpt lat="48.37584" lon="2.44772">
        <ele>132</ele>
        <time>2024-04-21T09:32:51Z</time>
      </trkpt>
      <trkpt lat="48.37585" lon="2.44764">
        <ele>131.8</ele>
        <time>2024-04-21T09:32:52Z</time>
      </trkpt>
      <trkpt lat="48.37591" lon="2.44714">
        <ele>131.2</ele>
        <time>2024-04-21T09:32:59Z</time>
      </trkpt>
      <trkpt lat="48.37601" lon="2.44647">
        <ele>130.8</ele>
        <time>2024-04-21T09:33:08Z</time>
      </trkpt>
      <trkpt lat="48.37605" lon="2.44618">
        <ele>130.6</ele>
        <time>2024-04-21T09:33:12Z</time>
      </trkpt>
      <trkpt lat="48.37609" lon="2.44595">
        <ele>130</ele>
        <time>2024-04-21T09:33:15Z</time>
      </trkpt>
      <trkpt lat="48.37618" lon="2.44527">
        <ele>129.4</ele>
        <time>2024-04-21T09:33:24Z</time>
      </trkpt>
      <trkpt lat="48.37627" lon="2.4446">
        <ele>129.2</ele>
        <time>2024-04-21T09:33:33Z</time>
      </trkpt>
      <trkpt lat="48.3763" lon="2.44445">
        <ele>129</ele>
        <time>2024-04-21T09:33:35Z</time>
      </trkpt>
      <trkpt lat="48.37636" lon="2.444">
        <ele>127.8</ele>
        <time>2024-04-21T09:33:41Z</time>
      </trkpt>
      <trkpt lat="48.3764" lon="2.44378">
        <ele>127.4</ele>
        <time>2024-04-21T09:33:44Z</time>
      </trkpt>
      <trkpt lat="48.37648" lon="2.44313">
        <ele>127.2</ele>
        <time>2024-04-21T09:33:52Z</time>
      </trkpt>
      <trkpt lat="48.37657" lon="2.44248">
        <ele>127</ele>
        <time>2024-04-21T09:33:59Z</time>
      </trkpt>
      <trkpt lat="48.3766" lon="2.44227">
        <ele>126.6</ele>
        <time>2024-04-21T09:34:01Z</time>
      </trkpt>
      <trkpt lat="48.37664" lon="2.44196">
        <ele>125.6</ele>
        <time>2024-04-21T09:34:04Z</time>
      </trkpt>
      <trkpt lat="48.37666" lon="2.44186">
        <ele>125.2</ele>
        <time>2024-04-21T09:34:05Z</time>
      </trkpt>
      <trkpt lat="48.37671" lon="2.44166">
        <ele>124.6</ele>
        <time>2024-04-21T09:34:07Z</time>
      </trkpt>
      <trkpt lat="48.37677" lon="2.4415">
        <ele>123.6</ele>
        <time>2024-04-21T09:34:09Z</time>
      </trkpt>
      <trkpt lat="48.3768" lon="2.44142">
        <ele>122.8</ele>
        <time>2024-04-21T09:34:10Z</time>
      </trkpt>
      <trkpt lat="48.37683" lon="2.44135">
        <ele>122.4</ele>
        <time>2024-04-21T09:34:11Z</time>
      </trkpt>
      <trkpt lat="48.37697" lon="2.44112">
        <ele>121.8</ele>
        <time>2024-04-21T09:34:15Z</time>
      </trkpt>
      <trkpt lat="48.37701" lon="2.44106">
        <ele>121.6</ele>
        <time>2024-04-21T09:34:16Z</time>
      </trkpt>
      <trkpt lat="48.3772" lon="2.44078">
        <ele>121.4</ele>
        <time>2024-04-21T09:34:20Z</time>
      </trkpt>
      <trkpt lat="48.37741" lon="2.44039">
        <ele>120.2</ele>
        <time>2024-04-21T09:34:25Z</time>
      </trkpt>
      <trkpt lat="48.37749" lon="2.44026">
        <ele>118.4</ele>
        <time>2024-04-21T09:34:27Z</time>
      </trkpt>
      <trkpt lat="48.37763" lon="2.44004">
        <ele>117.4</ele>
        <time>2024-04-21T09:34:31Z</time>
      </trkpt>
      <trkpt lat="48.37766" lon="2.44">
        <ele>117.4</ele>
        <time>2024-04-21T09:34:32Z</time>
      </trkpt>
      <trkpt lat="48.3778" lon="2.43989">
        <ele>117.4</ele>
        <time>2024-04-21T09:34:36Z</time>
      </trkpt>
      <trkpt lat="48.37788" lon="2.43985">
        <ele>118.6</ele>
        <time>2024-04-21T09:34:38Z</time>
      </trkpt>
      <trkpt lat="48.37801" lon="2.43978">
        <ele>119.6</ele>
        <time>2024-04-21T09:34:41Z</time>
      </trkpt>
      <trkpt lat="48.37813" lon="2.43972">
        <ele>120.8</ele>
        <time>2024-04-21T09:34:44Z</time>
      </trkpt>
      <trkpt lat="48.3782" lon="2.43967">
        <ele>121</ele>
        <time>2024-04-21T09:34:46Z</time>
      </trkpt>
      <trkpt lat="48.37834" lon="2.43955">
        <ele>121.2</ele>
        <time>2024-04-21T09:34:51Z</time>
      </trkpt>
      <trkpt lat="48.37852" lon="2.43933">
        <ele>121.2</ele>
        <time>2024-04-21T09:34:57Z</time>
      </trkpt>
      <trkpt lat="48.37869" lon="2.43907">
        <ele>121.4</ele>
        <time>2024-04-21T09:35:03Z</time>
      </trkpt>
      <trkpt lat="48.37881" lon="2.43879">
        <ele>121.6</ele>
        <time>2024-04-21T09:35:09Z</time>
      </trkpt>
      <trkpt lat="48.3789" lon="2.43856">
        <ele>121.8</ele>
        <time>2024-04-21T09:35:14Z</time>
      </trkpt>
      <trkpt lat="48.37895" lon="2.43843">
        <ele>122.8</ele>
        <time>2024-04-21T09:35:17Z</time>
      </trkpt>
      <trkpt lat="48.37897" lon="2.43838">
        <ele>123.2</ele>
        <time>2024-04-21T09:35:18Z</time>
      </trkpt>
      <trkpt lat="48.3791" lon="2.43798">
        <ele>124</ele>
        <time>2024-04-21T09:35:26Z</time>
      </trkpt>
      <trkpt lat="48.37923" lon="2.43763">
        <ele>124</ele>
        <time>2024-04-21T09:35:32Z</time>
      </trkpt>
      <trkpt lat="48.37935" lon="2.43744">
        <ele>123.2</ele>
        <time>2024-04-21T09:35:35Z</time>
      </trkpt>
      <trkpt lat="48.37944" lon="2.43733">
        <ele>122.4</ele>
        <time>2024-04-21T09:35:37Z</time>
      </trkpt>
      <trkpt lat="48.37949" lon="2.43729">
        <ele>122</ele>
        <time>2024-04-21T09:35:38Z</time>
      </trkpt>
      <trkpt lat="48.37958" lon="2.4372">
        <ele>120.8</ele>
        <time>2024-04-21T09:35:40Z</time>
      </trkpt>
      <trkpt lat="48.37968" lon="2.43711">
        <ele>119.6</ele>
        <time>2024-04-21T09:35:42Z</time>
      </trkpt>
      <trkpt lat="48.37976" lon="2.437">
        <ele>118.2</ele>
        <time>2024-04-21T09:35:44Z</time>
      </trkpt>
      <trkpt lat="48.3798" lon="2.43695">
        <ele>117.8</ele>
        <time>2024-04-21T09:35:45Z</time>
      </trkpt>
      <trkpt lat="48.38005" lon="2.43655">
        <ele>117.4</ele>
        <time>2024-04-21T09:35:52Z</time>
      </trkpt>
      <trkpt lat="48.38027" lon="2.43609">
        <ele>118</ele>
        <time>2024-04-21T09:35:59Z</time>
      </trkpt>
      <trkpt lat="48.38047" lon="2.4356">
        <ele>118</ele>
        <time>2024-04-21T09:36:06Z</time>
      </trkpt>
      <trkpt lat="48.38067" lon="2.43512">
        <ele>117.6</ele>
        <time>2024-04-21T09:36:14Z</time>
      </trkpt>
      <trkpt lat="48.3807" lon="2.43507">
        <ele>117.6</ele>
        <time>2024-04-21T09:36:15Z</time>
      </trkpt>
      <trkpt lat="48.38087" lon="2.43473">
        <ele>117.6</ele>
        <time>2024-04-21T09:36:21Z</time>
      </trkpt>
      <trkpt lat="48.38109" lon="2.43432">
        <ele>118.8</ele>
        <time>2024-04-21T09:36:29Z</time>
      </trkpt>
      <trkpt lat="48.38111" lon="2.43427">
        <ele>119</ele>
        <time>2024-04-21T09:36:30Z</time>
      </trkpt>
      <trkpt lat="48.38116" lon="2.43417">
        <ele>119.4</ele>
        <time>2024-04-21T09:36:32Z</time>
      </trkpt>
      <trkpt lat="48.38126" lon="2.43395">
        <ele>120.4</ele>
        <time>2024-04-21T09:36:36Z</time>
      </trkpt>
      <trkpt lat="48.38135" lon="2.43372">
        <ele>121.2</ele>
        <time>2024-04-21T09:36:40Z</time>
      </trkpt>
      <trkpt lat="48.3814" lon="2.43355">
        <ele>121.4</ele>
        <time>2024-04-21T09:36:43Z</time>
      </trkpt>
      <trkpt lat="48.38154" lon="2.43338">
        <ele>121.8</ele>
        <time>2024-04-21T09:36:47Z</time>
      </trkpt>
      <trkpt lat="48.38178" lon="2.43316">
        <ele>122</ele>
        <time>2024-04-21T09:36:54Z</time>
      </trkpt>
      <trkpt lat="48.38187" lon="2.43309">
        <ele>122.2</ele>
        <time>2024-04-21T09:36:58Z</time>
      </trkpt>
      <trkpt lat="48.38189" lon="2.43307">
        <ele>122.8</ele>
        <time>2024-04-21T09:37:01Z</time>
      </trkpt>
      <trkpt lat="48.38189" lon="2.43307">
        <ele>123.4</ele>
        <time>2024-04-21T09:37:02Z</time>
      </trkpt>
      <trkpt lat="48.3819" lon="2.43306">
        <ele>124</ele>
        <time>2024-04-21T09:37:08Z</time>
      </trkpt>
      <trkpt lat="48.3819" lon="2.43306">
        <ele>124.2</ele>
        <time>2024-04-21T09:37:18Z</time>
      </trkpt>
      <trkpt lat="48.3819" lon="2.43302">
        <ele>124.2</ele>
        <time>2024-04-21T09:37:28Z</time>
      </trkpt>
      <trkpt lat="48.38189" lon="2.433">
        <ele>124.2</ele>
        <time>2024-04-21T09:37:29Z</time>
      </trkpt>
      <trkpt lat="48.38181" lon="2.43289">
        <ele>124.2</ele>
        <time>2024-04-21T09:37:33Z</time>
      </trkpt>
      <trkpt lat="48.38179" lon="2.43286">
        <ele>124.2</ele>
        <time>2024-04-21T09:37:34Z</time>
      </trkpt>
      <trkpt lat="48.3816" lon="2.43263">
        <ele>124</ele>
        <time>2024-04-21T09:37:41Z</time>
      </trkpt>
      <trkpt lat="48.38158" lon="2.43258">
        <ele>123.8</ele>
        <time>2024-04-21T09:37:42Z</time>
      </trkpt>
      <trkpt lat="48.38159" lon="2.43248">
        <ele>123.8</ele>
        <time>2024-04-21T09:37:44Z</time>
      </trkpt>
      <trkpt lat="48.38163" lon="2.43238">
        <ele>123.8</ele>
        <time>2024-04-21T09:37:46Z</time>
      </trkpt>
      <trkpt lat="48.38175" lon="2.43209">
        <ele>124</ele>
        <time>2024-04-21T09:37:52Z</time>
      </trkpt>
      <trkpt lat="48.38192" lon="2.43168">
        <ele>124.4</ele>
        <time>2024-04-21T09:38:01Z</time>
      </trkpt>
      <trkpt lat="48.38208" lon="2.43129">
        <ele>125.4</ele>
        <time>2024-04-21T09:38:09Z</time>
      </trkpt>
      <trkpt lat="48.38225" lon="2.43089">
        <ele>125.4</ele>
        <time>2024-04-21T09:38:17Z</time>
      </trkpt>
      <trkpt lat="48.38239" lon="2.43054">
        <ele>125.4</ele>
        <time>2024-04-21T09:38:24Z</time>
      </trkpt>
      <trkpt lat="48.38251" lon="2.43023">
        <ele>125.6</ele>
        <time>2024-04-21T09:38:30Z</time>
      </trkpt>
      <trkpt lat="48.38266" lon="2.4299">
        <ele>126</ele>
        <time>2024-04-21T09:38:37Z</time>
      </trkpt>
      <trkpt lat="48.38272" lon="2.42977">
        <ele>126.4</ele>
        <time>2024-04-21T09:38:40Z</time>
      </trkpt>
      <trkpt lat="48.3828" lon="2.42956">
        <ele>127.2</ele>
        <time>2024-04-21T09:38:44Z</time>
      </trkpt>
      <trkpt lat="48.38283" lon="2.42945">
        <ele>127.4</ele>
        <time>2024-04-21T09:38:46Z</time>
      </trkpt>
      <trkpt lat="48.38285" lon="2.42939">
        <ele>127.6</ele>
        <time>2024-04-21T09:38:47Z</time>
      </trkpt>
      <trkpt lat="48.38292" lon="2.42917">
        <ele>127.8</ele>
        <time>2024-04-21T09:38:51Z</time>
      </trkpt>
      <trkpt lat="48.3831" lon="2.42867">
        <ele>128.2</ele>
        <time>2024-04-21T09:39:00Z</time>
      </trkpt>
      <trkpt lat="48.38316" lon="2.42851">
        <ele>128.4</ele>
        <time>2024-04-21T09:39:03Z</time>
      </trkpt>
      <trkpt lat="48.38318" lon="2.42845">
        <ele>128.6</ele>
        <time>2024-04-21T09:39:04Z</time>
      </trkpt>
      <trkpt lat="48.38322" lon="2.42836">
        <ele>128.6</ele>
        <time>2024-04-21T09:39:06Z</time>
      </trkpt>
      <trkpt lat="48.38324" lon="2.42831">
        <ele>128.8</ele>
        <time>2024-04-21T09:39:07Z</time>
      </trkpt>
      <trkpt lat="48.38337" lon="2.42806">
        <ele>129.6</ele>
        <time>2024-04-21T09:39:13Z</time>
      </trkpt>
      <trkpt lat="48.38349" lon="2.42778">
        <ele>130.6</ele>
        <time>2024-04-21T09:39:19Z</time>
      </trkpt>
      <trkpt lat="48.38351" lon="2.42773">
        <ele>130.8</ele>
        <time>2024-04-21T09:39:20Z</time>
      </trkpt>
      <trkpt lat="48.38364" lon="2.42742">
        <ele>131.4</ele>
        <time>2024-04-21T09:39:26Z</time>
      </trkpt>
      <trkpt lat="48.38376" lon="2.42715">
        <ele>131.6</ele>
        <time>2024-04-21T09:39:31Z</time>
      </trkpt>
      <trkpt lat="48.38382" lon="2.42707">
        <ele>131.6</ele>
        <time>2024-04-21T09:39:33Z</time>
      </trkpt>
      <trkpt lat="48.38394" lon="2.42699">
        <ele>131.6</ele>
        <time>2024-04-21T09:39:36Z</time>
      </trkpt>
      <trkpt lat="48.38402" lon="2.42695">
        <ele>131.4</ele>
        <time>2024-04-21T09:39:38Z</time>
      </trkpt>
      <trkpt lat="48.38434" lon="2.42683">
        <ele>131.4</ele>
        <time>2024-04-21T09:39:46Z</time>
      </trkpt>
      <trkpt lat="48.38468" lon="2.42673">
        <ele>131.4</ele>
        <time>2024-04-21T09:39:54Z</time>
      </trkpt>
      <trkpt lat="48.38486" lon="2.42665">
        <ele>131.8</ele>
        <time>2024-04-21T09:39:59Z</time>
      </trkpt>
      <trkpt lat="48.38518" lon="2.42653">
        <ele>132.8</ele>
        <time>2024-04-21T09:40:06Z</time>
      </trkpt>
      <trkpt lat="48.38528" lon="2.42649">
        <ele>132.8</ele>
        <time>2024-04-21T09:40:08Z</time>
      </trkpt>
      <trkpt lat="48.38559" lon="2.42638">
        <ele>133.4</ele>
        <time>2024-04-21T09:40:15Z</time>
      </trkpt>
      <trkpt lat="48.38599" lon="2.42623">
        <ele>134</ele>
        <time>2024-04-21T09:40:24Z</time>
      </trkpt>
      <trkpt lat="48.38634" lon="2.42604">
        <ele>134.2</ele>
        <time>2024-04-21T09:40:32Z</time>
      </trkpt>
      <trkpt lat="48.3867" lon="2.42575">
        <ele>134.6</ele>
        <time>2024-04-21T09:40:41Z</time>
      </trkpt>
      <trkpt lat="48.38704" lon="2.42543">
        <ele>135</ele>
        <time>2024-04-21T09:40:50Z</time>
      </trkpt>
      <trkpt lat="48.38724" lon="2.42532">
        <ele>135.2</ele>
        <time>2024-04-21T09:40:55Z</time>
      </trkpt>
      <trkpt lat="48.38735" lon="2.42525">
        <ele>135.6</ele>
        <time>2024-04-21T09:40:58Z</time>
      </trkpt>
      <trkpt lat="48.38741" lon="2.42517">
        <ele>135.8</ele>
        <time>2024-04-21T09:41:00Z</time>
      </trkpt>
      <trkpt lat="48.38742" lon="2.42512">
        <ele>136</ele>
        <time>2024-04-21T09:41:01Z</time>
      </trkpt>
      <trkpt lat="48.3874" lon="2.42502">
        <ele>136.4</ele>
        <time>2024-04-21T09:41:03Z</time>
      </trkpt>
      <trkpt lat="48.38737" lon="2.42494">
        <ele>136.8</ele>
        <time>2024-04-21T09:41:05Z</time>
      </trkpt>
      <trkpt lat="48.38732" lon="2.42471">
        <ele>137.4</ele>
        <time>2024-04-21T09:41:11Z</time>
      </trkpt>
      <trkpt lat="48.38731" lon="2.42468">
        <ele>137.6</ele>
        <time>2024-04-21T09:41:12Z</time>
      </trkpt>
      <trkpt lat="48.38725" lon="2.4244">
        <ele>137.8</ele>
        <time>2024-04-21T09:41:18Z</time>
      </trkpt>
      <trkpt lat="48.38718" lon="2.42406">
        <ele>137.6</ele>
        <time>2024-04-21T09:41:25Z</time>
      </trkpt>
      <trkpt lat="48.38711" lon="2.42367">
        <ele>137.8</ele>
        <time>2024-04-21T09:41:33Z</time>
      </trkpt>
      <trkpt lat="48.38705" lon="2.42332">
        <ele>138.2</ele>
        <time>2024-04-21T09:41:40Z</time>
      </trkpt>
      <trkpt lat="48.387" lon="2.42308">
        <ele>138.4</ele>
        <time>2024-04-21T09:41:45Z</time>
      </trkpt>
      <trkpt lat="48.38694" lon="2.42275">
        <ele>138.6</ele>
        <time>2024-04-21T09:41:52Z</time>
      </trkpt>
      <trkpt lat="48.38689" lon="2.42247">
        <ele>138.6</ele>
        <time>2024-04-21T09:41:58Z</time>
      </trkpt>
      <trkpt lat="48.38683" lon="2.42209">
        <ele>138.2</ele>
        <time>2024-04-21T09:42:05Z</time>
      </trkpt>
      <trkpt lat="48.38677" lon="2.42175">
        <ele>138</ele>
        <time>2024-04-21T09:42:11Z</time>
      </trkpt>
      <trkpt lat="48.38675" lon="2.42164">
        <ele>138</ele>
        <time>2024-04-21T09:42:13Z</time>
      </trkpt>
      <trkpt lat="48.38663" lon="2.42111">
        <ele>137.8</ele>
        <time>2024-04-21T09:42:22Z</time>
      </trkpt>
      <trkpt lat="48.38655" lon="2.42077">
        <ele>137.8</ele>
        <time>2024-04-21T09:42:28Z</time>
      </trkpt>
      <trkpt lat="48.38648" lon="2.42046">
        <ele>137.8</ele>
        <time>2024-04-21T09:42:33Z</time>
      </trkpt>
      <trkpt lat="48.38646" lon="2.4204">
        <ele>137.8</ele>
        <time>2024-04-21T09:42:34Z</time>
      </trkpt>
      <trkpt lat="48.38639" lon="2.42016">
        <ele>137.8</ele>
        <time>2024-04-21T09:42:38Z</time>
      </trkpt>
      <trkpt lat="48.38631" lon="2.41992">
        <ele>137.2</ele>
        <time>2024-04-21T09:42:42Z</time>
      </trkpt>
      <trkpt lat="48.38627" lon="2.41977">
        <ele>136.8</ele>
        <time>2024-04-21T09:42:45Z</time>
      </trkpt>
      <trkpt lat="48.38625" lon="2.41971">
        <ele>136.8</ele>
        <time>2024-04-21T09:42:46Z</time>
      </trkpt>
      <trkpt lat="48.38622" lon="2.41954">
        <ele>136.8</ele>
        <time>2024-04-21T09:42:49Z</time>
      </trkpt>
      <trkpt lat="48.38621" lon="2.41948">
        <ele>136.8</ele>
        <time>2024-04-21T09:42:50Z</time>
      </trkpt>
      <trkpt lat="48.38616" lon="2.41893">
        <ele>137.2</ele>
        <time>2024-04-21T09:42:58Z</time>
      </trkpt>
      <trkpt lat="48.38611" lon="2.41843">
        <ele>137.4</ele>
        <time>2024-04-21T09:43:06Z</time>
      </trkpt>
      <trkpt lat="48.38609" lon="2.41812">
        <ele>137.2</ele>
        <time>2024-04-21T09:43:12Z</time>
      </trkpt>
      <trkpt lat="48.38609" lon="2.4178">
        <ele>137.4</ele>
        <time>2024-04-21T09:43:19Z</time>
      </trkpt>
      <trkpt lat="48.38605" lon="2.41754">
        <ele>138.4</ele>
        <time>2024-04-21T09:43:24Z</time>
      </trkpt>
      <trkpt lat="48.38605" lon="2.41721">
        <ele>138.8</ele>
        <time>2024-04-21T09:43:30Z</time>
      </trkpt>
      <trkpt lat="48.38607" lon="2.4171">
        <ele>139</ele>
        <time>2024-04-21T09:43:32Z</time>
      </trkpt>
      <trkpt lat="48.38615" lon="2.41671">
        <ele>138.8</ele>
        <time>2024-04-21T09:43:39Z</time>
      </trkpt>
      <trkpt lat="48.3863" lon="2.41634">
        <ele>138.8</ele>
        <time>2024-04-21T09:43:47Z</time>
      </trkpt>
      <trkpt lat="48.38653" lon="2.41597">
        <ele>138.6</ele>
        <time>2024-04-21T09:43:55Z</time>
      </trkpt>
      <trkpt lat="48.38684" lon="2.4156">
        <ele>138</ele>
        <time>2024-04-21T09:44:04Z</time>
      </trkpt>
      <trkpt lat="48.38691" lon="2.41552">
        <ele>137.8</ele>
        <time>2024-04-21T09:44:06Z</time>
      </trkpt>
      <trkpt lat="48.38721" lon="2.41521">
        <ele>137.2</ele>
        <time>2024-04-21T09:44:14Z</time>
      </trkpt>
      <trkpt lat="48.3875" lon="2.41488">
        <ele>137</ele>
        <time>2024-04-21T09:44:22Z</time>
      </trkpt>
      <trkpt lat="48.38775" lon="2.41453">
        <ele>137.2</ele>
        <time>2024-04-21T09:44:30Z</time>
      </trkpt>
      <trkpt lat="48.38789" lon="2.41421">
        <ele>137.4</ele>
        <time>2024-04-21T09:44:37Z</time>
      </trkpt>
      <trkpt lat="48.38784" lon="2.41391">
        <ele>138.4</ele>
        <time>2024-04-21T09:44:43Z</time>
      </trkpt>
      <trkpt lat="48.38777" lon="2.4135">
        <ele>138.8</ele>
        <time>2024-04-21T09:44:50Z</time>
      </trkpt>
      <trkpt lat="48.38768" lon="2.413">
        <ele>137.6</ele>
        <time>2024-04-21T09:44:58Z</time>
      </trkpt>
      <trkpt lat="48.38763" lon="2.41267">
        <ele>137</ele>
        <time>2024-04-21T09:45:03Z</time>
      </trkpt>
      <trkpt lat="48.38758" lon="2.41233">
        <ele>136</ele>
        <time>2024-04-21T09:45:08Z</time>
      </trkpt>
      <trkpt lat="48.38749" lon="2.41171">
        <ele>135.6</ele>
        <time>2024-04-21T09:45:17Z</time>
      </trkpt>
      <trkpt lat="48.38741" lon="2.41129">
        <ele>135.6</ele>
        <time>2024-04-21T09:45:23Z</time>
      </trkpt>
      <trkpt lat="48.3874" lon="2.41122">
        <ele>135.4</ele>
        <time>2024-04-21T09:45:24Z</time>
      </trkpt>
      <trkpt lat="48.38735" lon="2.41087">
        <ele>135.4</ele>
        <time>2024-04-21T09:45:29Z</time>
      </trkpt>
      <trkpt lat="48.38734" lon="2.41081">
        <ele>135.4</ele>
        <time>2024-04-21T09:45:30Z</time>
      </trkpt>
      <trkpt lat="48.38732" lon="2.41074">
        <ele>135.4</ele>
        <time>2024-04-21T09:45:31Z</time>
      </trkpt>
      <trkpt lat="48.38726" lon="2.41033">
        <ele>135.2</ele>
        <time>2024-04-21T09:45:37Z</time>
      </trkpt>
      <trkpt lat="48.38721" lon="2.41004">
        <ele>135</ele>
        <time>2024-04-21T09:45:41Z</time>
      </trkpt>
      <trkpt lat="48.38717" lon="2.40976">
        <ele>134.8</ele>
        <time>2024-04-21T09:45:45Z</time>
      </trkpt>
      <trkpt lat="48.38707" lon="2.40909">
        <ele>134.6</ele>
        <time>2024-04-21T09:45:54Z</time>
      </trkpt>
      <trkpt lat="48.38696" lon="2.40841">
        <ele>134.4</ele>
        <time>2024-04-21T09:46:03Z</time>
      </trkpt>
      <trkpt lat="48.38691" lon="2.40806">
        <ele>134</ele>
        <time>2024-04-21T09:46:08Z</time>
      </trkpt>
      <trkpt lat="48.38691" lon="2.408">
        <ele>134</ele>
        <time>2024-04-21T09:46:09Z</time>
      </trkpt>
      <trkpt lat="48.38692" lon="2.40795">
        <ele>134</ele>
        <time>2024-04-21T09:46:10Z</time>
      </trkpt>
      <trkpt lat="48.387" lon="2.40792">
        <ele>134</ele>
        <time>2024-04-21T09:46:13Z</time>
      </trkpt>
      <trkpt lat="48.38713" lon="2.40794">
        <ele>133.8</ele>
        <time>2024-04-21T09:46:17Z</time>
      </trkpt>
      <trkpt lat="48.38716" lon="2.40794">
        <ele>133.8</ele>
        <time>2024-04-21T09:46:18Z</time>
      </trkpt>
      <trkpt lat="48.38736" lon="2.40793">
        <ele>134.4</ele>
        <time>2024-04-21T09:46:25Z</time>
      </trkpt>
      <trkpt lat="48.3877" lon="2.40789">
        <ele>134.4</ele>
        <time>2024-04-21T09:46:34Z</time>
      </trkpt>
      <trkpt lat="48.38804" lon="2.40785">
        <ele>134.4</ele>
        <time>2024-04-21T09:46:43Z</time>
      </trkpt>
      <trkpt lat="48.38831" lon="2.40783">
        <ele>134.2</ele>
        <time>2024-04-21T09:46:51Z</time>
      </trkpt>
      <trkpt lat="48.38862" lon="2.40779">
        <ele>134</ele>
        <time>2024-04-21T09:47:00Z</time>
      </trkpt>
      <trkpt lat="48.38878" lon="2.40778">
        <ele>134</ele>
        <time>2024-04-21T09:47:05Z</time>
      </trkpt>
      <trkpt lat="48.38887" lon="2.40777">
        <ele>134</ele>
        <time>2024-04-21T09:47:08Z</time>
      </trkpt>
      <trkpt lat="48.38917" lon="2.40774">
        <ele>134.6</ele>
        <time>2024-04-21T09:47:17Z</time>
      </trkpt>
      <trkpt lat="48.38934" lon="2.40769">
        <ele>134.8</ele>
        <time>2024-04-21T09:47:23Z</time>
      </trkpt>
      <trkpt lat="48.38942" lon="2.40769">
        <ele>134.8</ele>
        <time>2024-04-21T09:47:26Z</time>
      </trkpt>
      <trkpt lat="48.38945" lon="2.4077">
        <ele>134.6</ele>
        <time>2024-04-21T09:47:28Z</time>
      </trkpt>
      <trkpt lat="48.38952" lon="2.40771">
        <ele>134.4</ele>
        <time>2024-04-21T09:47:33Z</time>
      </trkpt>
      <trkpt lat="48.3896" lon="2.40769">
        <ele>134.2</ele>
        <time>2024-04-21T09:47:38Z</time>
      </trkpt>
      <trkpt lat="48.38971" lon="2.40764">
        <ele>134</ele>
        <time>2024-04-21T09:47:45Z</time>
      </trkpt>
      <trkpt lat="48.38986" lon="2.40761">
        <ele>133.8</ele>
        <time>2024-04-21T09:47:52Z</time>
      </trkpt>
      <trkpt lat="48.39004" lon="2.40756">
        <ele>133.4</ele>
        <time>2024-04-21T09:47:59Z</time>
      </trkpt>
      <trkpt lat="48.39007" lon="2.40754">
        <ele>133.2</ele>
        <time>2024-04-21T09:48:01Z</time>
      </trkpt>
      <trkpt lat="48.39011" lon="2.40753">
        <ele>133</ele>
        <time>2024-04-21T09:48:03Z</time>
      </trkpt>
      <trkpt lat="48.39013" lon="2.40752">
        <ele>133</ele>
        <time>2024-04-21T09:48:04Z</time>
      </trkpt>
      <trkpt lat="48.39021" lon="2.40755">
        <ele>132.6</ele>
        <time>2024-04-21T09:48:08Z</time>
      </trkpt>
      <trkpt lat="48.39033" lon="2.40749">
        <ele>132.2</ele>
        <time>2024-04-21T09:48:13Z</time>
      </trkpt>
      <trkpt lat="48.39038" lon="2.40746">
        <ele>132</ele>
        <time>2024-04-21T09:48:15Z</time>
      </trkpt>
      <trkpt lat="48.39041" lon="2.40745">
        <ele>132</ele>
        <time>2024-04-21T09:48:16Z</time>
      </trkpt>
      <trkpt lat="48.39048" lon="2.40742">
        <ele>131.8</ele>
        <time>2024-04-21T09:48:19Z</time>
      </trkpt>
      <trkpt lat="48.39063" lon="2.40739">
        <ele>131</ele>
        <time>2024-04-21T09:48:25Z</time>
      </trkpt>
      <trkpt lat="48.39073" lon="2.40741">
        <ele>130.8</ele>
        <time>2024-04-21T09:48:29Z</time>
      </trkpt>
      <trkpt lat="48.39079" lon="2.40741">
        <ele>130.8</ele>
        <time>2024-04-21T09:48:31Z</time>
      </trkpt>
      <trkpt lat="48.39083" lon="2.40742">
        <ele>130.6</ele>
        <time>2024-04-21T09:48:33Z</time>
      </trkpt>
      <trkpt lat="48.39088" lon="2.40745">
        <ele>130.4</ele>
        <time>2024-04-21T09:48:35Z</time>
      </trkpt>
      <trkpt lat="48.39091" lon="2.40745">
        <ele>130.2</ele>
        <time>2024-04-21T09:48:36Z</time>
      </trkpt>
      <trkpt lat="48.39096" lon="2.4074">
        <ele>129.8</ele>
        <time>2024-04-21T09:48:38Z</time>
      </trkpt>
      <trkpt lat="48.39098" lon="2.40737">
        <ele>129.6</ele>
        <time>2024-04-21T09:48:39Z</time>
      </trkpt>
      <trkpt lat="48.391" lon="2.40734">
        <ele>129.2</ele>
        <time>2024-04-21T09:48:44Z</time>
      </trkpt>
      <trkpt lat="48.39101" lon="2.40733">
        <ele>128.4</ele>
        <time>2024-04-21T09:48:46Z</time>
      </trkpt>
      <trkpt lat="48.39101" lon="2.40732">
        <ele>128.4</ele>
        <time>2024-04-21T09:49:00Z</time>
      </trkpt>
      <trkpt lat="48.39102" lon="2.40732">
        <ele>128.6</ele>
        <time>2024-04-21T09:49:16Z</time>
      </trkpt>
      <trkpt lat="48.39103" lon="2.40731">
        <ele>128.4</ele>
        <time>2024-04-21T09:49:34Z</time>
      </trkpt>
      <trkpt lat="48.39106" lon="2.40732">
        <ele>128</ele>
        <time>2024-04-21T09:49:50Z</time>
      </trkpt>
      <trkpt lat="48.39107" lon="2.4073">
        <ele>128.4</ele>
        <time>2024-04-21T09:50:09Z</time>
      </trkpt>
      <trkpt lat="48.39109" lon="2.40728">
        <ele>128.4</ele>
        <time>2024-04-21T09:50:26Z</time>
      </trkpt>
      <trkpt lat="48.3911" lon="2.40728">
        <ele>128.4</ele>
        <time>2024-04-21T09:50:38Z</time>
      </trkpt>
      <trkpt lat="48.39112" lon="2.40728">
        <ele>128.8</ele>
        <time>2024-04-21T09:50:55Z</time>
      </trkpt>
      <trkpt lat="48.39111" lon="2.40728">
        <ele>129</ele>
        <time>2024-04-21T09:51:14Z</time>
      </trkpt>
      <trkpt lat="48.3911" lon="2.40728">
        <ele>128.8</ele>
        <time>2024-04-21T09:51:29Z</time>
      </trkpt>
      <trkpt lat="48.39112" lon="2.40726">
        <ele>128.8</ele>
        <time>2024-04-21T09:51:34Z</time>
      </trkpt>
      <trkpt lat="48.39116" lon="2.40721">
        <ele>128.8</ele>
        <time>2024-04-21T09:51:36Z</time>
      </trkpt>
      <trkpt lat="48.39127" lon="2.40702">
        <ele>128.6</ele>
        <time>2024-04-21T09:51:42Z</time>
      </trkpt>
      <trkpt lat="48.39133" lon="2.40692">
        <ele>127</ele>
        <time>2024-04-21T09:51:46Z</time>
      </trkpt>
      <trkpt lat="48.39138" lon="2.40688">
        <ele>126.6</ele>
        <time>2024-04-21T09:51:48Z</time>
      </trkpt>
      <trkpt lat="48.39153" lon="2.40671">
        <ele>126.2</ele>
        <time>2024-04-21T09:51:54Z</time>
      </trkpt>
      <trkpt lat="48.39165" lon="2.40655">
        <ele>125.8</ele>
        <time>2024-04-21T09:51:59Z</time>
      </trkpt>
      <trkpt lat="48.39172" lon="2.40647">
        <ele>125.4</ele>
        <time>2024-04-21T09:52:01Z</time>
      </trkpt>
      <trkpt lat="48.39194" lon="2.40616">
        <ele>125</ele>
        <time>2024-04-21T09:52:08Z</time>
      </trkpt>
      <trkpt lat="48.39202" lon="2.406">
        <ele>124.8</ele>
        <time>2024-04-21T09:52:11Z</time>
      </trkpt>
      <trkpt lat="48.3921" lon="2.40586">
        <ele>124.6</ele>
        <time>2024-04-21T09:52:14Z</time>
      </trkpt>
      <trkpt lat="48.39221" lon="2.40557">
        <ele>124</ele>
        <time>2024-04-21T09:52:19Z</time>
      </trkpt>
      <trkpt lat="48.39224" lon="2.40537">
        <ele>124</ele>
        <time>2024-04-21T09:52:22Z</time>
      </trkpt>
      <trkpt lat="48.39226" lon="2.40529">
        <ele>124</ele>
        <time>2024-04-21T09:52:24Z</time>
      </trkpt>
      <trkpt lat="48.39233" lon="2.40501">
        <ele>124</ele>
        <time>2024-04-21T09:52:29Z</time>
      </trkpt>
      <trkpt lat="48.39234" lon="2.40493">
        <ele>124</ele>
        <time>2024-04-21T09:52:30Z</time>
      </trkpt>
      <trkpt lat="48.39242" lon="2.40454">
        <ele>123.8</ele>
        <time>2024-04-21T09:52:35Z</time>
      </trkpt>
      <trkpt lat="48.39245" lon="2.40426">
        <ele>122.4</ele>
        <time>2024-04-21T09:52:38Z</time>
      </trkpt>
      <trkpt lat="48.39244" lon="2.40418">
        <ele>121.8</ele>
        <time>2024-04-21T09:52:39Z</time>
      </trkpt>
      <trkpt lat="48.39242" lon="2.40409">
        <ele>121.2</ele>
        <time>2024-04-21T09:52:40Z</time>
      </trkpt>
      <trkpt lat="48.3924" lon="2.40391">
        <ele>118.8</ele>
        <time>2024-04-21T09:52:42Z</time>
      </trkpt>
      <trkpt lat="48.39237" lon="2.40377">
        <ele>117.6</ele>
        <time>2024-04-21T09:52:44Z</time>
      </trkpt>
      <trkpt lat="48.39235" lon="2.40372">
        <ele>117.4</ele>
        <time>2024-04-21T09:52:45Z</time>
      </trkpt>
      <trkpt lat="48.39225" lon="2.40351">
        <ele>117.2</ele>
        <time>2024-04-21T09:52:50Z</time>
      </trkpt>
      <trkpt lat="48.3922" lon="2.40335">
        <ele>118.2</ele>
        <time>2024-04-21T09:52:55Z</time>
      </trkpt>
      <trkpt lat="48.39219" lon="2.40329">
        <ele>118.6</ele>
        <time>2024-04-21T09:52:57Z</time>
      </trkpt>
      <trkpt lat="48.39216" lon="2.40319">
        <ele>119</ele>
        <time>2024-04-21T09:53:00Z</time>
      </trkpt>
      <trkpt lat="48.39214" lon="2.40312">
        <ele>119.2</ele>
        <time>2024-04-21T09:53:02Z</time>
      </trkpt>
      <trkpt lat="48.39211" lon="2.40303">
        <ele>119.4</ele>
        <time>2024-04-21T09:53:05Z</time>
      </trkpt>
      <trkpt lat="48.39209" lon="2.40299">
        <ele>119.4</ele>
        <time>2024-04-21T09:53:08Z</time>
      </trkpt>
      <trkpt lat="48.39206" lon="2.40295">
        <ele>119.8</ele>
        <time>2024-04-21T09:53:11Z</time>
      </trkpt>
      <trkpt lat="48.39205" lon="2.40281">
        <ele>120.2</ele>
        <time>2024-04-21T09:53:23Z</time>
      </trkpt>
      <trkpt lat="48.39201" lon="2.4027">
        <ele>120.4</ele>
        <time>2024-04-21T09:53:32Z</time>
      </trkpt>
      <trkpt lat="48.39197" lon="2.4025">
        <ele>120.2</ele>
        <time>2024-04-21T09:53:41Z</time>
      </trkpt>
      <trkpt lat="48.39191" lon="2.4023">
        <ele>119.8</ele>
        <time>2024-04-21T09:53:48Z</time>
      </trkpt>
      <trkpt lat="48.39186" lon="2.40211">
        <ele>119.6</ele>
        <time>2024-04-21T09:53:52Z</time>
      </trkpt>
      <trkpt lat="48.39184" lon="2.4019">
        <ele>119.4</ele>
        <time>2024-04-21T09:53:58Z</time>
      </trkpt>
      <trkpt lat="48.39176" lon="2.40171">
        <ele>119.2</ele>
        <time>2024-04-21T09:54:04Z</time>
      </trkpt>
      <trkpt lat="48.39169" lon="2.40154">
        <ele>119.2</ele>
        <time>2024-04-21T09:54:10Z</time>
      </trkpt>
      <trkpt lat="48.39157" lon="2.40138">
        <ele>119.2</ele>
        <time>2024-04-21T09:54:15Z</time>
      </trkpt>
      <trkpt lat="48.39147" lon="2.40119">
        <ele>118.8</ele>
        <time>2024-04-21T09:54:20Z</time>
      </trkpt>
      <trkpt lat="48.39145" lon="2.40115">
        <ele>118.6</ele>
        <time>2024-04-21T09:54:21Z</time>
      </trkpt>
      <trkpt lat="48.39144" lon="2.40111">
        <ele>118.6</ele>
        <time>2024-04-21T09:54:22Z</time>
      </trkpt>
      <trkpt lat="48.39144" lon="2.40094">
        <ele>118</ele>
        <time>2024-04-21T09:54:25Z</time>
      </trkpt>
      <trkpt lat="48.39143" lon="2.40081">
        <ele>117.8</ele>
        <time>2024-04-21T09:54:27Z</time>
      </trkpt>
      <trkpt lat="48.3914" lon="2.40062">
        <ele>117.4</ele>
        <time>2024-04-21T09:54:30Z</time>
      </trkpt>
      <trkpt lat="48.3914" lon="2.40045">
        <ele>118</ele>
        <time>2024-04-21T09:54:36Z</time>
      </trkpt>
      <trkpt lat="48.3914" lon="2.40035">
        <ele>118.6</ele>
        <time>2024-04-21T09:54:47Z</time>
      </trkpt>
      <trkpt lat="48.39141" lon="2.40033">
        <ele>118.6</ele>
        <time>2024-04-21T09:54:48Z</time>
      </trkpt>
      <trkpt lat="48.39143" lon="2.40017">
        <ele>118.4</ele>
        <time>2024-04-21T09:54:53Z</time>
      </trkpt>
      <trkpt lat="48.39143" lon="2.39996">
        <ele>116.4</ele>
        <time>2024-04-21T09:54:58Z</time>
      </trkpt>
      <trkpt lat="48.39144" lon="2.39988">
        <ele>115.4</ele>
        <time>2024-04-21T09:55:00Z</time>
      </trkpt>
      <trkpt lat="48.39143" lon="2.39977">
        <ele>114.6</ele>
        <time>2024-04-21T09:55:04Z</time>
      </trkpt>
      <trkpt lat="48.39141" lon="2.39956">
        <ele>114.4</ele>
        <time>2024-04-21T09:55:11Z</time>
      </trkpt>
      <trkpt lat="48.3914" lon="2.39934">
        <ele>114.2</ele>
        <time>2024-04-21T09:55:15Z</time>
      </trkpt>
      <trkpt lat="48.39139" lon="2.39929">
        <ele>114.2</ele>
        <time>2024-04-21T09:55:16Z</time>
      </trkpt>
      <trkpt lat="48.39136" lon="2.3992">
        <ele>113.4</ele>
        <time>2024-04-21T09:55:18Z</time>
      </trkpt>
      <trkpt lat="48.39134" lon="2.39917">
        <ele>113.2</ele>
        <time>2024-04-21T09:55:19Z</time>
      </trkpt>
      <trkpt lat="48.39129" lon="2.39905">
        <ele>112</ele>
        <time>2024-04-21T09:55:22Z</time>
      </trkpt>
      <trkpt lat="48.39128" lon="2.39901">
        <ele>111.2</ele>
        <time>2024-04-21T09:55:23Z</time>
      </trkpt>
      <trkpt lat="48.39127" lon="2.39899">
        <ele>110.4</ele>
        <time>2024-04-21T09:55:24Z</time>
      </trkpt>
      <trkpt lat="48.39125" lon="2.39885">
        <ele>109.2</ele>
        <time>2024-04-21T09:55:28Z</time>
      </trkpt>
      <trkpt lat="48.39123" lon="2.39861">
        <ele>108.6</ele>
        <time>2024-04-21T09:55:33Z</time>
      </trkpt>
      <trkpt lat="48.39116" lon="2.39847">
        <ele>108.4</ele>
        <time>2024-04-21T09:55:37Z</time>
      </trkpt>
      <trkpt lat="48.39111" lon="2.39824">
        <ele>108.6</ele>
        <time>2024-04-21T09:55:43Z</time>
      </trkpt>
      <trkpt lat="48.3911" lon="2.39798">
        <ele>109.4</ele>
        <time>2024-04-21T09:55:50Z</time>
      </trkpt>
      <trkpt lat="48.39111" lon="2.39785">
        <ele>109.4</ele>
        <time>2024-04-21T09:55:53Z</time>
      </trkpt>
      <trkpt lat="48.39113" lon="2.39776">
        <ele>109.6</ele>
        <time>2024-04-21T09:55:56Z</time>
      </trkpt>
      <trkpt lat="48.39122" lon="2.39759">
        <ele>109.8</ele>
        <time>2024-04-21T09:56:02Z</time>
      </trkpt>
      <trkpt lat="48.39123" lon="2.39756">
        <ele>110.6</ele>
        <time>2024-04-21T09:56:04Z</time>
      </trkpt>
      <trkpt lat="48.39125" lon="2.39753">
        <ele>111.8</ele>
        <time>2024-04-21T09:56:07Z</time>
      </trkpt>
      <trkpt lat="48.39125" lon="2.39753">
        <ele>113</ele>
        <time>2024-04-21T09:56:09Z</time>
      </trkpt>
      <trkpt lat="48.39125" lon="2.39753">
        <ele>113.6</ele>
        <time>2024-04-21T09:56:14Z</time>
      </trkpt>
      <trkpt lat="48.39125" lon="2.39752">
        <ele>113.8</ele>
        <time>2024-04-21T09:56:31Z</time>
      </trkpt>
      <trkpt lat="48.39125" lon="2.39752">
        <ele>113.8</ele>
        <time>2024-04-21T09:56:33Z</time>
      </trkpt>
      <trkpt lat="48.39125" lon="2.39752">
        <ele>113.8</ele>
        <time>2024-04-21T09:56:56Z</time>
      </trkpt>
      <trkpt lat="48.39125" lon="2.39751">
        <ele>114</ele>
        <time>2024-04-21T09:57:07Z</time>
      </trkpt>
      <trkpt lat="48.39127" lon="2.39743">
        <ele>114.2</ele>
        <time>2024-04-21T09:58:01Z</time>
      </trkpt>
      <trkpt lat="48.39128" lon="2.3974">
        <ele>114.2</ele>
        <time>2024-04-21T09:58:10Z</time>
      </trkpt>
      <trkpt lat="48.39131" lon="2.39741">
        <ele>114</ele>
        <time>2024-04-21T09:58:20Z</time>
      </trkpt>
      <trkpt lat="48.39134" lon="2.39744">
        <ele>114</ele>
        <time>2024-04-21T09:58:22Z</time>
      </trkpt>
      <trkpt lat="48.39143" lon="2.39746">
        <ele>114</ele>
        <time>2024-04-21T09:58:25Z</time>
      </trkpt>
      <trkpt lat="48.39161" lon="2.39738">
        <ele>113.4</ele>
        <time>2024-04-21T09:58:28Z</time>
      </trkpt>
      <trkpt lat="48.3917" lon="2.39721">
        <ele>112.4</ele>
        <time>2024-04-21T09:58:31Z</time>
      </trkpt>
      <trkpt lat="48.39172" lon="2.39714">
        <ele>111.2</ele>
        <time>2024-04-21T09:58:32Z</time>
      </trkpt>
      <trkpt lat="48.39173" lon="2.39707">
        <ele>109</ele>
        <time>2024-04-21T09:58:33Z</time>
      </trkpt>
      <trkpt lat="48.39174" lon="2.39701">
        <ele>106.8</ele>
        <time>2024-04-21T09:58:34Z</time>
      </trkpt>
      <trkpt lat="48.39175" lon="2.39696">
        <ele>104.6</ele>
        <time>2024-04-21T09:58:35Z</time>
      </trkpt>
      <trkpt lat="48.39175" lon="2.39691">
        <ele>100.2</ele>
        <time>2024-04-21T09:58:36Z</time>
      </trkpt>
      <trkpt lat="48.39175" lon="2.39683">
        <ele>99.2</ele>
        <time>2024-04-21T09:58:38Z</time>
      </trkpt>
      <trkpt lat="48.39174" lon="2.39662">
        <ele>98.8</ele>
        <time>2024-04-21T09:58:43Z</time>
      </trkpt>
      <trkpt lat="48.39173" lon="2.39645">
        <ele>99</ele>
        <time>2024-04-21T09:58:49Z</time>
      </trkpt>
      <trkpt lat="48.39172" lon="2.39633">
        <ele>99.4</ele>
        <time>2024-04-21T09:58:54Z</time>
      </trkpt>
      <trkpt lat="48.39169" lon="2.3962">
        <ele>99.4</ele>
        <time>2024-04-21T09:58:59Z</time>
      </trkpt>
      <trkpt lat="48.39167" lon="2.39615">
        <ele>99.4</ele>
        <time>2024-04-21T09:59:01Z</time>
      </trkpt>
      <trkpt lat="48.39166" lon="2.39612">
        <ele>99.4</ele>
        <time>2024-04-21T09:59:02Z</time>
      </trkpt>
      <trkpt lat="48.39163" lon="2.39601">
        <ele>99.8</ele>
        <time>2024-04-21T09:59:06Z</time>
      </trkpt>
      <trkpt lat="48.39156" lon="2.39587">
        <ele>100</ele>
        <time>2024-04-21T09:59:14Z</time>
      </trkpt>
      <trkpt lat="48.39153" lon="2.39583">
        <ele>99.2</ele>
        <time>2024-04-21T09:59:31Z</time>
      </trkpt>
      <trkpt lat="48.39153" lon="2.39582">
        <ele>99.6</ele>
        <time>2024-04-21T09:59:46Z</time>
      </trkpt>
      <trkpt lat="48.39153" lon="2.39582">
        <ele>99.4</ele>
        <time>2024-04-21T10:00:24Z</time>
      </trkpt>
      <trkpt lat="48.3915" lon="2.39576">
        <ele>99.6</ele>
        <time>2024-04-21T10:00:34Z</time>
      </trkpt>
      <trkpt lat="48.39151" lon="2.39571">
        <ele>99.6</ele>
        <time>2024-04-21T10:00:37Z</time>
      </trkpt>
      <trkpt lat="48.39155" lon="2.39561">
        <ele>99.6</ele>
        <time>2024-04-21T10:00:40Z</time>
      </trkpt>
      <trkpt lat="48.39158" lon="2.39548">
        <ele>99.6</ele>
        <time>2024-04-21T10:00:42Z</time>
      </trkpt>
      <trkpt lat="48.39156" lon="2.39533">
        <ele>99.4</ele>
        <time>2024-04-21T10:00:44Z</time>
      </trkpt>
      <trkpt lat="48.39161" lon="2.39502">
        <ele>98.4</ele>
        <time>2024-04-21T10:00:47Z</time>
      </trkpt>
      <trkpt lat="48.39165" lon="2.39491">
        <ele>97.4</ele>
        <time>2024-04-21T10:00:48Z</time>
      </trkpt>
      <trkpt lat="48.39167" lon="2.3948">
        <ele>96</ele>
        <time>2024-04-21T10:00:49Z</time>
      </trkpt>
      <trkpt lat="48.39167" lon="2.3947">
        <ele>94.6</ele>
        <time>2024-04-21T10:00:50Z</time>
      </trkpt>
      <trkpt lat="48.39167" lon="2.3946">
        <ele>93.2</ele>
        <time>2024-04-21T10:00:51Z</time>
      </trkpt>
      <trkpt lat="48.39166" lon="2.39449">
        <ele>91.8</ele>
        <time>2024-04-21T10:00:52Z</time>
      </trkpt>
      <trkpt lat="48.39165" lon="2.39438">
        <ele>90</ele>
        <time>2024-04-21T10:00:53Z</time>
      </trkpt>
      <trkpt lat="48.39164" lon="2.39426">
        <ele>87.8</ele>
        <time>2024-04-21T10:00:54Z</time>
      </trkpt>
      <trkpt lat="48.39162" lon="2.39414">
        <ele>85.4</ele>
        <time>2024-04-21T10:00:55Z</time>
      </trkpt>
      <trkpt lat="48.3916" lon="2.39405">
        <ele>82.8</ele>
        <time>2024-04-21T10:00:56Z</time>
      </trkpt>
      <trkpt lat="48.39157" lon="2.39397">
        <ele>81.4</ele>
        <time>2024-04-21T10:00:57Z</time>
      </trkpt>
      <trkpt lat="48.39155" lon="2.39389">
        <ele>80.8</ele>
        <time>2024-04-21T10:00:58Z</time>
      </trkpt>
      <trkpt lat="48.39154" lon="2.39382">
        <ele>80</ele>
        <time>2024-04-21T10:00:59Z</time>
      </trkpt>
      <trkpt lat="48.39153" lon="2.39364">
        <ele>78.4</ele>
        <time>2024-04-21T10:01:01Z</time>
      </trkpt>
      <trkpt lat="48.39152" lon="2.39354">
        <ele>77</ele>
        <time>2024-04-21T10:01:02Z</time>
      </trkpt>
      <trkpt lat="48.39149" lon="2.39345">
        <ele>75.6</ele>
        <time>2024-04-21T10:01:03Z</time>
      </trkpt>
      <trkpt lat="48.39141" lon="2.39328">
        <ele>75.2</ele>
        <time>2024-04-21T10:01:05Z</time>
      </trkpt>
      <trkpt lat="48.39135" lon="2.3931">
        <ele>74.6</ele>
        <time>2024-04-21T10:01:07Z</time>
      </trkpt>
      <trkpt lat="48.39135" lon="2.39294">
        <ele>73.8</ele>
        <time>2024-04-21T10:01:09Z</time>
      </trkpt>
      <trkpt lat="48.39135" lon="2.39288">
        <ele>73</ele>
        <time>2024-04-21T10:01:10Z</time>
      </trkpt>
      <trkpt lat="48.39138" lon="2.39283">
        <ele>71.8</ele>
        <time>2024-04-21T10:01:12Z</time>
      </trkpt>
      <trkpt lat="48.39142" lon="2.39281">
        <ele>71.4</ele>
        <time>2024-04-21T10:01:14Z</time>
      </trkpt>
      <trkpt lat="48.39144" lon="2.39281">
        <ele>71.4</ele>
        <time>2024-04-21T10:01:15Z</time>
      </trkpt>
      <trkpt lat="48.39143" lon="2.39278">
        <ele>71.2</ele>
        <time>2024-04-21T10:01:17Z</time>
      </trkpt>
      <trkpt lat="48.3914" lon="2.39278">
        <ele>71.4</ele>
        <time>2024-04-21T10:01:21Z</time>
      </trkpt>
      <trkpt lat="48.39143" lon="2.39278">
        <ele>71.6</ele>
        <time>2024-04-21T10:01:28Z</time>
      </trkpt>
      <trkpt lat="48.39145" lon="2.39277">
        <ele>71.8</ele>
        <time>2024-04-21T10:01:29Z</time>
      </trkpt>
      <trkpt lat="48.39155" lon="2.39272">
        <ele>71.6</ele>
        <time>2024-04-21T10:01:35Z</time>
      </trkpt>
      <trkpt lat="48.39168" lon="2.39283">
        <ele>71.2</ele>
        <time>2024-04-21T10:01:40Z</time>
      </trkpt>
      <trkpt lat="48.39174" lon="2.39288">
        <ele>71.2</ele>
        <time>2024-04-21T10:01:42Z</time>
      </trkpt>
      <trkpt lat="48.39174" lon="2.39286">
        <ele>71.2</ele>
        <time>2024-04-21T10:01:43Z</time>
      </trkpt>
      <trkpt lat="48.39169" lon="2.39279">
        <ele>71.2</ele>
        <time>2024-04-21T10:01:46Z</time>
      </trkpt>
      <trkpt lat="48.39167" lon="2.39277">
        <ele>71.2</ele>
        <time>2024-04-21T10:01:47Z</time>
      </trkpt>
      <trkpt lat="48.39154" lon="2.39267">
        <ele>71.4</ele>
        <time>2024-04-21T10:01:52Z</time>
      </trkpt>
      <trkpt lat="48.39152" lon="2.39266">
        <ele>71.8</ele>
        <time>2024-04-21T10:01:57Z</time>
      </trkpt>
      <trkpt lat="48.39154" lon="2.3927">
        <ele>72.2</ele>
        <time>2024-04-21T10:02:04Z</time>
      </trkpt>
      <trkpt lat="48.39156" lon="2.39271">
        <ele>72.2</ele>
        <time>2024-04-21T10:02:05Z</time>
      </trkpt>
      <trkpt lat="48.39166" lon="2.39279">
        <ele>72.2</ele>
        <time>2024-04-21T10:02:10Z</time>
      </trkpt>
      <trkpt lat="48.39177" lon="2.39296">
        <ele>71.8</ele>
        <time>2024-04-21T10:02:17Z</time>
      </trkpt>
      <trkpt lat="48.39187" lon="2.3932">
        <ele>71.8</ele>
        <time>2024-04-21T10:02:24Z</time>
      </trkpt>
      <trkpt lat="48.392" lon="2.3935">
        <ele>71.8</ele>
        <time>2024-04-21T10:02:32Z</time>
      </trkpt>
      <trkpt lat="48.3921" lon="2.39375">
        <ele>70.8</ele>
        <time>2024-04-21T10:02:38Z</time>
      </trkpt>
      <trkpt lat="48.39223" lon="2.39406">
        <ele>71</ele>
        <time>2024-04-21T10:02:45Z</time>
      </trkpt>
      <trkpt lat="48.39235" lon="2.3943">
        <ele>71.2</ele>
        <time>2024-04-21T10:02:51Z</time>
      </trkpt>
      <trkpt lat="48.39248" lon="2.39459">
        <ele>71.4</ele>
        <time>2024-04-21T10:02:57Z</time>
      </trkpt>
      <trkpt lat="48.39262" lon="2.39492">
        <ele>71.8</ele>
        <time>2024-04-21T10:03:03Z</time>
      </trkpt>
      <trkpt lat="48.39276" lon="2.39512">
        <ele>72.2</ele>
        <time>2024-04-21T10:03:08Z</time>
      </trkpt>
      <trkpt lat="48.39294" lon="2.39519">
        <ele>72.4</ele>
        <time>2024-04-21T10:03:13Z</time>
      </trkpt>
      <trkpt lat="48.393" lon="2.39518">
        <ele>72.4</ele>
        <time>2024-04-21T10:03:17Z</time>
      </trkpt>
      <trkpt lat="48.39304" lon="2.39515">
        <ele>72.4</ele>
        <time>2024-04-21T10:03:29Z</time>
      </trkpt>
      <trkpt lat="48.39303" lon="2.39501">
        <ele>72.4</ele>
        <time>2024-04-21T10:03:32Z</time>
      </trkpt>
      <trkpt lat="48.39302" lon="2.39495">
        <ele>72.4</ele>
        <time>2024-04-21T10:03:33Z</time>
      </trkpt>
      <trkpt lat="48.39293" lon="2.39465">
        <ele>71.8</ele>
        <time>2024-04-21T10:03:38Z</time>
      </trkpt>
      <trkpt lat="48.3928" lon="2.3942">
        <ele>71</ele>
        <time>2024-04-21T10:03:45Z</time>
      </trkpt>
      <trkpt lat="48.3927" lon="2.39385">
        <ele>70.6</ele>
        <time>2024-04-21T10:03:50Z</time>
      </trkpt>
      <trkpt lat="48.39266" lon="2.39372">
        <ele>70.6</ele>
        <time>2024-04-21T10:03:52Z</time>
      </trkpt>
      <trkpt lat="48.39264" lon="2.39364">
        <ele>70.6</ele>
        <time>2024-04-21T10:03:53Z</time>
      </trkpt>
      <trkpt lat="48.39257" lon="2.39324">
        <ele>70.2</ele>
        <time>2024-04-21T10:03:58Z</time>
      </trkpt>
      <trkpt lat="48.39248" lon="2.39261">
        <ele>70</ele>
        <time>2024-04-21T10:04:05Z</time>
      </trkpt>
      <trkpt lat="48.39247" lon="2.39251">
        <ele>69.8</ele>
        <time>2024-04-21T10:04:06Z</time>
      </trkpt>
      <trkpt lat="48.39249" lon="2.39216">
        <ele>69.6</ele>
        <time>2024-04-21T10:04:10Z</time>
      </trkpt>
      <trkpt lat="48.3925" lon="2.39207">
        <ele>69.6</ele>
        <time>2024-04-21T10:04:11Z</time>
      </trkpt>
      <trkpt lat="48.39252" lon="2.39159">
        <ele>69.2</ele>
        <time>2024-04-21T10:04:17Z</time>
      </trkpt>
      <trkpt lat="48.39254" lon="2.39132">
        <ele>68.8</ele>
        <time>2024-04-21T10:04:21Z</time>
      </trkpt>
      <trkpt lat="48.39257" lon="2.39112">
        <ele>68.6</ele>
        <time>2024-04-21T10:04:24Z</time>
      </trkpt>
      <trkpt lat="48.39261" lon="2.39099">
        <ele>68.4</ele>
        <time>2024-04-21T10:04:26Z</time>
      </trkpt>
      <trkpt lat="48.39266" lon="2.39089">
        <ele>68.2</ele>
        <time>2024-04-21T10:04:28Z</time>
      </trkpt>
      <trkpt lat="48.3927" lon="2.3907">
        <ele>68.2</ele>
        <time>2024-04-21T10:04:31Z</time>
      </trkpt>
      <trkpt lat="48.39273" lon="2.39043">
        <ele>68.4</ele>
        <time>2024-04-21T10:04:35Z</time>
      </trkpt>
      <trkpt lat="48.39289" lon="2.38959">
        <ele>68.6</ele>
        <time>2024-04-21T10:04:47Z</time>
      </trkpt>
      <trkpt lat="48.39301" lon="2.38912">
        <ele>68.6</ele>
        <time>2024-04-21T10:04:54Z</time>
      </trkpt>
      <trkpt lat="48.39312" lon="2.38858">
        <ele>68.6</ele>
        <time>2024-04-21T10:05:02Z</time>
      </trkpt>
      <trkpt lat="48.39322" lon="2.38813">
        <ele>68.4</ele>
        <time>2024-04-21T10:05:09Z</time>
      </trkpt>
      <trkpt lat="48.39332" lon="2.38756">
        <ele>68</ele>
        <time>2024-04-21T10:05:16Z</time>
      </trkpt>
      <trkpt lat="48.39344" lon="2.38693">
        <ele>67.8</ele>
        <time>2024-04-21T10:05:24Z</time>
      </trkpt>
      <trkpt lat="48.39358" lon="2.38639">
        <ele>67.6</ele>
        <time>2024-04-21T10:05:31Z</time>
      </trkpt>
      <trkpt lat="48.39361" lon="2.38632">
        <ele>67.6</ele>
        <time>2024-04-21T10:05:32Z</time>
      </trkpt>
      <trkpt lat="48.39375" lon="2.38586">
        <ele>67.6</ele>
        <time>2024-04-21T10:05:38Z</time>
      </trkpt>
      <trkpt lat="48.39377" lon="2.38579">
        <ele>67.6</ele>
        <time>2024-04-21T10:05:39Z</time>
      </trkpt>
      <trkpt lat="48.39393" lon="2.3854">
        <ele>67.4</ele>
        <time>2024-04-21T10:05:45Z</time>
      </trkpt>
      <trkpt lat="48.39413" lon="2.38493">
        <ele>67.4</ele>
        <time>2024-04-21T10:05:53Z</time>
      </trkpt>
      <trkpt lat="48.39426" lon="2.38456">
        <ele>67.6</ele>
        <time>2024-04-21T10:05:59Z</time>
      </trkpt>
      <trkpt lat="48.39428" lon="2.38449">
        <ele>67.8</ele>
        <time>2024-04-21T10:06:00Z</time>
      </trkpt>
      <trkpt lat="48.3943" lon="2.38423">
        <ele>67.8</ele>
        <time>2024-04-21T10:06:03Z</time>
      </trkpt>
      <trkpt lat="48.39432" lon="2.38406">
        <ele>67.8</ele>
        <time>2024-04-21T10:06:05Z</time>
      </trkpt>
      <trkpt lat="48.39435" lon="2.38349">
        <ele>68</ele>
        <time>2024-04-21T10:06:12Z</time>
      </trkpt>
      <trkpt lat="48.39439" lon="2.38309">
        <ele>68</ele>
        <time>2024-04-21T10:06:17Z</time>
      </trkpt>
      <trkpt lat="48.39439" lon="2.38291">
        <ele>68</ele>
        <time>2024-04-21T10:06:19Z</time>
      </trkpt>
      <trkpt lat="48.39435" lon="2.38209">
        <ele>67.6</ele>
        <time>2024-04-21T10:06:28Z</time>
      </trkpt>
      <trkpt lat="48.3943" lon="2.38153">
        <ele>67.4</ele>
        <time>2024-04-21T10:06:35Z</time>
      </trkpt>
      <trkpt lat="48.39425" lon="2.38105">
        <ele>68.4</ele>
        <time>2024-04-21T10:06:43Z</time>
      </trkpt>
      <trkpt lat="48.39425" lon="2.38102">
        <ele>68.6</ele>
        <time>2024-04-21T10:06:44Z</time>
      </trkpt>
      <trkpt lat="48.39426" lon="2.38091">
        <ele>69.2</ele>
        <time>2024-04-21T10:06:48Z</time>
      </trkpt>
      <trkpt lat="48.39425" lon="2.38089">
        <ele>69.2</ele>
        <time>2024-04-21T10:06:49Z</time>
      </trkpt>
      <trkpt lat="48.39421" lon="2.38086">
        <ele>69.2</ele>
        <time>2024-04-21T10:06:51Z</time>
      </trkpt>
      <trkpt lat="48.39413" lon="2.38091">
        <ele>69.4</ele>
        <time>2024-04-21T10:06:55Z</time>
      </trkpt>
      <trkpt lat="48.39411" lon="2.38085">
        <ele>69.6</ele>
        <time>2024-04-21T10:06:58Z</time>
      </trkpt>
      <trkpt lat="48.39409" lon="2.38078">
        <ele>69.6</ele>
        <time>2024-04-21T10:07:00Z</time>
      </trkpt>
      <trkpt lat="48.39406" lon="2.38073">
        <ele>69.8</ele>
        <time>2024-04-21T10:07:02Z</time>
      </trkpt>
      <trkpt lat="48.39403" lon="2.38072">
        <ele>69.8</ele>
        <time>2024-04-21T10:07:03Z</time>
      </trkpt>
      <trkpt lat="48.3939" lon="2.38064">
        <ele>70.2</ele>
        <time>2024-04-21T10:07:09Z</time>
      </trkpt>
      <trkpt lat="48.39373" lon="2.38049">
        <ele>70.4</ele>
        <time>2024-04-21T10:07:15Z</time>
      </trkpt>
      <trkpt lat="48.39348" lon="2.38031">
        <ele>70.4</ele>
        <time>2024-04-21T10:07:22Z</time>
      </trkpt>
      <trkpt lat="48.39319" lon="2.38006">
        <ele>70.2</ele>
        <time>2024-04-21T10:07:30Z</time>
      </trkpt>
      <trkpt lat="48.39314" lon="2.38001">
        <ele>70.4</ele>
        <time>2024-04-21T10:07:34Z</time>
      </trkpt>
      <trkpt lat="48.39313" lon="2.38001">
        <ele>70.4</ele>
        <time>2024-04-21T10:07:36Z</time>
      </trkpt>
      <trkpt lat="48.39311" lon="2.37997">
        <ele>71</ele>
        <time>2024-04-21T10:07:39Z</time>
      </trkpt>
      <trkpt lat="48.39312" lon="2.37995">
        <ele>71</ele>
        <time>2024-04-21T10:07:40Z</time>
      </trkpt>
      <trkpt lat="48.39313" lon="2.3798">
        <ele>71.4</ele>
        <time>2024-04-21T10:07:46Z</time>
      </trkpt>
      <trkpt lat="48.39314" lon="2.37958">
        <ele>71.4</ele>
        <time>2024-04-21T10:07:51Z</time>
      </trkpt>
      <trkpt lat="48.39315" lon="2.37935">
        <ele>71</ele>
        <time>2024-04-21T10:07:57Z</time>
      </trkpt>
      <trkpt lat="48.39321" lon="2.3791">
        <ele>71</ele>
        <time>2024-04-21T10:08:02Z</time>
      </trkpt>
      <trkpt lat="48.39325" lon="2.37885">
        <ele>71</ele>
        <time>2024-04-21T10:08:08Z</time>
      </trkpt>
      <trkpt lat="48.39326" lon="2.37859">
        <ele>71.6</ele>
        <time>2024-04-21T10:08:14Z</time>
      </trkpt>
      <trkpt lat="48.39318" lon="2.37853">
        <ele>72</ele>
        <time>2024-04-21T10:08:17Z</time>
      </trkpt>
      <trkpt lat="48.39315" lon="2.37852">
        <ele>72</ele>
        <time>2024-04-21T10:08:18Z</time>
      </trkpt>
      <trkpt lat="48.39287" lon="2.37845">
        <ele>72.6</ele>
        <time>2024-04-21T10:08:26Z</time>
      </trkpt>
      <trkpt lat="48.39254" lon="2.37839">
        <ele>72.6</ele>
        <time>2024-04-21T10:08:34Z</time>
      </trkpt>
      <trkpt lat="48.39215" lon="2.37841">
        <ele>71.4</ele>
        <time>2024-04-21T10:08:42Z</time>
      </trkpt>
      <trkpt lat="48.39176" lon="2.37842">
        <ele>71.2</ele>
        <time>2024-04-21T10:08:50Z</time>
      </trkpt>
      <trkpt lat="48.39156" lon="2.37843">
        <ele>71.4</ele>
        <time>2024-04-21T10:08:55Z</time>
      </trkpt>
      <trkpt lat="48.39089" lon="2.37885">
        <ele>75.6</ele>
        <time>2024-04-21T10:19:33Z</time>
      </trkpt>
      <trkpt lat="48.39059" lon="2.37912">
        <ele>75.6</ele>
        <time>2024-04-21T10:19:40Z</time>
      </trkpt>
      <trkpt lat="48.39024" lon="2.37938">
        <ele>75</ele>
        <time>2024-04-21T10:19:47Z</time>
      </trkpt>
      <trkpt lat="48.39018" lon="2.37942">
        <ele>74.6</ele>
        <time>2024-04-21T10:19:48Z</time>
      </trkpt>
      <trkpt lat="48.38996" lon="2.37956">
        <ele>74</ele>
        <time>2024-04-21T10:19:52Z</time>
      </trkpt>
      <trkpt lat="48.38989" lon="2.37958">
        <ele>73.8</ele>
        <time>2024-04-21T10:19:53Z</time>
      </trkpt>
      <trkpt lat="48.38984" lon="2.37959">
        <ele>73.6</ele>
        <time>2024-04-21T10:19:54Z</time>
      </trkpt>
      <trkpt lat="48.38972" lon="2.37959">
        <ele>73.4</ele>
        <time>2024-04-21T10:19:56Z</time>
      </trkpt>
      <trkpt lat="48.38967" lon="2.37958">
        <ele>73.2</ele>
        <time>2024-04-21T10:19:57Z</time>
      </trkpt>
      <trkpt lat="48.38934" lon="2.37948">
        <ele>73</ele>
        <time>2024-04-21T10:20:02Z</time>
      </trkpt>
      <trkpt lat="48.3891" lon="2.37927">
        <ele>72.6</ele>
        <time>2024-04-21T10:20:06Z</time>
      </trkpt>
      <trkpt lat="48.38905" lon="2.37921">
        <ele>72.2</ele>
        <time>2024-04-21T10:20:07Z</time>
      </trkpt>
      <trkpt lat="48.38895" lon="2.3791">
        <ele>72</ele>
        <time>2024-04-21T10:20:09Z</time>
      </trkpt>
      <trkpt lat="48.3888" lon="2.37893">
        <ele>71.6</ele>
        <time>2024-04-21T10:20:12Z</time>
      </trkpt>
      <trkpt lat="48.3886" lon="2.3787">
        <ele>71.4</ele>
        <time>2024-04-21T10:20:16Z</time>
      </trkpt>
      <trkpt lat="48.38854" lon="2.37866">
        <ele>71.2</ele>
        <time>2024-04-21T10:20:17Z</time>
      </trkpt>
      <trkpt lat="48.38849" lon="2.37863">
        <ele>71.2</ele>
        <time>2024-04-21T10:20:18Z</time>
      </trkpt>
      <trkpt lat="48.38808" lon="2.37852">
        <ele>71.2</ele>
        <time>2024-04-21T10:20:25Z</time>
      </trkpt>
      <trkpt lat="48.38762" lon="2.37851">
        <ele>71.4</ele>
        <time>2024-04-21T10:20:33Z</time>
      </trkpt>
      <trkpt lat="48.3872" lon="2.37859">
        <ele>72.2</ele>
        <time>2024-04-21T10:20:40Z</time>
      </trkpt>
      <trkpt lat="48.38703" lon="2.37864">
        <ele>72.2</ele>
        <time>2024-04-21T10:20:43Z</time>
      </trkpt>
      <trkpt lat="48.38674" lon="2.37871">
        <ele>72.6</ele>
        <time>2024-04-21T10:20:48Z</time>
      </trkpt>
      <trkpt lat="48.38668" lon="2.37872">
        <ele>72.6</ele>
        <time>2024-04-21T10:20:49Z</time>
      </trkpt>
      <trkpt lat="48.3864" lon="2.37875">
        <ele>72.6</ele>
        <time>2024-04-21T10:20:54Z</time>
      </trkpt>
      <trkpt lat="48.3859" lon="2.37878">
        <ele>73</ele>
        <time>2024-04-21T10:21:03Z</time>
      </trkpt>
      <trkpt lat="48.38576" lon="2.37878">
        <ele>73.4</ele>
        <time>2024-04-21T10:21:06Z</time>
      </trkpt>
      <trkpt lat="48.38557" lon="2.37878">
        <ele>73.6</ele>
        <time>2024-04-21T10:21:10Z</time>
      </trkpt>
      <trkpt lat="48.38518" lon="2.37878">
        <ele>73.6</ele>
        <time>2024-04-21T10:21:17Z</time>
      </trkpt>
      <trkpt lat="48.38464" lon="2.3788">
        <ele>73</ele>
        <time>2024-04-21T10:21:26Z</time>
      </trkpt>
      <trkpt lat="48.38424" lon="2.37876">
        <ele>72.2</ele>
        <time>2024-04-21T10:21:33Z</time>
      </trkpt>
      <trkpt lat="48.38419" lon="2.37875">
        <ele>72.2</ele>
        <time>2024-04-21T10:21:34Z</time>
      </trkpt>
      <trkpt lat="48.38389" lon="2.37863">
        <ele>72</ele>
        <time>2024-04-21T10:21:40Z</time>
      </trkpt>
      <trkpt lat="48.38363" lon="2.37855">
        <ele>72</ele>
        <time>2024-04-21T10:21:46Z</time>
      </trkpt>
      <trkpt lat="48.38325" lon="2.37848">
        <ele>71.6</ele>
        <time>2024-04-21T10:21:54Z</time>
      </trkpt>
      <trkpt lat="48.38299" lon="2.37844">
        <ele>71.6</ele>
        <time>2024-04-21T10:21:59Z</time>
      </trkpt>
      <trkpt lat="48.38292" lon="2.37844">
        <ele>71.4</ele>
        <time>2024-04-21T10:22:00Z</time>
      </trkpt>
      <trkpt lat="48.38253" lon="2.37841">
        <ele>71</ele>
        <time>2024-04-21T10:22:06Z</time>
      </trkpt>
      <trkpt lat="48.38207" lon="2.37833">
        <ele>70.8</ele>
        <time>2024-04-21T10:22:14Z</time>
      </trkpt>
    </trkseg>
  </trk>
</gpx>